<?xml version="1.0" encoding="UTF-8" standalone="no" ?>
<gpx xmlns="http://www.topografix.com/GPX/1/1" xmlns:xsi="http://www.w3.org/2001/XMLSchema-instance" xsi:schemaLocation="http://www.topografix.com/GPX/1/1 http://www.topografix.com/GPX/1/1/gpx.xsd" version="1.1" creator="VisuGPX - https://www.visugpx.com">
  <metadata>
    <name>Chalon-sur-Saône / Lyon à vélo</name>
    <desc><![CDATA[Chalon-sur-Saône / Lyon à vélo]]></desc>
  </metadata>
  <trk>
    <name><![CDATA[06-SEP-12 17:35:27]]></name>
    <trkseg>
      <trkpt lat="45.93974" lon="4.76896">
        <ele>176.06</ele>
        <time>2012-09-06T08:33:20Z</time>
      </trkpt>
      <trkpt lat="45.93974" lon="4.76896">
        <ele>176.06</ele>
        <time>2012-09-06T08:33:47Z</time>
      </trkpt>
      <trkpt lat="45.93974" lon="4.76897">
        <ele>176.06</ele>
        <time>2012-09-06T08:34:07Z</time>
      </trkpt>
      <trkpt lat="45.93973" lon="4.76899">
        <ele>176.54</ele>
        <time>2012-09-06T08:34:27Z</time>
      </trkpt>
      <trkpt lat="45.93974" lon="4.769">
        <ele>176.54</ele>
        <time>2012-09-06T08:34:37Z</time>
      </trkpt>
      <trkpt lat="45.93969" lon="4.76917">
        <ele>176.06</ele>
        <time>2012-09-06T08:34:48Z</time>
      </trkpt>
      <trkpt lat="45.93966" lon="4.76916">
        <ele>176.06</ele>
        <time>2012-09-06T08:34:50Z</time>
      </trkpt>
      <trkpt lat="45.93936" lon="4.76875">
        <ele>175.58</ele>
        <time>2012-09-06T08:35:04Z</time>
      </trkpt>
      <trkpt lat="45.93898" lon="4.76819">
        <ele>175.1</ele>
        <time>2012-09-06T08:35:20Z</time>
      </trkpt>
      <trkpt lat="45.93864" lon="4.76769">
        <ele>175.1</ele>
        <time>2012-09-06T08:35:36Z</time>
      </trkpt>
      <trkpt lat="45.93864" lon="4.76769">
        <ele>175.1</ele>
        <time>2012-09-06T08:35:57Z</time>
      </trkpt>
      <trkpt lat="45.93864" lon="4.76766">
        <ele>175.1</ele>
        <time>2012-09-06T08:36:16Z</time>
      </trkpt>
      <trkpt lat="45.9385" lon="4.76744">
        <ele>175.58</ele>
        <time>2012-09-06T08:36:23Z</time>
      </trkpt>
      <trkpt lat="45.93807" lon="4.76668">
        <ele>175.58</ele>
        <time>2012-09-06T08:36:37Z</time>
      </trkpt>
      <trkpt lat="45.93766" lon="4.76565">
        <ele>175.58</ele>
        <time>2012-09-06T08:36:53Z</time>
      </trkpt>
      <trkpt lat="45.93731" lon="4.76462">
        <ele>175.58</ele>
        <time>2012-09-06T08:37:08Z</time>
      </trkpt>
      <trkpt lat="45.93721" lon="4.76428">
        <ele>175.58</ele>
        <time>2012-09-06T08:37:13Z</time>
      </trkpt>
      <trkpt lat="45.93715" lon="4.76409">
        <ele>175.58</ele>
        <time>2012-09-06T08:37:16Z</time>
      </trkpt>
      <trkpt lat="45.93687" lon="4.76328">
        <ele>176.06</ele>
        <time>2012-09-06T08:37:30Z</time>
      </trkpt>
      <trkpt lat="45.93684" lon="4.76317">
        <ele>175.58</ele>
        <time>2012-09-06T08:37:32Z</time>
      </trkpt>
      <trkpt lat="45.93652" lon="4.76231">
        <ele>176.06</ele>
        <time>2012-09-06T08:37:47Z</time>
      </trkpt>
      <trkpt lat="45.93628" lon="4.76156">
        <ele>176.06</ele>
        <time>2012-09-06T08:38:01Z</time>
      </trkpt>
      <trkpt lat="45.93602" lon="4.76074">
        <ele>176.06</ele>
        <time>2012-09-06T08:38:16Z</time>
      </trkpt>
      <trkpt lat="45.9358" lon="4.76013">
        <ele>176.06</ele>
        <time>2012-09-06T08:38:27Z</time>
      </trkpt>
      <trkpt lat="45.9357" lon="4.75983">
        <ele>175.58</ele>
        <time>2012-09-06T08:38:37Z</time>
      </trkpt>
      <trkpt lat="45.93569" lon="4.75977">
        <ele>175.58</ele>
        <time>2012-09-06T08:38:50Z</time>
      </trkpt>
      <trkpt lat="45.93569" lon="4.75978">
        <ele>175.58</ele>
        <time>2012-09-06T08:39:19Z</time>
      </trkpt>
      <trkpt lat="45.93568" lon="4.75977">
        <ele>175.58</ele>
        <time>2012-09-06T08:39:28Z</time>
      </trkpt>
      <trkpt lat="45.93566" lon="4.75976">
        <ele>175.58</ele>
        <time>2012-09-06T08:39:29Z</time>
      </trkpt>
      <trkpt lat="45.93565" lon="4.75974">
        <ele>176.06</ele>
        <time>2012-09-06T08:39:30Z</time>
      </trkpt>
      <trkpt lat="45.93564" lon="4.75971">
        <ele>176.06</ele>
        <time>2012-09-06T08:39:31Z</time>
      </trkpt>
      <trkpt lat="45.93563" lon="4.75967">
        <ele>176.06</ele>
        <time>2012-09-06T08:39:32Z</time>
      </trkpt>
      <trkpt lat="45.93549" lon="4.75918">
        <ele>176.06</ele>
        <time>2012-09-06T08:39:41Z</time>
      </trkpt>
      <trkpt lat="45.93541" lon="4.75892">
        <ele>176.06</ele>
        <time>2012-09-06T08:39:45Z</time>
      </trkpt>
      <trkpt lat="45.93539" lon="4.75885">
        <ele>176.06</ele>
        <time>2012-09-06T08:39:46Z</time>
      </trkpt>
      <trkpt lat="45.93538" lon="4.75878">
        <ele>176.06</ele>
        <time>2012-09-06T08:39:47Z</time>
      </trkpt>
      <trkpt lat="45.9353" lon="4.75821">
        <ele>176.06</ele>
        <time>2012-09-06T08:39:55Z</time>
      </trkpt>
      <trkpt lat="45.93531" lon="4.75792">
        <ele>176.06</ele>
        <time>2012-09-06T08:39:59Z</time>
      </trkpt>
      <trkpt lat="45.93531" lon="4.75785">
        <ele>176.06</ele>
        <time>2012-09-06T08:40:00Z</time>
      </trkpt>
      <trkpt lat="45.93534" lon="4.75764">
        <ele>176.06</ele>
        <time>2012-09-06T08:40:03Z</time>
      </trkpt>
      <trkpt lat="45.93534" lon="4.75757">
        <ele>176.06</ele>
        <time>2012-09-06T08:40:04Z</time>
      </trkpt>
      <trkpt lat="45.9354" lon="4.75712">
        <ele>176.06</ele>
        <time>2012-09-06T08:40:10Z</time>
      </trkpt>
      <trkpt lat="45.93541" lon="4.75704">
        <ele>176.06</ele>
        <time>2012-09-06T08:40:11Z</time>
      </trkpt>
      <trkpt lat="45.93559" lon="4.75588">
        <ele>176.06</ele>
        <time>2012-09-06T08:40:27Z</time>
      </trkpt>
      <trkpt lat="45.93578" lon="4.75472">
        <ele>176.54</ele>
        <time>2012-09-06T08:40:44Z</time>
      </trkpt>
      <trkpt lat="45.93586" lon="4.7543">
        <ele>176.06</ele>
        <time>2012-09-06T08:40:57Z</time>
      </trkpt>
      <trkpt lat="45.93585" lon="4.75428">
        <ele>175.58</ele>
        <time>2012-09-06T08:41:22Z</time>
      </trkpt>
      <trkpt lat="45.93585" lon="4.75428">
        <ele>175.58</ele>
        <time>2012-09-06T08:41:53Z</time>
      </trkpt>
      <trkpt lat="45.93584" lon="4.75428">
        <ele>175.58</ele>
        <time>2012-09-06T08:42:34Z</time>
      </trkpt>
      <trkpt lat="45.93581" lon="4.75429">
        <ele>175.58</ele>
        <time>2012-09-06T08:43:15Z</time>
      </trkpt>
      <trkpt lat="45.93581" lon="4.75429">
        <ele>175.58</ele>
        <time>2012-09-06T08:43:48Z</time>
      </trkpt>
      <trkpt lat="45.93582" lon="4.75429">
        <ele>175.58</ele>
        <time>2012-09-06T08:44:16Z</time>
      </trkpt>
      <trkpt lat="45.93582" lon="4.7543">
        <ele>175.58</ele>
        <time>2012-09-06T08:44:44Z</time>
      </trkpt>
      <trkpt lat="45.93583" lon="4.7543">
        <ele>175.58</ele>
        <time>2012-09-06T08:45:06Z</time>
      </trkpt>
      <trkpt lat="45.93583" lon="4.75429">
        <ele>176.54</ele>
        <time>2012-09-06T08:45:28Z</time>
      </trkpt>
      <trkpt lat="45.93583" lon="4.75429">
        <ele>174.14</ele>
        <time>2012-09-06T08:45:32Z</time>
      </trkpt>
      <trkpt lat="45.93583" lon="4.75429">
        <ele>177.98</ele>
        <time>2012-09-06T08:45:33Z</time>
      </trkpt>
      <trkpt lat="45.93583" lon="4.75429">
        <ele>172.21</ele>
        <time>2012-09-06T08:45:38Z</time>
      </trkpt>
      <trkpt lat="45.93583" lon="4.75429">
        <ele>168.85</ele>
        <time>2012-09-06T08:45:39Z</time>
      </trkpt>
      <trkpt lat="45.93583" lon="4.75429">
        <ele>184.71</ele>
        <time>2012-09-06T08:45:40Z</time>
      </trkpt>
      <trkpt lat="45.93583" lon="4.75429">
        <ele>177.02</ele>
        <time>2012-09-06T08:45:41Z</time>
      </trkpt>
      <trkpt lat="45.93583" lon="4.75429">
        <ele>175.58</ele>
        <time>2012-09-06T08:45:43Z</time>
      </trkpt>
      <trkpt lat="45.93583" lon="4.75429">
        <ele>174.62</ele>
        <time>2012-09-06T08:46:10Z</time>
      </trkpt>
      <trkpt lat="45.93584" lon="4.75428">
        <ele>175.58</ele>
        <time>2012-09-06T08:46:26Z</time>
      </trkpt>
      <trkpt lat="45.93584" lon="4.75428">
        <ele>174.62</ele>
        <time>2012-09-06T08:46:56Z</time>
      </trkpt>
      <trkpt lat="45.93584" lon="4.75425">
        <ele>175.1</ele>
        <time>2012-09-06T08:47:23Z</time>
      </trkpt>
      <trkpt lat="45.93587" lon="4.75416">
        <ele>175.1</ele>
        <time>2012-09-06T08:47:28Z</time>
      </trkpt>
      <trkpt lat="45.93587" lon="4.75414">
        <ele>175.58</ele>
        <time>2012-09-06T08:47:29Z</time>
      </trkpt>
      <trkpt lat="45.93588" lon="4.7541">
        <ele>175.1</ele>
        <time>2012-09-06T08:47:30Z</time>
      </trkpt>
      <trkpt lat="45.93588" lon="4.75407">
        <ele>175.58</ele>
        <time>2012-09-06T08:47:31Z</time>
      </trkpt>
      <trkpt lat="45.93589" lon="4.75404">
        <ele>175.58</ele>
        <time>2012-09-06T08:47:32Z</time>
      </trkpt>
      <trkpt lat="45.9359" lon="4.754">
        <ele>175.1</ele>
        <time>2012-09-06T08:47:33Z</time>
      </trkpt>
      <trkpt lat="45.93591" lon="4.75397">
        <ele>175.58</ele>
        <time>2012-09-06T08:47:34Z</time>
      </trkpt>
      <trkpt lat="45.93596" lon="4.75339">
        <ele>175.58</ele>
        <time>2012-09-06T08:47:48Z</time>
      </trkpt>
      <trkpt lat="45.93611" lon="4.75261">
        <ele>175.58</ele>
        <time>2012-09-06T08:48:05Z</time>
      </trkpt>
      <trkpt lat="45.9363" lon="4.75194">
        <ele>175.58</ele>
        <time>2012-09-06T08:48:19Z</time>
      </trkpt>
      <trkpt lat="45.93653" lon="4.75138">
        <ele>175.1</ele>
        <time>2012-09-06T08:48:31Z</time>
      </trkpt>
      <trkpt lat="45.93687" lon="4.75065">
        <ele>175.58</ele>
        <time>2012-09-06T08:48:47Z</time>
      </trkpt>
      <trkpt lat="45.93693" lon="4.75054">
        <ele>175.58</ele>
        <time>2012-09-06T08:48:56Z</time>
      </trkpt>
      <trkpt lat="45.93693" lon="4.75052">
        <ele>175.1</ele>
        <time>2012-09-06T08:49:26Z</time>
      </trkpt>
      <trkpt lat="45.93694" lon="4.75049">
        <ele>175.1</ele>
        <time>2012-09-06T08:49:44Z</time>
      </trkpt>
      <trkpt lat="45.93694" lon="4.75047">
        <ele>175.1</ele>
        <time>2012-09-06T08:49:45Z</time>
      </trkpt>
      <trkpt lat="45.93696" lon="4.75044">
        <ele>175.1</ele>
        <time>2012-09-06T08:49:46Z</time>
      </trkpt>
      <trkpt lat="45.93706" lon="4.75025">
        <ele>175.1</ele>
        <time>2012-09-06T08:49:51Z</time>
      </trkpt>
      <trkpt lat="45.93708" lon="4.75019">
        <ele>175.58</ele>
        <time>2012-09-06T08:49:52Z</time>
      </trkpt>
      <trkpt lat="45.9375" lon="4.74928">
        <ele>175.58</ele>
        <time>2012-09-06T08:50:06Z</time>
      </trkpt>
      <trkpt lat="45.93753" lon="4.74922">
        <ele>175.58</ele>
        <time>2012-09-06T08:50:07Z</time>
      </trkpt>
      <trkpt lat="45.93798" lon="4.74839">
        <ele>175.58</ele>
        <time>2012-09-06T08:50:20Z</time>
      </trkpt>
      <trkpt lat="45.93802" lon="4.74833">
        <ele>175.1</ele>
        <time>2012-09-06T08:50:21Z</time>
      </trkpt>
      <trkpt lat="45.93805" lon="4.74827">
        <ele>175.1</ele>
        <time>2012-09-06T08:50:22Z</time>
      </trkpt>
      <trkpt lat="45.93809" lon="4.74821">
        <ele>175.1</ele>
        <time>2012-09-06T08:50:23Z</time>
      </trkpt>
      <trkpt lat="45.93812" lon="4.74815">
        <ele>175.1</ele>
        <time>2012-09-06T08:50:24Z</time>
      </trkpt>
      <trkpt lat="45.93815" lon="4.74808">
        <ele>175.1</ele>
        <time>2012-09-06T08:50:25Z</time>
      </trkpt>
      <trkpt lat="45.93844" lon="4.74748">
        <ele>175.1</ele>
        <time>2012-09-06T08:50:34Z</time>
      </trkpt>
      <trkpt lat="45.9386" lon="4.74708">
        <ele>175.1</ele>
        <time>2012-09-06T08:50:40Z</time>
      </trkpt>
      <trkpt lat="45.93862" lon="4.74702">
        <ele>174.62</ele>
        <time>2012-09-06T08:50:41Z</time>
      </trkpt>
      <trkpt lat="45.93889" lon="4.74614">
        <ele>174.62</ele>
        <time>2012-09-06T08:50:54Z</time>
      </trkpt>
      <trkpt lat="45.93891" lon="4.74607">
        <ele>174.62</ele>
        <time>2012-09-06T08:50:55Z</time>
      </trkpt>
      <trkpt lat="45.93909" lon="4.74498">
        <ele>175.1</ele>
        <time>2012-09-06T08:51:10Z</time>
      </trkpt>
      <trkpt lat="45.9391" lon="4.7447">
        <ele>175.1</ele>
        <time>2012-09-06T08:51:14Z</time>
      </trkpt>
      <trkpt lat="45.93911" lon="4.74463">
        <ele>175.1</ele>
        <time>2012-09-06T08:51:15Z</time>
      </trkpt>
      <trkpt lat="45.93911" lon="4.74449">
        <ele>175.1</ele>
        <time>2012-09-06T08:51:17Z</time>
      </trkpt>
      <trkpt lat="45.93911" lon="4.74442">
        <ele>175.1</ele>
        <time>2012-09-06T08:51:18Z</time>
      </trkpt>
      <trkpt lat="45.9391" lon="4.74435">
        <ele>175.1</ele>
        <time>2012-09-06T08:51:19Z</time>
      </trkpt>
      <trkpt lat="45.93908" lon="4.74407">
        <ele>174.62</ele>
        <time>2012-09-06T08:51:23Z</time>
      </trkpt>
      <trkpt lat="45.93908" lon="4.744">
        <ele>175.1</ele>
        <time>2012-09-06T08:51:24Z</time>
      </trkpt>
      <trkpt lat="45.93908" lon="4.74393">
        <ele>175.1</ele>
        <time>2012-09-06T08:51:25Z</time>
      </trkpt>
      <trkpt lat="45.93907" lon="4.74353">
        <ele>174.62</ele>
        <time>2012-09-06T08:51:31Z</time>
      </trkpt>
      <trkpt lat="45.93908" lon="4.74289">
        <ele>174.14</ele>
        <time>2012-09-06T08:51:40Z</time>
      </trkpt>
      <trkpt lat="45.93907" lon="4.74282">
        <ele>174.14</ele>
        <time>2012-09-06T08:51:41Z</time>
      </trkpt>
      <trkpt lat="45.93907" lon="4.74275">
        <ele>174.14</ele>
        <time>2012-09-06T08:51:42Z</time>
      </trkpt>
      <trkpt lat="45.93907" lon="4.74262">
        <ele>174.14</ele>
        <time>2012-09-06T08:51:44Z</time>
      </trkpt>
      <trkpt lat="45.93907" lon="4.74256">
        <ele>174.14</ele>
        <time>2012-09-06T08:51:45Z</time>
      </trkpt>
      <trkpt lat="45.9391" lon="4.74215">
        <ele>173.66</ele>
        <time>2012-09-06T08:51:51Z</time>
      </trkpt>
      <trkpt lat="45.93912" lon="4.74188">
        <ele>173.66</ele>
        <time>2012-09-06T08:51:55Z</time>
      </trkpt>
      <trkpt lat="45.93912" lon="4.74182">
        <ele>174.14</ele>
        <time>2012-09-06T08:51:56Z</time>
      </trkpt>
      <trkpt lat="45.93912" lon="4.74168">
        <ele>174.14</ele>
        <time>2012-09-06T08:51:58Z</time>
      </trkpt>
      <trkpt lat="45.93916" lon="4.74103">
        <ele>174.14</ele>
        <time>2012-09-06T08:52:08Z</time>
      </trkpt>
      <trkpt lat="45.93916" lon="4.74097">
        <ele>174.14</ele>
        <time>2012-09-06T08:52:09Z</time>
      </trkpt>
      <trkpt lat="45.93923" lon="4.74034">
        <ele>174.14</ele>
        <time>2012-09-06T08:52:21Z</time>
      </trkpt>
      <trkpt lat="45.9393" lon="4.73996">
        <ele>173.66</ele>
        <time>2012-09-06T08:52:32Z</time>
      </trkpt>
      <trkpt lat="45.93935" lon="4.73969">
        <ele>173.66</ele>
        <time>2012-09-06T08:52:44Z</time>
      </trkpt>
      <trkpt lat="45.93935" lon="4.73967">
        <ele>173.17</ele>
        <time>2012-09-06T08:53:11Z</time>
      </trkpt>
      <trkpt lat="45.93935" lon="4.73964">
        <ele>172.69</ele>
        <time>2012-09-06T08:53:40Z</time>
      </trkpt>
      <trkpt lat="45.93934" lon="4.73964">
        <ele>172.69</ele>
        <time>2012-09-06T08:54:13Z</time>
      </trkpt>
      <trkpt lat="45.93932" lon="4.73964">
        <ele>172.69</ele>
        <time>2012-09-06T08:54:35Z</time>
      </trkpt>
      <trkpt lat="45.93934" lon="4.73948">
        <ele>172.69</ele>
        <time>2012-09-06T08:54:46Z</time>
      </trkpt>
      <trkpt lat="45.93934" lon="4.73945">
        <ele>172.69</ele>
        <time>2012-09-06T08:54:47Z</time>
      </trkpt>
      <trkpt lat="45.93935" lon="4.73942">
        <ele>173.17</ele>
        <time>2012-09-06T08:54:48Z</time>
      </trkpt>
      <trkpt lat="45.93935" lon="4.73939">
        <ele>172.69</ele>
        <time>2012-09-06T08:54:49Z</time>
      </trkpt>
      <trkpt lat="45.93935" lon="4.73936">
        <ele>172.69</ele>
        <time>2012-09-06T08:54:50Z</time>
      </trkpt>
      <trkpt lat="45.93935" lon="4.73933">
        <ele>172.69</ele>
        <time>2012-09-06T08:54:51Z</time>
      </trkpt>
      <trkpt lat="45.93935" lon="4.73929">
        <ele>172.69</ele>
        <time>2012-09-06T08:54:52Z</time>
      </trkpt>
      <trkpt lat="45.93936" lon="4.73925">
        <ele>172.69</ele>
        <time>2012-09-06T08:54:53Z</time>
      </trkpt>
      <trkpt lat="45.93937" lon="4.73921">
        <ele>172.69</ele>
        <time>2012-09-06T08:54:54Z</time>
      </trkpt>
      <trkpt lat="45.93938" lon="4.73917">
        <ele>172.69</ele>
        <time>2012-09-06T08:54:55Z</time>
      </trkpt>
      <trkpt lat="45.93939" lon="4.73913">
        <ele>172.69</ele>
        <time>2012-09-06T08:54:56Z</time>
      </trkpt>
      <trkpt lat="45.9394" lon="4.73909">
        <ele>172.69</ele>
        <time>2012-09-06T08:54:57Z</time>
      </trkpt>
      <trkpt lat="45.93944" lon="4.7389">
        <ele>172.69</ele>
        <time>2012-09-06T08:55:03Z</time>
      </trkpt>
      <trkpt lat="45.93945" lon="4.73886">
        <ele>172.69</ele>
        <time>2012-09-06T08:55:04Z</time>
      </trkpt>
      <trkpt lat="45.93945" lon="4.73881">
        <ele>172.69</ele>
        <time>2012-09-06T08:55:05Z</time>
      </trkpt>
      <trkpt lat="45.93946" lon="4.73877">
        <ele>172.69</ele>
        <time>2012-09-06T08:55:06Z</time>
      </trkpt>
      <trkpt lat="45.93946" lon="4.73872">
        <ele>172.69</ele>
        <time>2012-09-06T08:55:07Z</time>
      </trkpt>
      <trkpt lat="45.93946" lon="4.73868">
        <ele>172.69</ele>
        <time>2012-09-06T08:55:08Z</time>
      </trkpt>
      <trkpt lat="45.93947" lon="4.73864">
        <ele>172.69</ele>
        <time>2012-09-06T08:55:09Z</time>
      </trkpt>
      <trkpt lat="45.93947" lon="4.7386">
        <ele>172.69</ele>
        <time>2012-09-06T08:55:10Z</time>
      </trkpt>
      <trkpt lat="45.93953" lon="4.73802">
        <ele>172.69</ele>
        <time>2012-09-06T08:55:23Z</time>
      </trkpt>
      <trkpt lat="45.9396" lon="4.73721">
        <ele>172.69</ele>
        <time>2012-09-06T08:55:37Z</time>
      </trkpt>
      <trkpt lat="45.93975" lon="4.73641">
        <ele>172.21</ele>
        <time>2012-09-06T08:55:51Z</time>
      </trkpt>
      <trkpt lat="45.93977" lon="4.73623">
        <ele>172.21</ele>
        <time>2012-09-06T08:55:54Z</time>
      </trkpt>
      <trkpt lat="45.93978" lon="4.73617">
        <ele>172.21</ele>
        <time>2012-09-06T08:55:55Z</time>
      </trkpt>
      <trkpt lat="45.93986" lon="4.73582">
        <ele>172.21</ele>
        <time>2012-09-06T08:56:01Z</time>
      </trkpt>
      <trkpt lat="45.93988" lon="4.73576">
        <ele>172.21</ele>
        <time>2012-09-06T08:56:02Z</time>
      </trkpt>
      <trkpt lat="45.94013" lon="4.73509">
        <ele>172.21</ele>
        <time>2012-09-06T08:56:14Z</time>
      </trkpt>
      <trkpt lat="45.94041" lon="4.73453">
        <ele>172.69</ele>
        <time>2012-09-06T08:56:26Z</time>
      </trkpt>
      <trkpt lat="45.94085" lon="4.7338">
        <ele>172.21</ele>
        <time>2012-09-06T08:56:42Z</time>
      </trkpt>
      <trkpt lat="45.94123" lon="4.73326">
        <ele>172.21</ele>
        <time>2012-09-06T08:56:54Z</time>
      </trkpt>
      <trkpt lat="45.94126" lon="4.73321">
        <ele>172.21</ele>
        <time>2012-09-06T08:56:55Z</time>
      </trkpt>
      <trkpt lat="45.94159" lon="4.73275">
        <ele>172.21</ele>
        <time>2012-09-06T08:57:05Z</time>
      </trkpt>
      <trkpt lat="45.94163" lon="4.73271">
        <ele>172.21</ele>
        <time>2012-09-06T08:57:06Z</time>
      </trkpt>
      <trkpt lat="45.94204" lon="4.7323">
        <ele>172.21</ele>
        <time>2012-09-06T08:57:18Z</time>
      </trkpt>
      <trkpt lat="45.94219" lon="4.73216">
        <ele>172.21</ele>
        <time>2012-09-06T08:57:22Z</time>
      </trkpt>
      <trkpt lat="45.94278" lon="4.73172">
        <ele>172.21</ele>
        <time>2012-09-06T08:57:37Z</time>
      </trkpt>
      <trkpt lat="45.9429" lon="4.73162">
        <ele>172.21</ele>
        <time>2012-09-06T08:57:40Z</time>
      </trkpt>
      <trkpt lat="45.94333" lon="4.73128">
        <ele>172.21</ele>
        <time>2012-09-06T08:57:52Z</time>
      </trkpt>
      <trkpt lat="45.94385" lon="4.73082">
        <ele>172.21</ele>
        <time>2012-09-06T08:58:06Z</time>
      </trkpt>
      <trkpt lat="45.94431" lon="4.73032">
        <ele>172.21</ele>
        <time>2012-09-06T08:58:19Z</time>
      </trkpt>
      <trkpt lat="45.94441" lon="4.73021">
        <ele>172.21</ele>
        <time>2012-09-06T08:58:22Z</time>
      </trkpt>
      <trkpt lat="45.94445" lon="4.73018">
        <ele>171.73</ele>
        <time>2012-09-06T08:58:23Z</time>
      </trkpt>
      <trkpt lat="45.94448" lon="4.73016">
        <ele>172.21</ele>
        <time>2012-09-06T08:58:24Z</time>
      </trkpt>
      <trkpt lat="45.94481" lon="4.73012">
        <ele>171.73</ele>
        <time>2012-09-06T08:58:33Z</time>
      </trkpt>
      <trkpt lat="45.94543" lon="4.73007">
        <ele>172.21</ele>
        <time>2012-09-06T08:58:48Z</time>
      </trkpt>
      <trkpt lat="45.94578" lon="4.73009">
        <ele>171.73</ele>
        <time>2012-09-06T08:58:59Z</time>
      </trkpt>
      <trkpt lat="45.94579" lon="4.73009">
        <ele>171.73</ele>
        <time>2012-09-06T08:59:12Z</time>
      </trkpt>
      <trkpt lat="45.94579" lon="4.7301">
        <ele>172.21</ele>
        <time>2012-09-06T08:59:28Z</time>
      </trkpt>
      <trkpt lat="45.94578" lon="4.7301">
        <ele>172.21</ele>
        <time>2012-09-06T08:59:52Z</time>
      </trkpt>
      <trkpt lat="45.94579" lon="4.73011">
        <ele>171.73</ele>
        <time>2012-09-06T08:59:58Z</time>
      </trkpt>
      <trkpt lat="45.94582" lon="4.73012">
        <ele>172.21</ele>
        <time>2012-09-06T09:00:00Z</time>
      </trkpt>
      <trkpt lat="45.94583" lon="4.73013">
        <ele>172.21</ele>
        <time>2012-09-06T09:00:01Z</time>
      </trkpt>
      <trkpt lat="45.94584" lon="4.73013">
        <ele>172.21</ele>
        <time>2012-09-06T09:00:02Z</time>
      </trkpt>
      <trkpt lat="45.94585" lon="4.73014">
        <ele>172.21</ele>
        <time>2012-09-06T09:00:03Z</time>
      </trkpt>
      <trkpt lat="45.94587" lon="4.73014">
        <ele>172.21</ele>
        <time>2012-09-06T09:00:04Z</time>
      </trkpt>
      <trkpt lat="45.94589" lon="4.73014">
        <ele>171.73</ele>
        <time>2012-09-06T09:00:05Z</time>
      </trkpt>
      <trkpt lat="45.9459" lon="4.73013">
        <ele>171.73</ele>
        <time>2012-09-06T09:00:06Z</time>
      </trkpt>
      <trkpt lat="45.94591" lon="4.73014">
        <ele>172.21</ele>
        <time>2012-09-06T09:00:07Z</time>
      </trkpt>
      <trkpt lat="45.94593" lon="4.73015">
        <ele>172.21</ele>
        <time>2012-09-06T09:00:21Z</time>
      </trkpt>
      <trkpt lat="45.94594" lon="4.73016">
        <ele>172.21</ele>
        <time>2012-09-06T09:00:53Z</time>
      </trkpt>
      <trkpt lat="45.94599" lon="4.73016">
        <ele>172.21</ele>
        <time>2012-09-06T09:01:07Z</time>
      </trkpt>
      <trkpt lat="45.946" lon="4.73017">
        <ele>172.21</ele>
        <time>2012-09-06T09:01:08Z</time>
      </trkpt>
      <trkpt lat="45.94601" lon="4.73017">
        <ele>172.69</ele>
        <time>2012-09-06T09:01:09Z</time>
      </trkpt>
      <trkpt lat="45.94602" lon="4.73017">
        <ele>172.21</ele>
        <time>2012-09-06T09:01:10Z</time>
      </trkpt>
      <trkpt lat="45.94609" lon="4.73016">
        <ele>172.69</ele>
        <time>2012-09-06T09:01:15Z</time>
      </trkpt>
      <trkpt lat="45.94611" lon="4.73017">
        <ele>172.69</ele>
        <time>2012-09-06T09:01:16Z</time>
      </trkpt>
      <trkpt lat="45.94613" lon="4.73017">
        <ele>172.69</ele>
        <time>2012-09-06T09:01:17Z</time>
      </trkpt>
      <trkpt lat="45.94615" lon="4.73018">
        <ele>172.69</ele>
        <time>2012-09-06T09:01:18Z</time>
      </trkpt>
      <trkpt lat="45.94618" lon="4.73018">
        <ele>172.69</ele>
        <time>2012-09-06T09:01:19Z</time>
      </trkpt>
      <trkpt lat="45.94625" lon="4.73018">
        <ele>172.69</ele>
        <time>2012-09-06T09:01:22Z</time>
      </trkpt>
      <trkpt lat="45.94627" lon="4.73019">
        <ele>172.69</ele>
        <time>2012-09-06T09:01:23Z</time>
      </trkpt>
      <trkpt lat="45.9463" lon="4.7302">
        <ele>172.69</ele>
        <time>2012-09-06T09:01:24Z</time>
      </trkpt>
      <trkpt lat="45.94633" lon="4.73021">
        <ele>172.69</ele>
        <time>2012-09-06T09:01:25Z</time>
      </trkpt>
      <trkpt lat="45.94636" lon="4.73022">
        <ele>172.69</ele>
        <time>2012-09-06T09:01:26Z</time>
      </trkpt>
      <trkpt lat="45.94669" lon="4.7303">
        <ele>172.69</ele>
        <time>2012-09-06T09:01:36Z</time>
      </trkpt>
      <trkpt lat="45.94722" lon="4.73051">
        <ele>172.69</ele>
        <time>2012-09-06T09:01:49Z</time>
      </trkpt>
      <trkpt lat="45.94774" lon="4.73076">
        <ele>172.21</ele>
        <time>2012-09-06T09:02:02Z</time>
      </trkpt>
      <trkpt lat="45.94835" lon="4.73111">
        <ele>172.69</ele>
        <time>2012-09-06T09:02:17Z</time>
      </trkpt>
      <trkpt lat="45.94897" lon="4.73152">
        <ele>173.17</ele>
        <time>2012-09-06T09:02:33Z</time>
      </trkpt>
      <trkpt lat="45.94941" lon="4.73188">
        <ele>173.17</ele>
        <time>2012-09-06T09:02:45Z</time>
      </trkpt>
      <trkpt lat="45.94967" lon="4.73214">
        <ele>173.17</ele>
        <time>2012-09-06T09:02:55Z</time>
      </trkpt>
      <trkpt lat="45.94969" lon="4.73217">
        <ele>173.17</ele>
        <time>2012-09-06T09:02:56Z</time>
      </trkpt>
      <trkpt lat="45.94972" lon="4.73218">
        <ele>173.17</ele>
        <time>2012-09-06T09:02:57Z</time>
      </trkpt>
      <trkpt lat="45.94975" lon="4.7322">
        <ele>173.17</ele>
        <time>2012-09-06T09:02:58Z</time>
      </trkpt>
      <trkpt lat="45.94978" lon="4.73222">
        <ele>173.17</ele>
        <time>2012-09-06T09:02:59Z</time>
      </trkpt>
      <trkpt lat="45.94981" lon="4.73224">
        <ele>173.17</ele>
        <time>2012-09-06T09:03:00Z</time>
      </trkpt>
      <trkpt lat="45.95008" lon="4.73253">
        <ele>173.17</ele>
        <time>2012-09-06T09:03:10Z</time>
      </trkpt>
      <trkpt lat="45.95035" lon="4.73279">
        <ele>173.17</ele>
        <time>2012-09-06T09:03:18Z</time>
      </trkpt>
      <trkpt lat="45.95038" lon="4.73283">
        <ele>173.17</ele>
        <time>2012-09-06T09:03:19Z</time>
      </trkpt>
      <trkpt lat="45.95064" lon="4.73312">
        <ele>173.17</ele>
        <time>2012-09-06T09:03:27Z</time>
      </trkpt>
      <trkpt lat="45.95074" lon="4.73324">
        <ele>172.69</ele>
        <time>2012-09-06T09:03:30Z</time>
      </trkpt>
      <trkpt lat="45.95077" lon="4.73328">
        <ele>172.69</ele>
        <time>2012-09-06T09:03:31Z</time>
      </trkpt>
      <trkpt lat="45.9508" lon="4.73332">
        <ele>172.69</ele>
        <time>2012-09-06T09:03:32Z</time>
      </trkpt>
      <trkpt lat="45.95084" lon="4.73336">
        <ele>173.17</ele>
        <time>2012-09-06T09:03:33Z</time>
      </trkpt>
      <trkpt lat="45.95087" lon="4.73339">
        <ele>173.17</ele>
        <time>2012-09-06T09:03:34Z</time>
      </trkpt>
      <trkpt lat="45.95091" lon="4.73343">
        <ele>172.69</ele>
        <time>2012-09-06T09:03:35Z</time>
      </trkpt>
      <trkpt lat="45.95141" lon="4.73404">
        <ele>172.69</ele>
        <time>2012-09-06T09:03:51Z</time>
      </trkpt>
      <trkpt lat="45.95184" lon="4.73466">
        <ele>172.69</ele>
        <time>2012-09-06T09:04:06Z</time>
      </trkpt>
      <trkpt lat="45.95218" lon="4.73521">
        <ele>172.69</ele>
        <time>2012-09-06T09:04:19Z</time>
      </trkpt>
      <trkpt lat="45.95259" lon="4.73579">
        <ele>173.17</ele>
        <time>2012-09-06T09:04:33Z</time>
      </trkpt>
      <trkpt lat="45.95305" lon="4.73629">
        <ele>172.69</ele>
        <time>2012-09-06T09:04:46Z</time>
      </trkpt>
      <trkpt lat="45.95348" lon="4.73689">
        <ele>172.69</ele>
        <time>2012-09-06T09:05:00Z</time>
      </trkpt>
      <trkpt lat="45.95368" lon="4.73721">
        <ele>172.21</ele>
        <time>2012-09-06T09:05:07Z</time>
      </trkpt>
      <trkpt lat="45.95372" lon="4.73726">
        <ele>172.21</ele>
        <time>2012-09-06T09:05:08Z</time>
      </trkpt>
      <trkpt lat="45.9543" lon="4.73808">
        <ele>171.73</ele>
        <time>2012-09-06T09:05:25Z</time>
      </trkpt>
      <trkpt lat="45.95471" lon="4.73868">
        <ele>172.21</ele>
        <time>2012-09-06T09:05:39Z</time>
      </trkpt>
      <trkpt lat="45.95488" lon="4.73896">
        <ele>172.21</ele>
        <time>2012-09-06T09:05:46Z</time>
      </trkpt>
      <trkpt lat="45.95542" lon="4.73974">
        <ele>172.21</ele>
        <time>2012-09-06T09:06:03Z</time>
      </trkpt>
      <trkpt lat="45.95544" lon="4.73979">
        <ele>171.73</ele>
        <time>2012-09-06T09:06:04Z</time>
      </trkpt>
      <trkpt lat="45.95547" lon="4.73983">
        <ele>171.73</ele>
        <time>2012-09-06T09:06:05Z</time>
      </trkpt>
      <trkpt lat="45.9555" lon="4.73987">
        <ele>171.73</ele>
        <time>2012-09-06T09:06:06Z</time>
      </trkpt>
      <trkpt lat="45.95552" lon="4.73992">
        <ele>172.21</ele>
        <time>2012-09-06T09:06:07Z</time>
      </trkpt>
      <trkpt lat="45.95599" lon="4.74066">
        <ele>172.69</ele>
        <time>2012-09-06T09:06:24Z</time>
      </trkpt>
      <trkpt lat="45.9564" lon="4.74134">
        <ele>172.69</ele>
        <time>2012-09-06T09:06:39Z</time>
      </trkpt>
      <trkpt lat="45.95678" lon="4.74196">
        <ele>172.69</ele>
        <time>2012-09-06T09:06:53Z</time>
      </trkpt>
      <trkpt lat="45.95728" lon="4.74281">
        <ele>172.69</ele>
        <time>2012-09-06T09:07:11Z</time>
      </trkpt>
      <trkpt lat="45.95755" lon="4.74332">
        <ele>172.69</ele>
        <time>2012-09-06T09:07:21Z</time>
      </trkpt>
      <trkpt lat="45.95775" lon="4.74368">
        <ele>172.21</ele>
        <time>2012-09-06T09:07:28Z</time>
      </trkpt>
      <trkpt lat="45.95812" lon="4.74438">
        <ele>172.69</ele>
        <time>2012-09-06T09:07:42Z</time>
      </trkpt>
      <trkpt lat="45.95846" lon="4.74502">
        <ele>172.69</ele>
        <time>2012-09-06T09:07:56Z</time>
      </trkpt>
      <trkpt lat="45.95861" lon="4.74529">
        <ele>172.69</ele>
        <time>2012-09-06T09:08:02Z</time>
      </trkpt>
      <trkpt lat="45.95912" lon="4.7462">
        <ele>172.69</ele>
        <time>2012-09-06T09:08:21Z</time>
      </trkpt>
      <trkpt lat="45.95949" lon="4.74681">
        <ele>173.17</ele>
        <time>2012-09-06T09:08:36Z</time>
      </trkpt>
      <trkpt lat="45.95953" lon="4.7469">
        <ele>173.17</ele>
        <time>2012-09-06T09:08:39Z</time>
      </trkpt>
      <trkpt lat="45.95956" lon="4.74692">
        <ele>173.17</ele>
        <time>2012-09-06T09:08:40Z</time>
      </trkpt>
      <trkpt lat="45.95958" lon="4.74694">
        <ele>173.17</ele>
        <time>2012-09-06T09:08:41Z</time>
      </trkpt>
      <trkpt lat="45.9596" lon="4.74697">
        <ele>173.17</ele>
        <time>2012-09-06T09:08:42Z</time>
      </trkpt>
      <trkpt lat="45.95962" lon="4.747">
        <ele>173.66</ele>
        <time>2012-09-06T09:08:43Z</time>
      </trkpt>
      <trkpt lat="45.95964" lon="4.74703">
        <ele>173.17</ele>
        <time>2012-09-06T09:08:44Z</time>
      </trkpt>
      <trkpt lat="45.96002" lon="4.7476">
        <ele>173.17</ele>
        <time>2012-09-06T09:09:00Z</time>
      </trkpt>
      <trkpt lat="45.96014" lon="4.74778">
        <ele>173.17</ele>
        <time>2012-09-06T09:09:04Z</time>
      </trkpt>
      <trkpt lat="45.96017" lon="4.74782">
        <ele>173.17</ele>
        <time>2012-09-06T09:09:05Z</time>
      </trkpt>
      <trkpt lat="45.96028" lon="4.748">
        <ele>172.69</ele>
        <time>2012-09-06T09:09:09Z</time>
      </trkpt>
      <trkpt lat="45.96047" lon="4.74821">
        <ele>172.69</ele>
        <time>2012-09-06T09:09:14Z</time>
      </trkpt>
      <trkpt lat="45.96051" lon="4.74825">
        <ele>173.17</ele>
        <time>2012-09-06T09:09:15Z</time>
      </trkpt>
      <trkpt lat="45.96076" lon="4.74853">
        <ele>173.17</ele>
        <time>2012-09-06T09:09:22Z</time>
      </trkpt>
      <trkpt lat="45.96113" lon="4.74899">
        <ele>172.69</ele>
        <time>2012-09-06T09:09:34Z</time>
      </trkpt>
      <trkpt lat="45.96118" lon="4.74908">
        <ele>172.69</ele>
        <time>2012-09-06T09:09:36Z</time>
      </trkpt>
      <trkpt lat="45.96121" lon="4.74913">
        <ele>172.69</ele>
        <time>2012-09-06T09:09:37Z</time>
      </trkpt>
      <trkpt lat="45.9614" lon="4.74935">
        <ele>172.69</ele>
        <time>2012-09-06T09:09:42Z</time>
      </trkpt>
      <trkpt lat="45.96174" lon="4.74967">
        <ele>172.69</ele>
        <time>2012-09-06T09:09:50Z</time>
      </trkpt>
      <trkpt lat="45.96178" lon="4.74972">
        <ele>172.69</ele>
        <time>2012-09-06T09:09:51Z</time>
      </trkpt>
      <trkpt lat="45.96182" lon="4.74976">
        <ele>172.69</ele>
        <time>2012-09-06T09:09:52Z</time>
      </trkpt>
      <trkpt lat="45.96186" lon="4.74979">
        <ele>172.69</ele>
        <time>2012-09-06T09:09:53Z</time>
      </trkpt>
      <trkpt lat="45.96191" lon="4.74982">
        <ele>172.69</ele>
        <time>2012-09-06T09:09:54Z</time>
      </trkpt>
      <trkpt lat="45.96204" lon="4.74991">
        <ele>172.69</ele>
        <time>2012-09-06T09:09:57Z</time>
      </trkpt>
      <trkpt lat="45.96253" lon="4.75037">
        <ele>172.69</ele>
        <time>2012-09-06T09:10:09Z</time>
      </trkpt>
      <trkpt lat="45.96256" lon="4.7504">
        <ele>172.69</ele>
        <time>2012-09-06T09:10:10Z</time>
      </trkpt>
      <trkpt lat="45.9626" lon="4.75044">
        <ele>172.21</ele>
        <time>2012-09-06T09:10:11Z</time>
      </trkpt>
      <trkpt lat="45.96287" lon="4.75069">
        <ele>172.69</ele>
        <time>2012-09-06T09:10:19Z</time>
      </trkpt>
      <trkpt lat="45.96291" lon="4.75071">
        <ele>172.69</ele>
        <time>2012-09-06T09:10:20Z</time>
      </trkpt>
      <trkpt lat="45.96295" lon="4.75073">
        <ele>172.69</ele>
        <time>2012-09-06T09:10:21Z</time>
      </trkpt>
      <trkpt lat="45.96299" lon="4.75075">
        <ele>172.69</ele>
        <time>2012-09-06T09:10:22Z</time>
      </trkpt>
      <trkpt lat="45.96303" lon="4.75077">
        <ele>172.21</ele>
        <time>2012-09-06T09:10:23Z</time>
      </trkpt>
      <trkpt lat="45.96348" lon="4.75115">
        <ele>172.21</ele>
        <time>2012-09-06T09:10:36Z</time>
      </trkpt>
      <trkpt lat="45.96357" lon="4.75126">
        <ele>172.21</ele>
        <time>2012-09-06T09:10:39Z</time>
      </trkpt>
      <trkpt lat="45.9636" lon="4.7513">
        <ele>172.21</ele>
        <time>2012-09-06T09:10:40Z</time>
      </trkpt>
      <trkpt lat="45.96364" lon="4.75133">
        <ele>172.21</ele>
        <time>2012-09-06T09:10:41Z</time>
      </trkpt>
      <trkpt lat="45.96374" lon="4.75141">
        <ele>172.69</ele>
        <time>2012-09-06T09:10:44Z</time>
      </trkpt>
      <trkpt lat="45.96417" lon="4.75179">
        <ele>172.69</ele>
        <time>2012-09-06T09:10:57Z</time>
      </trkpt>
      <trkpt lat="45.96433" lon="4.75189">
        <ele>172.69</ele>
        <time>2012-09-06T09:11:01Z</time>
      </trkpt>
      <trkpt lat="45.96471" lon="4.75223">
        <ele>172.69</ele>
        <time>2012-09-06T09:11:12Z</time>
      </trkpt>
      <trkpt lat="45.96497" lon="4.75243">
        <ele>172.69</ele>
        <time>2012-09-06T09:11:19Z</time>
      </trkpt>
      <trkpt lat="45.96501" lon="4.75246">
        <ele>172.69</ele>
        <time>2012-09-06T09:11:20Z</time>
      </trkpt>
      <trkpt lat="45.96535" lon="4.75277">
        <ele>172.69</ele>
        <time>2012-09-06T09:11:30Z</time>
      </trkpt>
      <trkpt lat="45.96539" lon="4.7528">
        <ele>172.21</ele>
        <time>2012-09-06T09:11:31Z</time>
      </trkpt>
      <trkpt lat="45.96593" lon="4.75326">
        <ele>172.69</ele>
        <time>2012-09-06T09:11:46Z</time>
      </trkpt>
      <trkpt lat="45.96638" lon="4.75365">
        <ele>173.17</ele>
        <time>2012-09-06T09:11:59Z</time>
      </trkpt>
      <trkpt lat="45.96687" lon="4.75399">
        <ele>172.69</ele>
        <time>2012-09-06T09:12:13Z</time>
      </trkpt>
      <trkpt lat="45.96723" lon="4.75422">
        <ele>172.69</ele>
        <time>2012-09-06T09:12:26Z</time>
      </trkpt>
      <trkpt lat="45.9675" lon="4.75438">
        <ele>172.69</ele>
        <time>2012-09-06T09:12:37Z</time>
      </trkpt>
      <trkpt lat="45.96755" lon="4.75439">
        <ele>172.69</ele>
        <time>2012-09-06T09:12:50Z</time>
      </trkpt>
      <trkpt lat="45.96755" lon="4.7544">
        <ele>172.69</ele>
        <time>2012-09-06T09:13:17Z</time>
      </trkpt>
      <trkpt lat="45.96756" lon="4.7544">
        <ele>172.69</ele>
        <time>2012-09-06T09:13:30Z</time>
      </trkpt>
      <trkpt lat="45.96757" lon="4.75441">
        <ele>172.69</ele>
        <time>2012-09-06T09:13:31Z</time>
      </trkpt>
      <trkpt lat="45.96759" lon="4.75442">
        <ele>172.69</ele>
        <time>2012-09-06T09:13:32Z</time>
      </trkpt>
      <trkpt lat="45.96762" lon="4.75443">
        <ele>172.21</ele>
        <time>2012-09-06T09:13:33Z</time>
      </trkpt>
      <trkpt lat="45.96766" lon="4.75444">
        <ele>172.21</ele>
        <time>2012-09-06T09:13:34Z</time>
      </trkpt>
      <trkpt lat="45.96801" lon="4.75457">
        <ele>171.73</ele>
        <time>2012-09-06T09:13:42Z</time>
      </trkpt>
      <trkpt lat="45.96857" lon="4.75481">
        <ele>171.73</ele>
        <time>2012-09-06T09:13:56Z</time>
      </trkpt>
      <trkpt lat="45.96895" lon="4.75499">
        <ele>171.73</ele>
        <time>2012-09-06T09:14:07Z</time>
      </trkpt>
      <trkpt lat="45.96921" lon="4.75508">
        <ele>171.25</ele>
        <time>2012-09-06T09:14:17Z</time>
      </trkpt>
      <trkpt lat="45.96962" lon="4.75525">
        <ele>171.73</ele>
        <time>2012-09-06T09:14:28Z</time>
      </trkpt>
      <trkpt lat="45.96992" lon="4.75536">
        <ele>171.73</ele>
        <time>2012-09-06T09:14:37Z</time>
      </trkpt>
      <trkpt lat="45.97025" lon="4.7554">
        <ele>170.77</ele>
        <time>2012-09-06T09:14:47Z</time>
      </trkpt>
      <trkpt lat="45.97064" lon="4.75549">
        <ele>171.25</ele>
        <time>2012-09-06T09:14:57Z</time>
      </trkpt>
      <trkpt lat="45.97115" lon="4.75575">
        <ele>171.73</ele>
        <time>2012-09-06T09:15:09Z</time>
      </trkpt>
      <trkpt lat="45.97155" lon="4.75603">
        <ele>170.77</ele>
        <time>2012-09-06T09:15:21Z</time>
      </trkpt>
      <trkpt lat="45.97202" lon="4.75625">
        <ele>171.25</ele>
        <time>2012-09-06T09:15:34Z</time>
      </trkpt>
      <trkpt lat="45.97243" lon="4.75639">
        <ele>170.77</ele>
        <time>2012-09-06T09:15:48Z</time>
      </trkpt>
      <trkpt lat="45.97244" lon="4.75639">
        <ele>171.25</ele>
        <time>2012-09-06T09:15:49Z</time>
      </trkpt>
      <trkpt lat="45.97252" lon="4.7564">
        <ele>170.77</ele>
        <time>2012-09-06T09:15:53Z</time>
      </trkpt>
      <trkpt lat="45.97285" lon="4.75649">
        <ele>170.77</ele>
        <time>2012-09-06T09:16:03Z</time>
      </trkpt>
      <trkpt lat="45.9735" lon="4.75657">
        <ele>171.25</ele>
        <time>2012-09-06T09:16:18Z</time>
      </trkpt>
      <trkpt lat="45.97403" lon="4.75656">
        <ele>171.73</ele>
        <time>2012-09-06T09:16:32Z</time>
      </trkpt>
      <trkpt lat="45.97445" lon="4.75648">
        <ele>171.73</ele>
        <time>2012-09-06T09:16:46Z</time>
      </trkpt>
      <trkpt lat="45.97479" lon="4.75643">
        <ele>171.25</ele>
        <time>2012-09-06T09:16:59Z</time>
      </trkpt>
      <trkpt lat="45.97515" lon="4.75637">
        <ele>171.25</ele>
        <time>2012-09-06T09:17:09Z</time>
      </trkpt>
      <trkpt lat="45.97524" lon="4.75635">
        <ele>171.25</ele>
        <time>2012-09-06T09:17:11Z</time>
      </trkpt>
      <trkpt lat="45.97538" lon="4.75629">
        <ele>170.77</ele>
        <time>2012-09-06T09:17:14Z</time>
      </trkpt>
      <trkpt lat="45.97543" lon="4.75628">
        <ele>170.77</ele>
        <time>2012-09-06T09:17:15Z</time>
      </trkpt>
      <trkpt lat="45.97597" lon="4.75616">
        <ele>171.25</ele>
        <time>2012-09-06T09:17:28Z</time>
      </trkpt>
      <trkpt lat="45.97636" lon="4.75609">
        <ele>172.21</ele>
        <time>2012-09-06T09:17:40Z</time>
      </trkpt>
      <trkpt lat="45.97673" lon="4.75592">
        <ele>172.21</ele>
        <time>2012-09-06T09:17:53Z</time>
      </trkpt>
      <trkpt lat="45.97721" lon="4.7557">
        <ele>172.21</ele>
        <time>2012-09-06T09:18:08Z</time>
      </trkpt>
      <trkpt lat="45.97771" lon="4.75542">
        <ele>172.69</ele>
        <time>2012-09-06T09:18:23Z</time>
      </trkpt>
      <trkpt lat="45.97811" lon="4.75517">
        <ele>172.69</ele>
        <time>2012-09-06T09:18:36Z</time>
      </trkpt>
      <trkpt lat="45.97859" lon="4.75488">
        <ele>172.69</ele>
        <time>2012-09-06T09:18:51Z</time>
      </trkpt>
      <trkpt lat="45.97909" lon="4.75457">
        <ele>173.17</ele>
        <time>2012-09-06T09:19:06Z</time>
      </trkpt>
      <trkpt lat="45.97924" lon="4.75448">
        <ele>173.17</ele>
        <time>2012-09-06T09:19:10Z</time>
      </trkpt>
      <trkpt lat="45.9797" lon="4.75421">
        <ele>173.17</ele>
        <time>2012-09-06T09:19:23Z</time>
      </trkpt>
      <trkpt lat="45.98023" lon="4.7539">
        <ele>173.17</ele>
        <time>2012-09-06T09:19:38Z</time>
      </trkpt>
      <trkpt lat="45.98068" lon="4.75365">
        <ele>173.17</ele>
        <time>2012-09-06T09:19:52Z</time>
      </trkpt>
      <trkpt lat="45.9811" lon="4.75342">
        <ele>173.66</ele>
        <time>2012-09-06T09:20:05Z</time>
      </trkpt>
      <trkpt lat="45.98136" lon="4.75333">
        <ele>173.66</ele>
        <time>2012-09-06T09:20:15Z</time>
      </trkpt>
      <trkpt lat="45.98142" lon="4.75336">
        <ele>174.14</ele>
        <time>2012-09-06T09:20:18Z</time>
      </trkpt>
      <trkpt lat="45.98144" lon="4.75336">
        <ele>174.14</ele>
        <time>2012-09-06T09:20:19Z</time>
      </trkpt>
      <trkpt lat="45.98146" lon="4.75334">
        <ele>174.14</ele>
        <time>2012-09-06T09:20:20Z</time>
      </trkpt>
      <trkpt lat="45.98148" lon="4.75333">
        <ele>174.14</ele>
        <time>2012-09-06T09:20:21Z</time>
      </trkpt>
      <trkpt lat="45.98151" lon="4.75331">
        <ele>174.14</ele>
        <time>2012-09-06T09:20:22Z</time>
      </trkpt>
      <trkpt lat="45.98197" lon="4.7531">
        <ele>174.62</ele>
        <time>2012-09-06T09:20:38Z</time>
      </trkpt>
      <trkpt lat="45.98233" lon="4.75317">
        <ele>175.1</ele>
        <time>2012-09-06T09:20:51Z</time>
      </trkpt>
      <trkpt lat="45.9824" lon="4.75321">
        <ele>175.1</ele>
        <time>2012-09-06T09:20:54Z</time>
      </trkpt>
      <trkpt lat="45.98241" lon="4.75323">
        <ele>175.1</ele>
        <time>2012-09-06T09:20:55Z</time>
      </trkpt>
      <trkpt lat="45.98244" lon="4.75325">
        <ele>176.54</ele>
        <time>2012-09-06T09:20:56Z</time>
      </trkpt>
      <trkpt lat="45.98247" lon="4.75326">
        <ele>175.58</ele>
        <time>2012-09-06T09:20:57Z</time>
      </trkpt>
      <trkpt lat="45.9825" lon="4.75327">
        <ele>175.1</ele>
        <time>2012-09-06T09:20:58Z</time>
      </trkpt>
      <trkpt lat="45.98253" lon="4.75328">
        <ele>175.1</ele>
        <time>2012-09-06T09:20:59Z</time>
      </trkpt>
      <trkpt lat="45.9829" lon="4.75327">
        <ele>175.58</ele>
        <time>2012-09-06T09:21:11Z</time>
      </trkpt>
      <trkpt lat="45.9833" lon="4.75316">
        <ele>176.06</ele>
        <time>2012-09-06T09:21:24Z</time>
      </trkpt>
      <trkpt lat="45.98381" lon="4.75302">
        <ele>176.54</ele>
        <time>2012-09-06T09:21:39Z</time>
      </trkpt>
      <trkpt lat="45.98421" lon="4.75297">
        <ele>176.54</ele>
        <time>2012-09-06T09:21:53Z</time>
      </trkpt>
      <trkpt lat="45.98422" lon="4.75296">
        <ele>176.54</ele>
        <time>2012-09-06T09:21:54Z</time>
      </trkpt>
      <trkpt lat="45.98424" lon="4.75297">
        <ele>176.54</ele>
        <time>2012-09-06T09:21:55Z</time>
      </trkpt>
      <trkpt lat="45.98426" lon="4.75299">
        <ele>176.54</ele>
        <time>2012-09-06T09:21:56Z</time>
      </trkpt>
      <trkpt lat="45.98428" lon="4.75299">
        <ele>176.54</ele>
        <time>2012-09-06T09:21:57Z</time>
      </trkpt>
      <trkpt lat="45.9843" lon="4.75299">
        <ele>176.54</ele>
        <time>2012-09-06T09:21:58Z</time>
      </trkpt>
      <trkpt lat="45.98433" lon="4.75299">
        <ele>176.54</ele>
        <time>2012-09-06T09:21:59Z</time>
      </trkpt>
      <trkpt lat="45.98435" lon="4.75298">
        <ele>176.54</ele>
        <time>2012-09-06T09:22:00Z</time>
      </trkpt>
      <trkpt lat="45.98437" lon="4.75297">
        <ele>176.54</ele>
        <time>2012-09-06T09:22:01Z</time>
      </trkpt>
      <trkpt lat="45.98464" lon="4.75301">
        <ele>176.06</ele>
        <time>2012-09-06T09:22:13Z</time>
      </trkpt>
      <trkpt lat="45.98467" lon="4.75302">
        <ele>176.54</ele>
        <time>2012-09-06T09:22:16Z</time>
      </trkpt>
      <trkpt lat="45.98468" lon="4.75303">
        <ele>176.54</ele>
        <time>2012-09-06T09:22:18Z</time>
      </trkpt>
      <trkpt lat="45.9847" lon="4.75303">
        <ele>176.54</ele>
        <time>2012-09-06T09:22:19Z</time>
      </trkpt>
      <trkpt lat="45.98503" lon="4.75307">
        <ele>176.54</ele>
        <time>2012-09-06T09:22:31Z</time>
      </trkpt>
      <trkpt lat="45.98508" lon="4.75307">
        <ele>176.54</ele>
        <time>2012-09-06T09:22:41Z</time>
      </trkpt>
      <trkpt lat="45.9851" lon="4.75306">
        <ele>176.54</ele>
        <time>2012-09-06T09:23:00Z</time>
      </trkpt>
      <trkpt lat="45.98511" lon="4.75307">
        <ele>176.54</ele>
        <time>2012-09-06T09:23:06Z</time>
      </trkpt>
      <trkpt lat="45.98512" lon="4.75309">
        <ele>176.54</ele>
        <time>2012-09-06T09:23:07Z</time>
      </trkpt>
      <trkpt lat="45.98513" lon="4.75311">
        <ele>176.54</ele>
        <time>2012-09-06T09:23:08Z</time>
      </trkpt>
      <trkpt lat="45.98513" lon="4.75314">
        <ele>177.02</ele>
        <time>2012-09-06T09:23:09Z</time>
      </trkpt>
      <trkpt lat="45.98514" lon="4.75317">
        <ele>177.02</ele>
        <time>2012-09-06T09:23:10Z</time>
      </trkpt>
      <trkpt lat="45.98537" lon="4.75342">
        <ele>176.54</ele>
        <time>2012-09-06T09:23:19Z</time>
      </trkpt>
      <trkpt lat="45.9855" lon="4.75406">
        <ele>177.02</ele>
        <time>2012-09-06T09:23:31Z</time>
      </trkpt>
      <trkpt lat="45.98576" lon="4.75435">
        <ele>176.54</ele>
        <time>2012-09-06T09:23:41Z</time>
      </trkpt>
      <trkpt lat="45.98618" lon="4.75426">
        <ele>177.02</ele>
        <time>2012-09-06T09:23:55Z</time>
      </trkpt>
      <trkpt lat="45.9867" lon="4.75413">
        <ele>177.02</ele>
        <time>2012-09-06T09:24:09Z</time>
      </trkpt>
      <trkpt lat="45.98688" lon="4.75408">
        <ele>177.02</ele>
        <time>2012-09-06T09:24:14Z</time>
      </trkpt>
      <trkpt lat="45.9869" lon="4.75405">
        <ele>177.02</ele>
        <time>2012-09-06T09:24:15Z</time>
      </trkpt>
      <trkpt lat="45.98692" lon="4.75403">
        <ele>177.02</ele>
        <time>2012-09-06T09:24:16Z</time>
      </trkpt>
      <trkpt lat="45.98702" lon="4.75364">
        <ele>176.06</ele>
        <time>2012-09-06T09:24:24Z</time>
      </trkpt>
      <trkpt lat="45.98702" lon="4.75358">
        <ele>176.06</ele>
        <time>2012-09-06T09:24:25Z</time>
      </trkpt>
      <trkpt lat="45.98702" lon="4.75352">
        <ele>176.06</ele>
        <time>2012-09-06T09:24:26Z</time>
      </trkpt>
      <trkpt lat="45.98705" lon="4.75287">
        <ele>175.1</ele>
        <time>2012-09-06T09:24:36Z</time>
      </trkpt>
      <trkpt lat="45.98705" lon="4.7528">
        <ele>175.1</ele>
        <time>2012-09-06T09:24:37Z</time>
      </trkpt>
      <trkpt lat="45.98705" lon="4.75274">
        <ele>174.62</ele>
        <time>2012-09-06T09:24:38Z</time>
      </trkpt>
      <trkpt lat="45.98705" lon="4.75268">
        <ele>174.62</ele>
        <time>2012-09-06T09:24:39Z</time>
      </trkpt>
      <trkpt lat="45.98706" lon="4.75262">
        <ele>174.62</ele>
        <time>2012-09-06T09:24:40Z</time>
      </trkpt>
      <trkpt lat="45.98706" lon="4.75255">
        <ele>174.62</ele>
        <time>2012-09-06T09:24:41Z</time>
      </trkpt>
      <trkpt lat="45.98706" lon="4.75249">
        <ele>174.14</ele>
        <time>2012-09-06T09:24:42Z</time>
      </trkpt>
      <trkpt lat="45.98706" lon="4.75242">
        <ele>174.14</ele>
        <time>2012-09-06T09:24:43Z</time>
      </trkpt>
      <trkpt lat="45.98706" lon="4.75235">
        <ele>174.14</ele>
        <time>2012-09-06T09:24:44Z</time>
      </trkpt>
      <trkpt lat="45.98706" lon="4.75228">
        <ele>174.14</ele>
        <time>2012-09-06T09:24:45Z</time>
      </trkpt>
      <trkpt lat="45.98706" lon="4.75224">
        <ele>173.66</ele>
        <time>2012-09-06T09:24:46Z</time>
      </trkpt>
      <trkpt lat="45.98707" lon="4.75219">
        <ele>173.66</ele>
        <time>2012-09-06T09:24:47Z</time>
      </trkpt>
      <trkpt lat="45.98709" lon="4.75216">
        <ele>173.66</ele>
        <time>2012-09-06T09:24:48Z</time>
      </trkpt>
      <trkpt lat="45.98712" lon="4.75214">
        <ele>173.66</ele>
        <time>2012-09-06T09:24:49Z</time>
      </trkpt>
      <trkpt lat="45.98715" lon="4.75213">
        <ele>173.66</ele>
        <time>2012-09-06T09:24:50Z</time>
      </trkpt>
      <trkpt lat="45.9872" lon="4.75213">
        <ele>173.66</ele>
        <time>2012-09-06T09:24:52Z</time>
      </trkpt>
      <trkpt lat="45.98763" lon="4.75212">
        <ele>173.66</ele>
        <time>2012-09-06T09:25:05Z</time>
      </trkpt>
      <trkpt lat="45.98807" lon="4.75208">
        <ele>173.66</ele>
        <time>2012-09-06T09:25:17Z</time>
      </trkpt>
      <trkpt lat="45.98846" lon="4.75212">
        <ele>173.17</ele>
        <time>2012-09-06T09:25:28Z</time>
      </trkpt>
      <trkpt lat="45.98895" lon="4.75205">
        <ele>173.17</ele>
        <time>2012-09-06T09:25:41Z</time>
      </trkpt>
      <trkpt lat="45.98949" lon="4.75193">
        <ele>173.17</ele>
        <time>2012-09-06T09:25:54Z</time>
      </trkpt>
      <trkpt lat="45.99023" lon="4.7519">
        <ele>173.66</ele>
        <time>2012-09-06T09:26:12Z</time>
      </trkpt>
      <trkpt lat="45.99072" lon="4.75193">
        <ele>173.66</ele>
        <time>2012-09-06T09:26:24Z</time>
      </trkpt>
      <trkpt lat="45.99121" lon="4.75192">
        <ele>173.17</ele>
        <time>2012-09-06T09:26:36Z</time>
      </trkpt>
      <trkpt lat="45.99171" lon="4.75196">
        <ele>173.17</ele>
        <time>2012-09-06T09:26:47Z</time>
      </trkpt>
      <trkpt lat="45.99181" lon="4.75199">
        <ele>172.69</ele>
        <time>2012-09-06T09:26:50Z</time>
      </trkpt>
      <trkpt lat="45.99237" lon="4.75212">
        <ele>172.69</ele>
        <time>2012-09-06T09:27:03Z</time>
      </trkpt>
      <trkpt lat="45.99266" lon="4.75215">
        <ele>172.69</ele>
        <time>2012-09-06T09:27:10Z</time>
      </trkpt>
      <trkpt lat="45.99312" lon="4.75217">
        <ele>172.69</ele>
        <time>2012-09-06T09:27:21Z</time>
      </trkpt>
      <trkpt lat="45.99349" lon="4.75225">
        <ele>173.66</ele>
        <time>2012-09-06T09:27:33Z</time>
      </trkpt>
      <trkpt lat="45.99382" lon="4.75223">
        <ele>173.66</ele>
        <time>2012-09-06T09:27:45Z</time>
      </trkpt>
      <trkpt lat="45.99384" lon="4.75223">
        <ele>173.66</ele>
        <time>2012-09-06T09:27:46Z</time>
      </trkpt>
      <trkpt lat="45.99405" lon="4.75221">
        <ele>173.66</ele>
        <time>2012-09-06T09:27:55Z</time>
      </trkpt>
      <trkpt lat="45.99435" lon="4.75213">
        <ele>173.17</ele>
        <time>2012-09-06T09:28:07Z</time>
      </trkpt>
      <trkpt lat="45.99471" lon="4.75211">
        <ele>173.66</ele>
        <time>2012-09-06T09:28:18Z</time>
      </trkpt>
      <trkpt lat="45.99504" lon="4.75199">
        <ele>173.66</ele>
        <time>2012-09-06T09:28:29Z</time>
      </trkpt>
      <trkpt lat="45.99557" lon="4.75181">
        <ele>174.14</ele>
        <time>2012-09-06T09:28:41Z</time>
      </trkpt>
      <trkpt lat="45.99587" lon="4.75142">
        <ele>173.66</ele>
        <time>2012-09-06T09:28:53Z</time>
      </trkpt>
      <trkpt lat="45.99617" lon="4.75141">
        <ele>173.66</ele>
        <time>2012-09-06T09:29:01Z</time>
      </trkpt>
      <trkpt lat="45.99621" lon="4.75143">
        <ele>173.66</ele>
        <time>2012-09-06T09:29:02Z</time>
      </trkpt>
      <trkpt lat="45.99625" lon="4.75147">
        <ele>173.66</ele>
        <time>2012-09-06T09:29:03Z</time>
      </trkpt>
      <trkpt lat="45.99652" lon="4.75161">
        <ele>174.62</ele>
        <time>2012-09-06T09:29:12Z</time>
      </trkpt>
      <trkpt lat="45.99669" lon="4.7516">
        <ele>174.14</ele>
        <time>2012-09-06T09:29:16Z</time>
      </trkpt>
      <trkpt lat="45.99673" lon="4.75158">
        <ele>174.14</ele>
        <time>2012-09-06T09:29:17Z</time>
      </trkpt>
      <trkpt lat="45.99708" lon="4.75149">
        <ele>174.14</ele>
        <time>2012-09-06T09:29:27Z</time>
      </trkpt>
      <trkpt lat="45.99764" lon="4.75132">
        <ele>174.14</ele>
        <time>2012-09-06T09:29:40Z</time>
      </trkpt>
      <trkpt lat="45.99805" lon="4.75123">
        <ele>174.14</ele>
        <time>2012-09-06T09:29:50Z</time>
      </trkpt>
      <trkpt lat="45.99827" lon="4.75115">
        <ele>174.14</ele>
        <time>2012-09-06T09:29:55Z</time>
      </trkpt>
      <trkpt lat="45.99859" lon="4.75109">
        <ele>174.14</ele>
        <time>2012-09-06T09:30:03Z</time>
      </trkpt>
      <trkpt lat="45.99858" lon="4.75108">
        <ele>174.14</ele>
        <time>2012-09-06T09:30:06Z</time>
      </trkpt>
      <trkpt lat="45.99857" lon="4.75109">
        <ele>174.14</ele>
        <time>2012-09-06T09:30:07Z</time>
      </trkpt>
      <trkpt lat="45.99855" lon="4.7511">
        <ele>174.14</ele>
        <time>2012-09-06T09:30:08Z</time>
      </trkpt>
      <trkpt lat="45.99852" lon="4.75111">
        <ele>174.14</ele>
        <time>2012-09-06T09:30:09Z</time>
      </trkpt>
      <trkpt lat="45.99849" lon="4.75111">
        <ele>174.14</ele>
        <time>2012-09-06T09:30:10Z</time>
      </trkpt>
      <trkpt lat="45.99846" lon="4.75112">
        <ele>174.14</ele>
        <time>2012-09-06T09:30:11Z</time>
      </trkpt>
      <trkpt lat="45.99843" lon="4.75113">
        <ele>174.14</ele>
        <time>2012-09-06T09:30:12Z</time>
      </trkpt>
      <trkpt lat="45.99841" lon="4.75114">
        <ele>174.14</ele>
        <time>2012-09-06T09:30:13Z</time>
      </trkpt>
      <trkpt lat="45.99836" lon="4.75111">
        <ele>174.14</ele>
        <time>2012-09-06T09:30:15Z</time>
      </trkpt>
      <trkpt lat="45.99835" lon="4.75108">
        <ele>174.14</ele>
        <time>2012-09-06T09:30:16Z</time>
      </trkpt>
      <trkpt lat="45.99836" lon="4.75104">
        <ele>174.14</ele>
        <time>2012-09-06T09:30:17Z</time>
      </trkpt>
      <trkpt lat="45.99837" lon="4.751">
        <ele>173.66</ele>
        <time>2012-09-06T09:30:18Z</time>
      </trkpt>
      <trkpt lat="45.99839" lon="4.75097">
        <ele>173.66</ele>
        <time>2012-09-06T09:30:19Z</time>
      </trkpt>
      <trkpt lat="45.99841" lon="4.75095">
        <ele>173.66</ele>
        <time>2012-09-06T09:30:20Z</time>
      </trkpt>
      <trkpt lat="45.99843" lon="4.75093">
        <ele>173.66</ele>
        <time>2012-09-06T09:30:21Z</time>
      </trkpt>
      <trkpt lat="45.9986" lon="4.75085">
        <ele>173.66</ele>
        <time>2012-09-06T09:30:28Z</time>
      </trkpt>
      <trkpt lat="45.99863" lon="4.75084">
        <ele>173.66</ele>
        <time>2012-09-06T09:30:29Z</time>
      </trkpt>
      <trkpt lat="45.99867" lon="4.75084">
        <ele>173.66</ele>
        <time>2012-09-06T09:30:30Z</time>
      </trkpt>
      <trkpt lat="45.9987" lon="4.75084">
        <ele>173.66</ele>
        <time>2012-09-06T09:30:31Z</time>
      </trkpt>
      <trkpt lat="45.99873" lon="4.75083">
        <ele>173.66</ele>
        <time>2012-09-06T09:30:32Z</time>
      </trkpt>
      <trkpt lat="45.99915" lon="4.75066">
        <ele>173.66</ele>
        <time>2012-09-06T09:30:45Z</time>
      </trkpt>
      <trkpt lat="45.99963" lon="4.75044">
        <ele>174.14</ele>
        <time>2012-09-06T09:30:58Z</time>
      </trkpt>
      <trkpt lat="46.00003" lon="4.75031">
        <ele>174.14</ele>
        <time>2012-09-06T09:31:08Z</time>
      </trkpt>
      <trkpt lat="46.00039" lon="4.75017">
        <ele>173.66</ele>
        <time>2012-09-06T09:31:18Z</time>
      </trkpt>
      <trkpt lat="46.00068" lon="4.75018">
        <ele>174.14</ele>
        <time>2012-09-06T09:31:28Z</time>
      </trkpt>
      <trkpt lat="46.00077" lon="4.75017">
        <ele>174.62</ele>
        <time>2012-09-06T09:31:38Z</time>
      </trkpt>
      <trkpt lat="46.00077" lon="4.75017">
        <ele>174.62</ele>
        <time>2012-09-06T09:32:08Z</time>
      </trkpt>
      <trkpt lat="46.00077" lon="4.75017">
        <ele>174.62</ele>
        <time>2012-09-06T09:32:10Z</time>
      </trkpt>
      <trkpt lat="46.00086" lon="4.75016">
        <ele>175.1</ele>
        <time>2012-09-06T09:32:15Z</time>
      </trkpt>
      <trkpt lat="46.00126" lon="4.75011">
        <ele>175.1</ele>
        <time>2012-09-06T09:32:27Z</time>
      </trkpt>
      <trkpt lat="46.00174" lon="4.74999">
        <ele>174.62</ele>
        <time>2012-09-06T09:32:39Z</time>
      </trkpt>
      <trkpt lat="46.00205" lon="4.74976">
        <ele>174.62</ele>
        <time>2012-09-06T09:32:49Z</time>
      </trkpt>
      <trkpt lat="46.00207" lon="4.74978">
        <ele>174.14</ele>
        <time>2012-09-06T09:32:50Z</time>
      </trkpt>
      <trkpt lat="46.0021" lon="4.74981">
        <ele>174.14</ele>
        <time>2012-09-06T09:32:51Z</time>
      </trkpt>
      <trkpt lat="46.00239" lon="4.74996">
        <ele>174.62</ele>
        <time>2012-09-06T09:32:59Z</time>
      </trkpt>
      <trkpt lat="46.00243" lon="4.74997">
        <ele>174.62</ele>
        <time>2012-09-06T09:33:00Z</time>
      </trkpt>
      <trkpt lat="46.00275" lon="4.75016">
        <ele>174.62</ele>
        <time>2012-09-06T09:33:08Z</time>
      </trkpt>
      <trkpt lat="46.00308" lon="4.75046">
        <ele>175.1</ele>
        <time>2012-09-06T09:33:19Z</time>
      </trkpt>
      <trkpt lat="46.00318" lon="4.75044">
        <ele>175.1</ele>
        <time>2012-09-06T09:33:22Z</time>
      </trkpt>
      <trkpt lat="46.00323" lon="4.75043">
        <ele>175.1</ele>
        <time>2012-09-06T09:33:23Z</time>
      </trkpt>
      <trkpt lat="46.00328" lon="4.75043">
        <ele>174.62</ele>
        <time>2012-09-06T09:33:24Z</time>
      </trkpt>
      <trkpt lat="46.00332" lon="4.75046">
        <ele>174.62</ele>
        <time>2012-09-06T09:33:25Z</time>
      </trkpt>
      <trkpt lat="46.00337" lon="4.75048">
        <ele>174.14</ele>
        <time>2012-09-06T09:33:26Z</time>
      </trkpt>
      <trkpt lat="46.00365" lon="4.75066">
        <ele>174.14</ele>
        <time>2012-09-06T09:33:35Z</time>
      </trkpt>
      <trkpt lat="46.00367" lon="4.75066">
        <ele>174.14</ele>
        <time>2012-09-06T09:33:36Z</time>
      </trkpt>
      <trkpt lat="46.00369" lon="4.75065">
        <ele>174.14</ele>
        <time>2012-09-06T09:33:47Z</time>
      </trkpt>
      <trkpt lat="46.00369" lon="4.75064">
        <ele>174.14</ele>
        <time>2012-09-06T09:34:18Z</time>
      </trkpt>
      <trkpt lat="46.00369" lon="4.75064">
        <ele>174.14</ele>
        <time>2012-09-06T09:34:43Z</time>
      </trkpt>
      <trkpt lat="46.0037" lon="4.75065">
        <ele>174.14</ele>
        <time>2012-09-06T09:34:48Z</time>
      </trkpt>
      <trkpt lat="46.00371" lon="4.75065">
        <ele>174.14</ele>
        <time>2012-09-06T09:34:49Z</time>
      </trkpt>
      <trkpt lat="46.00372" lon="4.75064">
        <ele>174.14</ele>
        <time>2012-09-06T09:34:50Z</time>
      </trkpt>
      <trkpt lat="46.00405" lon="4.75067">
        <ele>173.66</ele>
        <time>2012-09-06T09:35:01Z</time>
      </trkpt>
      <trkpt lat="46.00445" lon="4.75074">
        <ele>173.17</ele>
        <time>2012-09-06T09:35:12Z</time>
      </trkpt>
      <trkpt lat="46.00466" lon="4.75074">
        <ele>173.17</ele>
        <time>2012-09-06T09:35:17Z</time>
      </trkpt>
      <trkpt lat="46.00484" lon="4.7507">
        <ele>172.69</ele>
        <time>2012-09-06T09:35:21Z</time>
      </trkpt>
      <trkpt lat="46.00488" lon="4.7507">
        <ele>172.69</ele>
        <time>2012-09-06T09:35:22Z</time>
      </trkpt>
      <trkpt lat="46.00491" lon="4.7507">
        <ele>172.21</ele>
        <time>2012-09-06T09:35:23Z</time>
      </trkpt>
      <trkpt lat="46.00495" lon="4.75069">
        <ele>172.21</ele>
        <time>2012-09-06T09:35:24Z</time>
      </trkpt>
      <trkpt lat="46.00498" lon="4.75068">
        <ele>172.21</ele>
        <time>2012-09-06T09:35:25Z</time>
      </trkpt>
      <trkpt lat="46.00502" lon="4.75067">
        <ele>172.21</ele>
        <time>2012-09-06T09:35:26Z</time>
      </trkpt>
      <trkpt lat="46.00505" lon="4.75067">
        <ele>171.73</ele>
        <time>2012-09-06T09:35:27Z</time>
      </trkpt>
      <trkpt lat="46.00509" lon="4.75067">
        <ele>171.73</ele>
        <time>2012-09-06T09:35:28Z</time>
      </trkpt>
      <trkpt lat="46.00512" lon="4.75067">
        <ele>171.73</ele>
        <time>2012-09-06T09:35:29Z</time>
      </trkpt>
      <trkpt lat="46.00552" lon="4.7507">
        <ele>172.69</ele>
        <time>2012-09-06T09:35:41Z</time>
      </trkpt>
      <trkpt lat="46.00579" lon="4.75071">
        <ele>172.69</ele>
        <time>2012-09-06T09:35:52Z</time>
      </trkpt>
      <trkpt lat="46.00605" lon="4.7507">
        <ele>172.69</ele>
        <time>2012-09-06T09:36:03Z</time>
      </trkpt>
      <trkpt lat="46.00639" lon="4.75067">
        <ele>173.17</ele>
        <time>2012-09-06T09:36:13Z</time>
      </trkpt>
      <trkpt lat="46.00663" lon="4.75066">
        <ele>173.17</ele>
        <time>2012-09-06T09:36:22Z</time>
      </trkpt>
      <trkpt lat="46.00699" lon="4.75065">
        <ele>173.17</ele>
        <time>2012-09-06T09:36:32Z</time>
      </trkpt>
      <trkpt lat="46.00714" lon="4.75065">
        <ele>173.17</ele>
        <time>2012-09-06T09:36:41Z</time>
      </trkpt>
      <trkpt lat="46.00726" lon="4.75063">
        <ele>172.69</ele>
        <time>2012-09-06T09:36:53Z</time>
      </trkpt>
      <trkpt lat="46.00746" lon="4.75065">
        <ele>173.66</ele>
        <time>2012-09-06T09:37:01Z</time>
      </trkpt>
      <trkpt lat="46.00782" lon="4.75075">
        <ele>173.17</ele>
        <time>2012-09-06T09:37:13Z</time>
      </trkpt>
      <trkpt lat="46.00826" lon="4.75081">
        <ele>172.69</ele>
        <time>2012-09-06T09:37:26Z</time>
      </trkpt>
      <trkpt lat="46.00872" lon="4.75082">
        <ele>172.69</ele>
        <time>2012-09-06T09:37:40Z</time>
      </trkpt>
      <trkpt lat="46.00914" lon="4.75077">
        <ele>172.69</ele>
        <time>2012-09-06T09:37:53Z</time>
      </trkpt>
      <trkpt lat="46.00944" lon="4.75073">
        <ele>173.17</ele>
        <time>2012-09-06T09:38:03Z</time>
      </trkpt>
      <trkpt lat="46.0098" lon="4.75062">
        <ele>173.17</ele>
        <time>2012-09-06T09:38:16Z</time>
      </trkpt>
      <trkpt lat="46.01015" lon="4.75054">
        <ele>173.17</ele>
        <time>2012-09-06T09:38:29Z</time>
      </trkpt>
      <trkpt lat="46.01064" lon="4.75039">
        <ele>173.17</ele>
        <time>2012-09-06T09:38:44Z</time>
      </trkpt>
      <trkpt lat="46.01099" lon="4.75025">
        <ele>173.17</ele>
        <time>2012-09-06T09:38:55Z</time>
      </trkpt>
      <trkpt lat="46.01141" lon="4.75006">
        <ele>173.66</ele>
        <time>2012-09-06T09:39:07Z</time>
      </trkpt>
      <trkpt lat="46.0116" lon="4.75">
        <ele>173.66</ele>
        <time>2012-09-06T09:39:16Z</time>
      </trkpt>
      <trkpt lat="46.01164" lon="4.75">
        <ele>173.66</ele>
        <time>2012-09-06T09:39:22Z</time>
      </trkpt>
      <trkpt lat="46.01176" lon="4.74992">
        <ele>173.66</ele>
        <time>2012-09-06T09:39:29Z</time>
      </trkpt>
      <trkpt lat="46.01218" lon="4.7497">
        <ele>173.17</ele>
        <time>2012-09-06T09:39:44Z</time>
      </trkpt>
      <trkpt lat="46.01257" lon="4.74945">
        <ele>173.17</ele>
        <time>2012-09-06T09:39:57Z</time>
      </trkpt>
      <trkpt lat="46.01311" lon="4.74909">
        <ele>173.17</ele>
        <time>2012-09-06T09:40:13Z</time>
      </trkpt>
      <trkpt lat="46.0135" lon="4.74886">
        <ele>173.66</ele>
        <time>2012-09-06T09:40:25Z</time>
      </trkpt>
      <trkpt lat="46.01359" lon="4.74875">
        <ele>173.66</ele>
        <time>2012-09-06T09:40:28Z</time>
      </trkpt>
      <trkpt lat="46.01396" lon="4.74828">
        <ele>173.17</ele>
        <time>2012-09-06T09:40:38Z</time>
      </trkpt>
      <trkpt lat="46.01459" lon="4.74769">
        <ele>172.69</ele>
        <time>2012-09-06T09:40:54Z</time>
      </trkpt>
      <trkpt lat="46.01523" lon="4.74722">
        <ele>173.17</ele>
        <time>2012-09-06T09:41:11Z</time>
      </trkpt>
      <trkpt lat="46.01564" lon="4.74694">
        <ele>173.17</ele>
        <time>2012-09-06T09:41:24Z</time>
      </trkpt>
      <trkpt lat="46.01607" lon="4.74669">
        <ele>173.17</ele>
        <time>2012-09-06T09:41:37Z</time>
      </trkpt>
      <trkpt lat="46.01654" lon="4.74644">
        <ele>173.66</ele>
        <time>2012-09-06T09:41:51Z</time>
      </trkpt>
      <trkpt lat="46.01709" lon="4.74615">
        <ele>173.66</ele>
        <time>2012-09-06T09:42:07Z</time>
      </trkpt>
      <trkpt lat="46.01758" lon="4.74601">
        <ele>174.14</ele>
        <time>2012-09-06T09:42:21Z</time>
      </trkpt>
      <trkpt lat="46.01807" lon="4.74584">
        <ele>174.14</ele>
        <time>2012-09-06T09:42:35Z</time>
      </trkpt>
      <trkpt lat="46.01846" lon="4.74576">
        <ele>173.66</ele>
        <time>2012-09-06T09:42:44Z</time>
      </trkpt>
      <trkpt lat="46.01851" lon="4.74576">
        <ele>173.66</ele>
        <time>2012-09-06T09:42:45Z</time>
      </trkpt>
      <trkpt lat="46.01906" lon="4.74573">
        <ele>173.17</ele>
        <time>2012-09-06T09:42:59Z</time>
      </trkpt>
      <trkpt lat="46.01956" lon="4.74571">
        <ele>173.66</ele>
        <time>2012-09-06T09:43:11Z</time>
      </trkpt>
      <trkpt lat="46.0196" lon="4.74571">
        <ele>173.66</ele>
        <time>2012-09-06T09:43:12Z</time>
      </trkpt>
      <trkpt lat="46.02027" lon="4.74579">
        <ele>173.17</ele>
        <time>2012-09-06T09:43:28Z</time>
      </trkpt>
      <trkpt lat="46.0207" lon="4.74592">
        <ele>173.66</ele>
        <time>2012-09-06T09:43:40Z</time>
      </trkpt>
      <trkpt lat="46.02116" lon="4.74608">
        <ele>173.66</ele>
        <time>2012-09-06T09:43:52Z</time>
      </trkpt>
      <trkpt lat="46.02158" lon="4.74625">
        <ele>174.14</ele>
        <time>2012-09-06T09:44:04Z</time>
      </trkpt>
      <trkpt lat="46.02207" lon="4.74646">
        <ele>174.14</ele>
        <time>2012-09-06T09:44:18Z</time>
      </trkpt>
      <trkpt lat="46.02244" lon="4.74664">
        <ele>174.14</ele>
        <time>2012-09-06T09:44:29Z</time>
      </trkpt>
      <trkpt lat="46.02289" lon="4.74689">
        <ele>174.14</ele>
        <time>2012-09-06T09:44:41Z</time>
      </trkpt>
      <trkpt lat="46.02296" lon="4.74691">
        <ele>174.14</ele>
        <time>2012-09-06T09:44:44Z</time>
      </trkpt>
      <trkpt lat="46.02287" lon="4.74684">
        <ele>174.14</ele>
        <time>2012-09-06T09:44:53Z</time>
      </trkpt>
      <trkpt lat="46.02287" lon="4.74684">
        <ele>173.66</ele>
        <time>2012-09-06T09:45:16Z</time>
      </trkpt>
      <trkpt lat="46.02287" lon="4.74684">
        <ele>173.66</ele>
        <time>2012-09-06T09:45:42Z</time>
      </trkpt>
      <trkpt lat="46.02287" lon="4.74685">
        <ele>173.66</ele>
        <time>2012-09-06T09:46:16Z</time>
      </trkpt>
      <trkpt lat="46.02287" lon="4.74684">
        <ele>174.14</ele>
        <time>2012-09-06T09:46:52Z</time>
      </trkpt>
      <trkpt lat="46.02286" lon="4.74686">
        <ele>174.14</ele>
        <time>2012-09-06T09:47:21Z</time>
      </trkpt>
      <trkpt lat="46.02289" lon="4.74686">
        <ele>174.14</ele>
        <time>2012-09-06T09:47:26Z</time>
      </trkpt>
      <trkpt lat="46.0229" lon="4.74691">
        <ele>174.14</ele>
        <time>2012-09-06T09:47:44Z</time>
      </trkpt>
      <trkpt lat="46.0229" lon="4.74692">
        <ele>174.14</ele>
        <time>2012-09-06T09:47:49Z</time>
      </trkpt>
      <trkpt lat="46.02295" lon="4.74692">
        <ele>174.14</ele>
        <time>2012-09-06T09:47:53Z</time>
      </trkpt>
      <trkpt lat="46.02322" lon="4.74703">
        <ele>174.14</ele>
        <time>2012-09-06T09:48:06Z</time>
      </trkpt>
      <trkpt lat="46.02364" lon="4.74724">
        <ele>174.14</ele>
        <time>2012-09-06T09:48:20Z</time>
      </trkpt>
      <trkpt lat="46.02406" lon="4.74742">
        <ele>174.14</ele>
        <time>2012-09-06T09:48:33Z</time>
      </trkpt>
      <trkpt lat="46.02451" lon="4.74755">
        <ele>173.66</ele>
        <time>2012-09-06T09:48:46Z</time>
      </trkpt>
      <trkpt lat="46.02502" lon="4.74782">
        <ele>173.66</ele>
        <time>2012-09-06T09:49:02Z</time>
      </trkpt>
      <trkpt lat="46.02541" lon="4.74796">
        <ele>174.14</ele>
        <time>2012-09-06T09:49:12Z</time>
      </trkpt>
      <trkpt lat="46.02605" lon="4.74815">
        <ele>174.14</ele>
        <time>2012-09-06T09:49:27Z</time>
      </trkpt>
      <trkpt lat="46.02626" lon="4.74823">
        <ele>173.66</ele>
        <time>2012-09-06T09:49:32Z</time>
      </trkpt>
      <trkpt lat="46.02691" lon="4.74849">
        <ele>173.66</ele>
        <time>2012-09-06T09:49:47Z</time>
      </trkpt>
      <trkpt lat="46.02695" lon="4.74852">
        <ele>173.66</ele>
        <time>2012-09-06T09:49:48Z</time>
      </trkpt>
      <trkpt lat="46.02712" lon="4.74862">
        <ele>173.66</ele>
        <time>2012-09-06T09:49:52Z</time>
      </trkpt>
      <trkpt lat="46.02716" lon="4.74864">
        <ele>173.66</ele>
        <time>2012-09-06T09:49:53Z</time>
      </trkpt>
      <trkpt lat="46.02719" lon="4.74866">
        <ele>173.66</ele>
        <time>2012-09-06T09:49:54Z</time>
      </trkpt>
      <trkpt lat="46.02762" lon="4.74892">
        <ele>173.66</ele>
        <time>2012-09-06T09:50:06Z</time>
      </trkpt>
      <trkpt lat="46.02799" lon="4.74905">
        <ele>174.14</ele>
        <time>2012-09-06T09:50:19Z</time>
      </trkpt>
      <trkpt lat="46.0284" lon="4.7491">
        <ele>173.66</ele>
        <time>2012-09-06T09:50:33Z</time>
      </trkpt>
      <trkpt lat="46.02851" lon="4.74909">
        <ele>173.66</ele>
        <time>2012-09-06T09:50:38Z</time>
      </trkpt>
      <trkpt lat="46.02853" lon="4.74908">
        <ele>173.66</ele>
        <time>2012-09-06T09:50:39Z</time>
      </trkpt>
      <trkpt lat="46.02856" lon="4.74908">
        <ele>173.66</ele>
        <time>2012-09-06T09:50:40Z</time>
      </trkpt>
      <trkpt lat="46.02858" lon="4.74909">
        <ele>173.66</ele>
        <time>2012-09-06T09:50:41Z</time>
      </trkpt>
      <trkpt lat="46.02862" lon="4.74909">
        <ele>173.66</ele>
        <time>2012-09-06T09:50:42Z</time>
      </trkpt>
      <trkpt lat="46.02906" lon="4.7491">
        <ele>173.66</ele>
        <time>2012-09-06T09:50:55Z</time>
      </trkpt>
      <trkpt lat="46.02971" lon="4.74895">
        <ele>174.14</ele>
        <time>2012-09-06T09:51:11Z</time>
      </trkpt>
      <trkpt lat="46.02975" lon="4.74895">
        <ele>173.66</ele>
        <time>2012-09-06T09:51:12Z</time>
      </trkpt>
      <trkpt lat="46.02984" lon="4.74894">
        <ele>173.66</ele>
        <time>2012-09-06T09:51:14Z</time>
      </trkpt>
      <trkpt lat="46.02989" lon="4.74894">
        <ele>173.66</ele>
        <time>2012-09-06T09:51:15Z</time>
      </trkpt>
      <trkpt lat="46.03055" lon="4.74881">
        <ele>174.14</ele>
        <time>2012-09-06T09:51:31Z</time>
      </trkpt>
      <trkpt lat="46.03119" lon="4.74868">
        <ele>174.62</ele>
        <time>2012-09-06T09:51:46Z</time>
      </trkpt>
      <trkpt lat="46.03147" lon="4.74865">
        <ele>174.14</ele>
        <time>2012-09-06T09:51:53Z</time>
      </trkpt>
      <trkpt lat="46.03151" lon="4.74864">
        <ele>174.14</ele>
        <time>2012-09-06T09:51:54Z</time>
      </trkpt>
      <trkpt lat="46.03195" lon="4.74842">
        <ele>174.14</ele>
        <time>2012-09-06T09:52:05Z</time>
      </trkpt>
      <trkpt lat="46.03199" lon="4.7484">
        <ele>174.14</ele>
        <time>2012-09-06T09:52:06Z</time>
      </trkpt>
      <trkpt lat="46.03246" lon="4.74812">
        <ele>175.1</ele>
        <time>2012-09-06T09:52:19Z</time>
      </trkpt>
      <trkpt lat="46.03267" lon="4.74812">
        <ele>174.62</ele>
        <time>2012-09-06T09:52:30Z</time>
      </trkpt>
      <trkpt lat="46.0327" lon="4.74814">
        <ele>175.1</ele>
        <time>2012-09-06T09:53:01Z</time>
      </trkpt>
      <trkpt lat="46.03268" lon="4.74813">
        <ele>174.62</ele>
        <time>2012-09-06T09:53:38Z</time>
      </trkpt>
      <trkpt lat="46.03269" lon="4.74813">
        <ele>174.62</ele>
        <time>2012-09-06T09:53:57Z</time>
      </trkpt>
      <trkpt lat="46.0327" lon="4.74813">
        <ele>174.62</ele>
        <time>2012-09-06T09:53:58Z</time>
      </trkpt>
      <trkpt lat="46.03271" lon="4.74814">
        <ele>174.62</ele>
        <time>2012-09-06T09:53:59Z</time>
      </trkpt>
      <trkpt lat="46.03273" lon="4.74814">
        <ele>174.62</ele>
        <time>2012-09-06T09:54:00Z</time>
      </trkpt>
      <trkpt lat="46.03275" lon="4.74815">
        <ele>174.62</ele>
        <time>2012-09-06T09:54:01Z</time>
      </trkpt>
      <trkpt lat="46.03277" lon="4.74816">
        <ele>174.62</ele>
        <time>2012-09-06T09:54:02Z</time>
      </trkpt>
      <trkpt lat="46.0328" lon="4.74817">
        <ele>174.62</ele>
        <time>2012-09-06T09:54:03Z</time>
      </trkpt>
      <trkpt lat="46.03282" lon="4.74818">
        <ele>174.62</ele>
        <time>2012-09-06T09:54:04Z</time>
      </trkpt>
      <trkpt lat="46.03285" lon="4.74819">
        <ele>174.62</ele>
        <time>2012-09-06T09:54:05Z</time>
      </trkpt>
      <trkpt lat="46.03287" lon="4.7482">
        <ele>174.62</ele>
        <time>2012-09-06T09:54:06Z</time>
      </trkpt>
      <trkpt lat="46.03332" lon="4.74832">
        <ele>174.14</ele>
        <time>2012-09-06T09:54:19Z</time>
      </trkpt>
      <trkpt lat="46.03339" lon="4.74831">
        <ele>174.14</ele>
        <time>2012-09-06T09:54:21Z</time>
      </trkpt>
      <trkpt lat="46.03364" lon="4.74823">
        <ele>174.62</ele>
        <time>2012-09-06T09:54:27Z</time>
      </trkpt>
      <trkpt lat="46.03393" lon="4.74819">
        <ele>174.14</ele>
        <time>2012-09-06T09:54:34Z</time>
      </trkpt>
      <trkpt lat="46.03414" lon="4.74812">
        <ele>174.62</ele>
        <time>2012-09-06T09:54:39Z</time>
      </trkpt>
      <trkpt lat="46.03418" lon="4.7481">
        <ele>174.14</ele>
        <time>2012-09-06T09:54:40Z</time>
      </trkpt>
      <trkpt lat="46.03461" lon="4.74792">
        <ele>174.62</ele>
        <time>2012-09-06T09:54:51Z</time>
      </trkpt>
      <trkpt lat="46.03469" lon="4.74789">
        <ele>174.62</ele>
        <time>2012-09-06T09:54:53Z</time>
      </trkpt>
      <trkpt lat="46.03473" lon="4.74787">
        <ele>174.62</ele>
        <time>2012-09-06T09:54:54Z</time>
      </trkpt>
      <trkpt lat="46.03477" lon="4.74785">
        <ele>174.62</ele>
        <time>2012-09-06T09:54:55Z</time>
      </trkpt>
      <trkpt lat="46.03548" lon="4.74751">
        <ele>174.62</ele>
        <time>2012-09-06T09:55:12Z</time>
      </trkpt>
      <trkpt lat="46.03591" lon="4.74729">
        <ele>174.62</ele>
        <time>2012-09-06T09:55:25Z</time>
      </trkpt>
      <trkpt lat="46.03608" lon="4.74716">
        <ele>174.62</ele>
        <time>2012-09-06T09:55:37Z</time>
      </trkpt>
      <trkpt lat="46.03611" lon="4.74713">
        <ele>174.14</ele>
        <time>2012-09-06T09:55:40Z</time>
      </trkpt>
      <trkpt lat="46.03615" lon="4.74708">
        <ele>174.14</ele>
        <time>2012-09-06T09:55:52Z</time>
      </trkpt>
      <trkpt lat="46.03615" lon="4.74707">
        <ele>174.62</ele>
        <time>2012-09-06T09:56:22Z</time>
      </trkpt>
      <trkpt lat="46.03629" lon="4.74702">
        <ele>174.14</ele>
        <time>2012-09-06T09:56:35Z</time>
      </trkpt>
      <trkpt lat="46.03657" lon="4.74694">
        <ele>175.1</ele>
        <time>2012-09-06T09:56:46Z</time>
      </trkpt>
      <trkpt lat="46.03695" lon="4.74677">
        <ele>175.1</ele>
        <time>2012-09-06T09:56:58Z</time>
      </trkpt>
      <trkpt lat="46.03741" lon="4.74642">
        <ele>175.1</ele>
        <time>2012-09-06T09:57:10Z</time>
      </trkpt>
      <trkpt lat="46.03782" lon="4.74625">
        <ele>175.1</ele>
        <time>2012-09-06T09:57:21Z</time>
      </trkpt>
      <trkpt lat="46.03794" lon="4.7462">
        <ele>174.62</ele>
        <time>2012-09-06T09:57:24Z</time>
      </trkpt>
      <trkpt lat="46.03799" lon="4.74618">
        <ele>174.62</ele>
        <time>2012-09-06T09:57:25Z</time>
      </trkpt>
      <trkpt lat="46.03803" lon="4.74616">
        <ele>174.62</ele>
        <time>2012-09-06T09:57:26Z</time>
      </trkpt>
      <trkpt lat="46.03849" lon="4.74592">
        <ele>175.1</ele>
        <time>2012-09-06T09:57:37Z</time>
      </trkpt>
      <trkpt lat="46.03902" lon="4.74571">
        <ele>175.1</ele>
        <time>2012-09-06T09:57:50Z</time>
      </trkpt>
      <trkpt lat="46.03957" lon="4.7454">
        <ele>175.1</ele>
        <time>2012-09-06T09:58:05Z</time>
      </trkpt>
      <trkpt lat="46.03971" lon="4.74533">
        <ele>175.1</ele>
        <time>2012-09-06T09:58:09Z</time>
      </trkpt>
      <trkpt lat="46.03975" lon="4.74531">
        <ele>175.1</ele>
        <time>2012-09-06T09:58:10Z</time>
      </trkpt>
      <trkpt lat="46.03978" lon="4.74529">
        <ele>175.1</ele>
        <time>2012-09-06T09:58:11Z</time>
      </trkpt>
      <trkpt lat="46.04007" lon="4.74513">
        <ele>175.1</ele>
        <time>2012-09-06T09:58:19Z</time>
      </trkpt>
      <trkpt lat="46.0402" lon="4.74504">
        <ele>175.1</ele>
        <time>2012-09-06T09:58:22Z</time>
      </trkpt>
      <trkpt lat="46.04068" lon="4.74471">
        <ele>175.1</ele>
        <time>2012-09-06T09:58:33Z</time>
      </trkpt>
      <trkpt lat="46.04139" lon="4.74413">
        <ele>174.62</ele>
        <time>2012-09-06T09:58:51Z</time>
      </trkpt>
      <trkpt lat="46.04147" lon="4.74407">
        <ele>174.62</ele>
        <time>2012-09-06T09:58:53Z</time>
      </trkpt>
      <trkpt lat="46.04182" lon="4.74376">
        <ele>174.14</ele>
        <time>2012-09-06T09:59:04Z</time>
      </trkpt>
      <trkpt lat="46.04184" lon="4.74371">
        <ele>174.14</ele>
        <time>2012-09-06T09:59:05Z</time>
      </trkpt>
      <trkpt lat="46.04186" lon="4.74365">
        <ele>174.14</ele>
        <time>2012-09-06T09:59:06Z</time>
      </trkpt>
      <trkpt lat="46.04189" lon="4.74361">
        <ele>175.1</ele>
        <time>2012-09-06T09:59:07Z</time>
      </trkpt>
      <trkpt lat="46.04192" lon="4.74356">
        <ele>174.14</ele>
        <time>2012-09-06T09:59:08Z</time>
      </trkpt>
      <trkpt lat="46.04196" lon="4.74352">
        <ele>174.14</ele>
        <time>2012-09-06T09:59:09Z</time>
      </trkpt>
      <trkpt lat="46.04255" lon="4.74292">
        <ele>174.62</ele>
        <time>2012-09-06T09:59:26Z</time>
      </trkpt>
      <trkpt lat="46.04306" lon="4.74249">
        <ele>174.62</ele>
        <time>2012-09-06T09:59:40Z</time>
      </trkpt>
      <trkpt lat="46.04331" lon="4.74228">
        <ele>174.62</ele>
        <time>2012-09-06T09:59:47Z</time>
      </trkpt>
      <trkpt lat="46.04335" lon="4.74225">
        <ele>174.62</ele>
        <time>2012-09-06T09:59:48Z</time>
      </trkpt>
      <trkpt lat="46.04339" lon="4.74222">
        <ele>174.62</ele>
        <time>2012-09-06T09:59:49Z</time>
      </trkpt>
      <trkpt lat="46.04407" lon="4.74178">
        <ele>175.1</ele>
        <time>2012-09-06T10:00:07Z</time>
      </trkpt>
      <trkpt lat="46.04447" lon="4.74152">
        <ele>175.1</ele>
        <time>2012-09-06T10:00:17Z</time>
      </trkpt>
      <trkpt lat="46.04451" lon="4.7415">
        <ele>175.1</ele>
        <time>2012-09-06T10:00:18Z</time>
      </trkpt>
      <trkpt lat="46.04454" lon="4.74148">
        <ele>175.1</ele>
        <time>2012-09-06T10:00:19Z</time>
      </trkpt>
      <trkpt lat="46.04462" lon="4.74142">
        <ele>175.1</ele>
        <time>2012-09-06T10:00:21Z</time>
      </trkpt>
      <trkpt lat="46.04523" lon="4.74111">
        <ele>175.1</ele>
        <time>2012-09-06T10:00:36Z</time>
      </trkpt>
      <trkpt lat="46.04588" lon="4.7409">
        <ele>174.62</ele>
        <time>2012-09-06T10:00:52Z</time>
      </trkpt>
      <trkpt lat="46.04661" lon="4.74081">
        <ele>175.1</ele>
        <time>2012-09-06T10:01:10Z</time>
      </trkpt>
      <trkpt lat="46.04706" lon="4.74087">
        <ele>174.62</ele>
        <time>2012-09-06T10:01:22Z</time>
      </trkpt>
      <trkpt lat="46.0471" lon="4.74087">
        <ele>174.62</ele>
        <time>2012-09-06T10:01:23Z</time>
      </trkpt>
      <trkpt lat="46.04714" lon="4.74087">
        <ele>174.62</ele>
        <time>2012-09-06T10:01:24Z</time>
      </trkpt>
      <trkpt lat="46.04735" lon="4.74089">
        <ele>174.14</ele>
        <time>2012-09-06T10:01:29Z</time>
      </trkpt>
      <trkpt lat="46.04792" lon="4.74119">
        <ele>174.62</ele>
        <time>2012-09-06T10:01:44Z</time>
      </trkpt>
      <trkpt lat="46.04844" lon="4.74151">
        <ele>174.62</ele>
        <time>2012-09-06T10:01:58Z</time>
      </trkpt>
      <trkpt lat="46.04899" lon="4.742">
        <ele>174.62</ele>
        <time>2012-09-06T10:02:14Z</time>
      </trkpt>
      <trkpt lat="46.04948" lon="4.74244">
        <ele>174.62</ele>
        <time>2012-09-06T10:02:29Z</time>
      </trkpt>
      <trkpt lat="46.04983" lon="4.74276">
        <ele>174.14</ele>
        <time>2012-09-06T10:02:40Z</time>
      </trkpt>
      <trkpt lat="46.04986" lon="4.74279">
        <ele>174.62</ele>
        <time>2012-09-06T10:02:41Z</time>
      </trkpt>
      <trkpt lat="46.05033" lon="4.74335">
        <ele>174.62</ele>
        <time>2012-09-06T10:02:57Z</time>
      </trkpt>
      <trkpt lat="46.05036" lon="4.7434">
        <ele>174.14</ele>
        <time>2012-09-06T10:02:59Z</time>
      </trkpt>
      <trkpt lat="46.05037" lon="4.74344">
        <ele>175.58</ele>
        <time>2012-09-06T10:03:09Z</time>
      </trkpt>
      <trkpt lat="46.05037" lon="4.74345">
        <ele>174.14</ele>
        <time>2012-09-06T10:03:35Z</time>
      </trkpt>
      <trkpt lat="46.05037" lon="4.74345">
        <ele>174.14</ele>
        <time>2012-09-06T10:04:05Z</time>
      </trkpt>
      <trkpt lat="46.05036" lon="4.74344">
        <ele>174.14</ele>
        <time>2012-09-06T10:04:35Z</time>
      </trkpt>
      <trkpt lat="46.05038" lon="4.74346">
        <ele>174.62</ele>
        <time>2012-09-06T10:04:52Z</time>
      </trkpt>
      <trkpt lat="46.05038" lon="4.74346">
        <ele>174.14</ele>
        <time>2012-09-06T10:05:21Z</time>
      </trkpt>
      <trkpt lat="46.05038" lon="4.74347">
        <ele>174.62</ele>
        <time>2012-09-06T10:05:47Z</time>
      </trkpt>
      <trkpt lat="46.05038" lon="4.74346">
        <ele>174.14</ele>
        <time>2012-09-06T10:06:15Z</time>
      </trkpt>
      <trkpt lat="46.05039" lon="4.74347">
        <ele>174.14</ele>
        <time>2012-09-06T10:06:49Z</time>
      </trkpt>
      <trkpt lat="46.05039" lon="4.74346">
        <ele>174.14</ele>
        <time>2012-09-06T10:07:15Z</time>
      </trkpt>
      <trkpt lat="46.05042" lon="4.74351">
        <ele>174.14</ele>
        <time>2012-09-06T10:07:20Z</time>
      </trkpt>
      <trkpt lat="46.05043" lon="4.7435">
        <ele>174.14</ele>
        <time>2012-09-06T10:07:21Z</time>
      </trkpt>
      <trkpt lat="46.05043" lon="4.74349">
        <ele>174.14</ele>
        <time>2012-09-06T10:07:22Z</time>
      </trkpt>
      <trkpt lat="46.05041" lon="4.74345">
        <ele>174.62</ele>
        <time>2012-09-06T10:07:32Z</time>
      </trkpt>
      <trkpt lat="46.05041" lon="4.74348">
        <ele>174.62</ele>
        <time>2012-09-06T10:07:49Z</time>
      </trkpt>
      <trkpt lat="46.05042" lon="4.74351">
        <ele>174.62</ele>
        <time>2012-09-06T10:07:51Z</time>
      </trkpt>
      <trkpt lat="46.05058" lon="4.74379">
        <ele>174.62</ele>
        <time>2012-09-06T10:08:06Z</time>
      </trkpt>
      <trkpt lat="46.05087" lon="4.74431">
        <ele>174.62</ele>
        <time>2012-09-06T10:08:22Z</time>
      </trkpt>
      <trkpt lat="46.05115" lon="4.7449">
        <ele>174.62</ele>
        <time>2012-09-06T10:08:37Z</time>
      </trkpt>
      <trkpt lat="46.05152" lon="4.74566">
        <ele>174.62</ele>
        <time>2012-09-06T10:08:54Z</time>
      </trkpt>
      <trkpt lat="46.05175" lon="4.74621">
        <ele>174.62</ele>
        <time>2012-09-06T10:09:06Z</time>
      </trkpt>
      <trkpt lat="46.05224" lon="4.74738">
        <ele>174.62</ele>
        <time>2012-09-06T10:09:28Z</time>
      </trkpt>
      <trkpt lat="46.05263" lon="4.74829">
        <ele>174.62</ele>
        <time>2012-09-06T10:09:45Z</time>
      </trkpt>
      <trkpt lat="46.05297" lon="4.7491">
        <ele>174.14</ele>
        <time>2012-09-06T10:10:00Z</time>
      </trkpt>
      <trkpt lat="46.05323" lon="4.74993">
        <ele>174.62</ele>
        <time>2012-09-06T10:10:15Z</time>
      </trkpt>
      <trkpt lat="46.05342" lon="4.75056">
        <ele>174.14</ele>
        <time>2012-09-06T10:10:29Z</time>
      </trkpt>
      <trkpt lat="46.05349" lon="4.7507">
        <ele>174.14</ele>
        <time>2012-09-06T10:10:38Z</time>
      </trkpt>
      <trkpt lat="46.05348" lon="4.75071">
        <ele>174.14</ele>
        <time>2012-09-06T10:11:03Z</time>
      </trkpt>
      <trkpt lat="46.05349" lon="4.75074">
        <ele>174.14</ele>
        <time>2012-09-06T10:11:04Z</time>
      </trkpt>
      <trkpt lat="46.05349" lon="4.75077">
        <ele>174.14</ele>
        <time>2012-09-06T10:11:05Z</time>
      </trkpt>
      <trkpt lat="46.0535" lon="4.7508">
        <ele>174.14</ele>
        <time>2012-09-06T10:11:06Z</time>
      </trkpt>
      <trkpt lat="46.05351" lon="4.75083">
        <ele>174.14</ele>
        <time>2012-09-06T10:11:07Z</time>
      </trkpt>
      <trkpt lat="46.05368" lon="4.75145">
        <ele>174.14</ele>
        <time>2012-09-06T10:11:20Z</time>
      </trkpt>
      <trkpt lat="46.05385" lon="4.75204">
        <ele>174.14</ele>
        <time>2012-09-06T10:11:31Z</time>
      </trkpt>
      <trkpt lat="46.0541" lon="4.75276">
        <ele>174.62</ele>
        <time>2012-09-06T10:11:44Z</time>
      </trkpt>
      <trkpt lat="46.05464" lon="4.75329">
        <ele>174.14</ele>
        <time>2012-09-06T10:11:57Z</time>
      </trkpt>
      <trkpt lat="46.05522" lon="4.75408">
        <ele>174.14</ele>
        <time>2012-09-06T10:12:13Z</time>
      </trkpt>
      <trkpt lat="46.05564" lon="4.75473">
        <ele>174.14</ele>
        <time>2012-09-06T10:12:28Z</time>
      </trkpt>
      <trkpt lat="46.05609" lon="4.75543">
        <ele>174.14</ele>
        <time>2012-09-06T10:12:45Z</time>
      </trkpt>
      <trkpt lat="46.05617" lon="4.75556">
        <ele>173.66</ele>
        <time>2012-09-06T10:12:48Z</time>
      </trkpt>
      <trkpt lat="46.05625" lon="4.75569">
        <ele>174.14</ele>
        <time>2012-09-06T10:12:51Z</time>
      </trkpt>
      <trkpt lat="46.05668" lon="4.75633">
        <ele>173.66</ele>
        <time>2012-09-06T10:13:06Z</time>
      </trkpt>
      <trkpt lat="46.05672" lon="4.75636">
        <ele>173.66</ele>
        <time>2012-09-06T10:13:07Z</time>
      </trkpt>
      <trkpt lat="46.05685" lon="4.75644">
        <ele>173.17</ele>
        <time>2012-09-06T10:13:10Z</time>
      </trkpt>
      <trkpt lat="46.05689" lon="4.75648">
        <ele>173.17</ele>
        <time>2012-09-06T10:13:11Z</time>
      </trkpt>
      <trkpt lat="46.05731" lon="4.757">
        <ele>172.69</ele>
        <time>2012-09-06T10:13:25Z</time>
      </trkpt>
      <trkpt lat="46.05775" lon="4.75751">
        <ele>172.69</ele>
        <time>2012-09-06T10:13:41Z</time>
      </trkpt>
      <trkpt lat="46.05818" lon="4.75817">
        <ele>173.17</ele>
        <time>2012-09-06T10:13:59Z</time>
      </trkpt>
      <trkpt lat="46.05862" lon="4.75874">
        <ele>174.14</ele>
        <time>2012-09-06T10:14:15Z</time>
      </trkpt>
      <trkpt lat="46.05902" lon="4.75925">
        <ele>174.62</ele>
        <time>2012-09-06T10:14:30Z</time>
      </trkpt>
      <trkpt lat="46.05965" lon="4.75994">
        <ele>174.14</ele>
        <time>2012-09-06T10:14:49Z</time>
      </trkpt>
      <trkpt lat="46.06012" lon="4.76037">
        <ele>173.66</ele>
        <time>2012-09-06T10:15:02Z</time>
      </trkpt>
      <trkpt lat="46.06015" lon="4.76041">
        <ele>173.66</ele>
        <time>2012-09-06T10:15:03Z</time>
      </trkpt>
      <trkpt lat="46.06018" lon="4.76044">
        <ele>173.66</ele>
        <time>2012-09-06T10:15:04Z</time>
      </trkpt>
      <trkpt lat="46.06065" lon="4.76088">
        <ele>174.14</ele>
        <time>2012-09-06T10:15:19Z</time>
      </trkpt>
      <trkpt lat="46.0609" lon="4.7611">
        <ele>174.14</ele>
        <time>2012-09-06T10:15:29Z</time>
      </trkpt>
      <trkpt lat="46.06132" lon="4.76148">
        <ele>174.14</ele>
        <time>2012-09-06T10:15:43Z</time>
      </trkpt>
      <trkpt lat="46.06167" lon="4.76181">
        <ele>174.14</ele>
        <time>2012-09-06T10:15:54Z</time>
      </trkpt>
      <trkpt lat="46.06196" lon="4.76203">
        <ele>174.62</ele>
        <time>2012-09-06T10:16:02Z</time>
      </trkpt>
      <trkpt lat="46.06201" lon="4.76206">
        <ele>174.62</ele>
        <time>2012-09-06T10:16:03Z</time>
      </trkpt>
      <trkpt lat="46.06205" lon="4.76208">
        <ele>174.62</ele>
        <time>2012-09-06T10:16:04Z</time>
      </trkpt>
      <trkpt lat="46.0621" lon="4.76211">
        <ele>174.14</ele>
        <time>2012-09-06T10:16:05Z</time>
      </trkpt>
      <trkpt lat="46.06214" lon="4.76214">
        <ele>174.14</ele>
        <time>2012-09-06T10:16:06Z</time>
      </trkpt>
      <trkpt lat="46.0623" lon="4.76225">
        <ele>174.14</ele>
        <time>2012-09-06T10:16:10Z</time>
      </trkpt>
      <trkpt lat="46.06234" lon="4.76227">
        <ele>174.14</ele>
        <time>2012-09-06T10:16:11Z</time>
      </trkpt>
      <trkpt lat="46.06239" lon="4.76229">
        <ele>174.14</ele>
        <time>2012-09-06T10:16:12Z</time>
      </trkpt>
      <trkpt lat="46.06269" lon="4.7625">
        <ele>174.14</ele>
        <time>2012-09-06T10:16:19Z</time>
      </trkpt>
      <trkpt lat="46.06323" lon="4.76282">
        <ele>174.14</ele>
        <time>2012-09-06T10:16:33Z</time>
      </trkpt>
      <trkpt lat="46.06377" lon="4.76311">
        <ele>174.62</ele>
        <time>2012-09-06T10:16:47Z</time>
      </trkpt>
      <trkpt lat="46.06408" lon="4.76322">
        <ele>174.14</ele>
        <time>2012-09-06T10:16:54Z</time>
      </trkpt>
      <trkpt lat="46.06431" lon="4.76327">
        <ele>174.14</ele>
        <time>2012-09-06T10:17:00Z</time>
      </trkpt>
      <trkpt lat="46.06436" lon="4.76328">
        <ele>174.14</ele>
        <time>2012-09-06T10:17:01Z</time>
      </trkpt>
      <trkpt lat="46.06467" lon="4.76336">
        <ele>174.62</ele>
        <time>2012-09-06T10:17:11Z</time>
      </trkpt>
      <trkpt lat="46.06503" lon="4.76357">
        <ele>175.1</ele>
        <time>2012-09-06T10:17:20Z</time>
      </trkpt>
      <trkpt lat="46.06551" lon="4.76369">
        <ele>175.1</ele>
        <time>2012-09-06T10:17:32Z</time>
      </trkpt>
      <trkpt lat="46.06592" lon="4.76373">
        <ele>174.62</ele>
        <time>2012-09-06T10:17:42Z</time>
      </trkpt>
      <trkpt lat="46.0665" lon="4.76376">
        <ele>174.62</ele>
        <time>2012-09-06T10:17:56Z</time>
      </trkpt>
      <trkpt lat="46.06682" lon="4.76378">
        <ele>174.62</ele>
        <time>2012-09-06T10:18:05Z</time>
      </trkpt>
      <trkpt lat="46.06725" lon="4.76382">
        <ele>175.1</ele>
        <time>2012-09-06T10:18:15Z</time>
      </trkpt>
      <trkpt lat="46.0676" lon="4.76381">
        <ele>174.14</ele>
        <time>2012-09-06T10:18:25Z</time>
      </trkpt>
      <trkpt lat="46.0679" lon="4.76365">
        <ele>173.66</ele>
        <time>2012-09-06T10:18:32Z</time>
      </trkpt>
      <trkpt lat="46.06794" lon="4.76362">
        <ele>174.14</ele>
        <time>2012-09-06T10:18:33Z</time>
      </trkpt>
      <trkpt lat="46.06799" lon="4.7636">
        <ele>173.66</ele>
        <time>2012-09-06T10:18:34Z</time>
      </trkpt>
      <trkpt lat="46.06804" lon="4.76358">
        <ele>173.66</ele>
        <time>2012-09-06T10:18:35Z</time>
      </trkpt>
      <trkpt lat="46.06809" lon="4.76358">
        <ele>173.66</ele>
        <time>2012-09-06T10:18:36Z</time>
      </trkpt>
      <trkpt lat="46.06813" lon="4.76357">
        <ele>173.17</ele>
        <time>2012-09-06T10:18:37Z</time>
      </trkpt>
      <trkpt lat="46.06817" lon="4.76356">
        <ele>173.66</ele>
        <time>2012-09-06T10:18:38Z</time>
      </trkpt>
      <trkpt lat="46.06866" lon="4.7634">
        <ele>173.17</ele>
        <time>2012-09-06T10:18:51Z</time>
      </trkpt>
      <trkpt lat="46.06915" lon="4.76326">
        <ele>173.66</ele>
        <time>2012-09-06T10:19:05Z</time>
      </trkpt>
      <trkpt lat="46.06957" lon="4.76311">
        <ele>174.14</ele>
        <time>2012-09-06T10:19:18Z</time>
      </trkpt>
      <trkpt lat="46.07013" lon="4.76284">
        <ele>174.14</ele>
        <time>2012-09-06T10:19:33Z</time>
      </trkpt>
      <trkpt lat="46.07053" lon="4.76265">
        <ele>174.14</ele>
        <time>2012-09-06T10:19:45Z</time>
      </trkpt>
      <trkpt lat="46.07102" lon="4.76241">
        <ele>174.62</ele>
        <time>2012-09-06T10:19:59Z</time>
      </trkpt>
      <trkpt lat="46.07137" lon="4.76221">
        <ele>174.14</ele>
        <time>2012-09-06T10:20:11Z</time>
      </trkpt>
      <trkpt lat="46.07175" lon="4.76202">
        <ele>174.62</ele>
        <time>2012-09-06T10:20:23Z</time>
      </trkpt>
      <trkpt lat="46.0723" lon="4.76177">
        <ele>174.62</ele>
        <time>2012-09-06T10:20:39Z</time>
      </trkpt>
      <trkpt lat="46.07267" lon="4.7616">
        <ele>174.62</ele>
        <time>2012-09-06T10:20:51Z</time>
      </trkpt>
      <trkpt lat="46.07306" lon="4.76143">
        <ele>174.62</ele>
        <time>2012-09-06T10:21:05Z</time>
      </trkpt>
      <trkpt lat="46.07314" lon="4.7614">
        <ele>174.62</ele>
        <time>2012-09-06T10:21:09Z</time>
      </trkpt>
      <trkpt lat="46.07316" lon="4.7614">
        <ele>174.14</ele>
        <time>2012-09-06T10:21:10Z</time>
      </trkpt>
      <trkpt lat="46.07318" lon="4.76139">
        <ele>174.62</ele>
        <time>2012-09-06T10:21:11Z</time>
      </trkpt>
      <trkpt lat="46.07351" lon="4.76126">
        <ele>174.62</ele>
        <time>2012-09-06T10:21:24Z</time>
      </trkpt>
      <trkpt lat="46.07389" lon="4.76111">
        <ele>174.62</ele>
        <time>2012-09-06T10:21:36Z</time>
      </trkpt>
      <trkpt lat="46.07426" lon="4.76098">
        <ele>175.1</ele>
        <time>2012-09-06T10:21:48Z</time>
      </trkpt>
      <trkpt lat="46.07469" lon="4.76082">
        <ele>175.1</ele>
        <time>2012-09-06T10:22:00Z</time>
      </trkpt>
      <trkpt lat="46.0751" lon="4.76066">
        <ele>175.1</ele>
        <time>2012-09-06T10:22:12Z</time>
      </trkpt>
      <trkpt lat="46.07559" lon="4.76043">
        <ele>175.1</ele>
        <time>2012-09-06T10:22:26Z</time>
      </trkpt>
      <trkpt lat="46.07587" lon="4.76025">
        <ele>175.58</ele>
        <time>2012-09-06T10:22:37Z</time>
      </trkpt>
      <trkpt lat="46.07616" lon="4.75999">
        <ele>175.1</ele>
        <time>2012-09-06T10:22:47Z</time>
      </trkpt>
      <trkpt lat="46.07618" lon="4.75996">
        <ele>175.1</ele>
        <time>2012-09-06T10:22:48Z</time>
      </trkpt>
      <trkpt lat="46.0762" lon="4.75994">
        <ele>175.1</ele>
        <time>2012-09-06T10:22:49Z</time>
      </trkpt>
      <trkpt lat="46.07623" lon="4.75993">
        <ele>175.1</ele>
        <time>2012-09-06T10:22:50Z</time>
      </trkpt>
      <trkpt lat="46.07624" lon="4.75994">
        <ele>175.1</ele>
        <time>2012-09-06T10:22:51Z</time>
      </trkpt>
      <trkpt lat="46.07626" lon="4.75995">
        <ele>175.1</ele>
        <time>2012-09-06T10:22:52Z</time>
      </trkpt>
      <trkpt lat="46.07627" lon="4.75995">
        <ele>174.62</ele>
        <time>2012-09-06T10:22:53Z</time>
      </trkpt>
      <trkpt lat="46.07629" lon="4.75995">
        <ele>174.62</ele>
        <time>2012-09-06T10:22:54Z</time>
      </trkpt>
      <trkpt lat="46.07631" lon="4.75995">
        <ele>174.62</ele>
        <time>2012-09-06T10:22:55Z</time>
      </trkpt>
      <trkpt lat="46.07633" lon="4.75995">
        <ele>174.62</ele>
        <time>2012-09-06T10:22:56Z</time>
      </trkpt>
      <trkpt lat="46.07635" lon="4.75994">
        <ele>174.62</ele>
        <time>2012-09-06T10:22:57Z</time>
      </trkpt>
      <trkpt lat="46.07637" lon="4.75993">
        <ele>174.62</ele>
        <time>2012-09-06T10:22:58Z</time>
      </trkpt>
      <trkpt lat="46.07639" lon="4.75992">
        <ele>174.62</ele>
        <time>2012-09-06T10:22:59Z</time>
      </trkpt>
      <trkpt lat="46.07641" lon="4.75989">
        <ele>174.62</ele>
        <time>2012-09-06T10:23:00Z</time>
      </trkpt>
      <trkpt lat="46.07668" lon="4.75969">
        <ele>174.62</ele>
        <time>2012-09-06T10:23:12Z</time>
      </trkpt>
      <trkpt lat="46.07695" lon="4.75949">
        <ele>174.14</ele>
        <time>2012-09-06T10:23:27Z</time>
      </trkpt>
      <trkpt lat="46.0772" lon="4.75931">
        <ele>174.14</ele>
        <time>2012-09-06T10:23:39Z</time>
      </trkpt>
      <trkpt lat="46.07745" lon="4.75914">
        <ele>174.14</ele>
        <time>2012-09-06T10:23:51Z</time>
      </trkpt>
      <trkpt lat="46.07777" lon="4.75883">
        <ele>174.14</ele>
        <time>2012-09-06T10:24:04Z</time>
      </trkpt>
      <trkpt lat="46.07815" lon="4.75847">
        <ele>174.14</ele>
        <time>2012-09-06T10:24:18Z</time>
      </trkpt>
      <trkpt lat="46.07843" lon="4.75816">
        <ele>174.14</ele>
        <time>2012-09-06T10:24:30Z</time>
      </trkpt>
      <trkpt lat="46.07862" lon="4.75802">
        <ele>174.14</ele>
        <time>2012-09-06T10:24:42Z</time>
      </trkpt>
      <trkpt lat="46.07863" lon="4.75802">
        <ele>174.14</ele>
        <time>2012-09-06T10:25:11Z</time>
      </trkpt>
      <trkpt lat="46.07864" lon="4.75798">
        <ele>174.14</ele>
        <time>2012-09-06T10:25:20Z</time>
      </trkpt>
      <trkpt lat="46.07865" lon="4.75796">
        <ele>173.66</ele>
        <time>2012-09-06T10:25:21Z</time>
      </trkpt>
      <trkpt lat="46.07886" lon="4.75776">
        <ele>173.66</ele>
        <time>2012-09-06T10:25:35Z</time>
      </trkpt>
      <trkpt lat="46.07887" lon="4.75776">
        <ele>173.66</ele>
        <time>2012-09-06T10:25:36Z</time>
      </trkpt>
      <trkpt lat="46.07893" lon="4.75775">
        <ele>174.14</ele>
        <time>2012-09-06T10:25:48Z</time>
      </trkpt>
      <trkpt lat="46.07893" lon="4.7578">
        <ele>173.66</ele>
        <time>2012-09-06T10:25:57Z</time>
      </trkpt>
      <trkpt lat="46.07894" lon="4.75782">
        <ele>173.66</ele>
        <time>2012-09-06T10:25:58Z</time>
      </trkpt>
      <trkpt lat="46.07894" lon="4.75784">
        <ele>173.66</ele>
        <time>2012-09-06T10:25:59Z</time>
      </trkpt>
      <trkpt lat="46.07894" lon="4.75786">
        <ele>173.66</ele>
        <time>2012-09-06T10:26:00Z</time>
      </trkpt>
      <trkpt lat="46.07894" lon="4.75789">
        <ele>173.66</ele>
        <time>2012-09-06T10:26:01Z</time>
      </trkpt>
      <trkpt lat="46.07894" lon="4.75791">
        <ele>174.14</ele>
        <time>2012-09-06T10:26:02Z</time>
      </trkpt>
      <trkpt lat="46.07895" lon="4.75794">
        <ele>174.14</ele>
        <time>2012-09-06T10:26:03Z</time>
      </trkpt>
      <trkpt lat="46.07907" lon="4.75826">
        <ele>174.62</ele>
        <time>2012-09-06T10:26:13Z</time>
      </trkpt>
      <trkpt lat="46.07922" lon="4.75861">
        <ele>175.58</ele>
        <time>2012-09-06T10:26:24Z</time>
      </trkpt>
      <trkpt lat="46.07938" lon="4.75896">
        <ele>175.58</ele>
        <time>2012-09-06T10:26:34Z</time>
      </trkpt>
      <trkpt lat="46.07939" lon="4.75898">
        <ele>175.58</ele>
        <time>2012-09-06T10:26:35Z</time>
      </trkpt>
      <trkpt lat="46.07944" lon="4.75902">
        <ele>175.58</ele>
        <time>2012-09-06T10:26:48Z</time>
      </trkpt>
      <trkpt lat="46.07947" lon="4.75902">
        <ele>175.58</ele>
        <time>2012-09-06T10:27:12Z</time>
      </trkpt>
      <trkpt lat="46.07947" lon="4.75902">
        <ele>176.06</ele>
        <time>2012-09-06T10:27:14Z</time>
      </trkpt>
      <trkpt lat="46.07948" lon="4.75901">
        <ele>175.58</ele>
        <time>2012-09-06T10:27:15Z</time>
      </trkpt>
      <trkpt lat="46.0795" lon="4.759">
        <ele>175.58</ele>
        <time>2012-09-06T10:27:16Z</time>
      </trkpt>
      <trkpt lat="46.07952" lon="4.75899">
        <ele>175.58</ele>
        <time>2012-09-06T10:27:17Z</time>
      </trkpt>
      <trkpt lat="46.07954" lon="4.75897">
        <ele>175.58</ele>
        <time>2012-09-06T10:27:18Z</time>
      </trkpt>
      <trkpt lat="46.07957" lon="4.75896">
        <ele>176.06</ele>
        <time>2012-09-06T10:27:19Z</time>
      </trkpt>
      <trkpt lat="46.07959" lon="4.75894">
        <ele>177.02</ele>
        <time>2012-09-06T10:27:20Z</time>
      </trkpt>
      <trkpt lat="46.07962" lon="4.75893">
        <ele>176.06</ele>
        <time>2012-09-06T10:27:21Z</time>
      </trkpt>
      <trkpt lat="46.07964" lon="4.75892">
        <ele>176.06</ele>
        <time>2012-09-06T10:27:22Z</time>
      </trkpt>
      <trkpt lat="46.07998" lon="4.75874">
        <ele>176.54</ele>
        <time>2012-09-06T10:27:34Z</time>
      </trkpt>
      <trkpt lat="46.08045" lon="4.75874">
        <ele>177.5</ele>
        <time>2012-09-06T10:27:47Z</time>
      </trkpt>
      <trkpt lat="46.0808" lon="4.75878">
        <ele>178.94</ele>
        <time>2012-09-06T10:27:59Z</time>
      </trkpt>
      <trkpt lat="46.08081" lon="4.75877">
        <ele>178.94</ele>
        <time>2012-09-06T10:28:00Z</time>
      </trkpt>
      <trkpt lat="46.08082" lon="4.75876">
        <ele>178.94</ele>
        <time>2012-09-06T10:28:01Z</time>
      </trkpt>
      <trkpt lat="46.08083" lon="4.75875">
        <ele>178.94</ele>
        <time>2012-09-06T10:28:02Z</time>
      </trkpt>
      <trkpt lat="46.08083" lon="4.75872">
        <ele>178.94</ele>
        <time>2012-09-06T10:28:03Z</time>
      </trkpt>
      <trkpt lat="46.08083" lon="4.7587">
        <ele>178.94</ele>
        <time>2012-09-06T10:28:04Z</time>
      </trkpt>
      <trkpt lat="46.08083" lon="4.75868">
        <ele>178.94</ele>
        <time>2012-09-06T10:28:05Z</time>
      </trkpt>
      <trkpt lat="46.08082" lon="4.75864">
        <ele>178.94</ele>
        <time>2012-09-06T10:28:19Z</time>
      </trkpt>
      <trkpt lat="46.08082" lon="4.75862">
        <ele>178.46</ele>
        <time>2012-09-06T10:28:47Z</time>
      </trkpt>
      <trkpt lat="46.08082" lon="4.75861">
        <ele>178.46</ele>
        <time>2012-09-06T10:28:50Z</time>
      </trkpt>
      <trkpt lat="46.08081" lon="4.75859">
        <ele>178.46</ele>
        <time>2012-09-06T10:28:51Z</time>
      </trkpt>
      <trkpt lat="46.0808" lon="4.75857">
        <ele>178.46</ele>
        <time>2012-09-06T10:28:52Z</time>
      </trkpt>
      <trkpt lat="46.08079" lon="4.75854">
        <ele>178.46</ele>
        <time>2012-09-06T10:28:53Z</time>
      </trkpt>
      <trkpt lat="46.08079" lon="4.75851">
        <ele>178.46</ele>
        <time>2012-09-06T10:28:54Z</time>
      </trkpt>
      <trkpt lat="46.08078" lon="4.75848">
        <ele>178.46</ele>
        <time>2012-09-06T10:28:55Z</time>
      </trkpt>
      <trkpt lat="46.08074" lon="4.7581">
        <ele>177.5</ele>
        <time>2012-09-06T10:29:06Z</time>
      </trkpt>
      <trkpt lat="46.08073" lon="4.75807">
        <ele>177.5</ele>
        <time>2012-09-06T10:29:08Z</time>
      </trkpt>
      <trkpt lat="46.08055" lon="4.75816">
        <ele>177.98</ele>
        <time>2012-09-06T10:29:18Z</time>
      </trkpt>
      <trkpt lat="46.0801" lon="4.75856">
        <ele>177.02</ele>
        <time>2012-09-06T10:29:32Z</time>
      </trkpt>
      <trkpt lat="46.08003" lon="4.75863">
        <ele>177.02</ele>
        <time>2012-09-06T10:29:34Z</time>
      </trkpt>
      <trkpt lat="46.08" lon="4.75866">
        <ele>177.02</ele>
        <time>2012-09-06T10:29:35Z</time>
      </trkpt>
      <trkpt lat="46.07996" lon="4.75869">
        <ele>177.02</ele>
        <time>2012-09-06T10:29:36Z</time>
      </trkpt>
      <trkpt lat="46.07962" lon="4.75892">
        <ele>176.06</ele>
        <time>2012-09-06T10:29:45Z</time>
      </trkpt>
      <trkpt lat="46.07939" lon="4.75892">
        <ele>176.06</ele>
        <time>2012-09-06T10:29:55Z</time>
      </trkpt>
      <trkpt lat="46.07929" lon="4.75856">
        <ele>175.58</ele>
        <time>2012-09-06T10:30:05Z</time>
      </trkpt>
      <trkpt lat="46.07927" lon="4.75854">
        <ele>175.58</ele>
        <time>2012-09-06T10:30:15Z</time>
      </trkpt>
      <trkpt lat="46.07926" lon="4.75853">
        <ele>175.58</ele>
        <time>2012-09-06T10:30:16Z</time>
      </trkpt>
      <trkpt lat="46.07924" lon="4.7585">
        <ele>175.1</ele>
        <time>2012-09-06T10:30:17Z</time>
      </trkpt>
      <trkpt lat="46.07923" lon="4.75847">
        <ele>175.1</ele>
        <time>2012-09-06T10:30:18Z</time>
      </trkpt>
      <trkpt lat="46.07922" lon="4.75844">
        <ele>175.1</ele>
        <time>2012-09-06T10:30:19Z</time>
      </trkpt>
      <trkpt lat="46.07905" lon="4.7581">
        <ele>174.62</ele>
        <time>2012-09-06T10:30:29Z</time>
      </trkpt>
      <trkpt lat="46.07892" lon="4.75773">
        <ele>174.62</ele>
        <time>2012-09-06T10:30:39Z</time>
      </trkpt>
      <trkpt lat="46.07894" lon="4.75769">
        <ele>174.14</ele>
        <time>2012-09-06T10:30:40Z</time>
      </trkpt>
      <trkpt lat="46.07896" lon="4.75765">
        <ele>174.14</ele>
        <time>2012-09-06T10:30:41Z</time>
      </trkpt>
      <trkpt lat="46.07899" lon="4.75761">
        <ele>174.14</ele>
        <time>2012-09-06T10:30:42Z</time>
      </trkpt>
      <trkpt lat="46.07902" lon="4.75758">
        <ele>174.14</ele>
        <time>2012-09-06T10:30:43Z</time>
      </trkpt>
      <trkpt lat="46.0796" lon="4.757">
        <ele>173.66</ele>
        <time>2012-09-06T10:31:00Z</time>
      </trkpt>
      <trkpt lat="46.08013" lon="4.75647">
        <ele>173.66</ele>
        <time>2012-09-06T10:31:17Z</time>
      </trkpt>
      <trkpt lat="46.08039" lon="4.75612">
        <ele>173.66</ele>
        <time>2012-09-06T10:31:27Z</time>
      </trkpt>
      <trkpt lat="46.0808" lon="4.75577">
        <ele>173.66</ele>
        <time>2012-09-06T10:31:41Z</time>
      </trkpt>
      <trkpt lat="46.08081" lon="4.75574">
        <ele>173.66</ele>
        <time>2012-09-06T10:31:42Z</time>
      </trkpt>
      <trkpt lat="46.0808" lon="4.75571">
        <ele>173.66</ele>
        <time>2012-09-06T10:31:43Z</time>
      </trkpt>
      <trkpt lat="46.0808" lon="4.75568">
        <ele>173.66</ele>
        <time>2012-09-06T10:31:45Z</time>
      </trkpt>
      <trkpt lat="46.08082" lon="4.75566">
        <ele>173.66</ele>
        <time>2012-09-06T10:31:46Z</time>
      </trkpt>
      <trkpt lat="46.08084" lon="4.75564">
        <ele>173.66</ele>
        <time>2012-09-06T10:31:47Z</time>
      </trkpt>
      <trkpt lat="46.08119" lon="4.75525">
        <ele>173.66</ele>
        <time>2012-09-06T10:32:01Z</time>
      </trkpt>
      <trkpt lat="46.08149" lon="4.75496">
        <ele>173.66</ele>
        <time>2012-09-06T10:32:15Z</time>
      </trkpt>
      <trkpt lat="46.08152" lon="4.75494">
        <ele>173.66</ele>
        <time>2012-09-06T10:32:28Z</time>
      </trkpt>
      <trkpt lat="46.08152" lon="4.75495">
        <ele>173.17</ele>
        <time>2012-09-06T10:32:49Z</time>
      </trkpt>
      <trkpt lat="46.08152" lon="4.75495">
        <ele>171.73</ele>
        <time>2012-09-06T10:32:53Z</time>
      </trkpt>
      <trkpt lat="46.08149" lon="4.75486">
        <ele>174.62</ele>
        <time>2012-09-06T11:13:07Z</time>
      </trkpt>
      <trkpt lat="46.08148" lon="4.75488">
        <ele>173.66</ele>
        <time>2012-09-06T11:13:08Z</time>
      </trkpt>
      <trkpt lat="46.08149" lon="4.75489">
        <ele>177.02</ele>
        <time>2012-09-06T11:13:28Z</time>
      </trkpt>
      <trkpt lat="46.08148" lon="4.75489">
        <ele>177.98</ele>
        <time>2012-09-06T11:14:01Z</time>
      </trkpt>
      <trkpt lat="46.0815" lon="4.7549">
        <ele>177.98</ele>
        <time>2012-09-06T11:14:30Z</time>
      </trkpt>
      <trkpt lat="46.08152" lon="4.75493">
        <ele>177.98</ele>
        <time>2012-09-06T11:15:02Z</time>
      </trkpt>
      <trkpt lat="46.08152" lon="4.75495">
        <ele>177.5</ele>
        <time>2012-09-06T11:15:30Z</time>
      </trkpt>
      <trkpt lat="46.08175" lon="4.75528">
        <ele>177.02</ele>
        <time>2012-09-06T11:36:27Z</time>
      </trkpt>
      <trkpt lat="46.08176" lon="4.7553">
        <ele>177.5</ele>
        <time>2012-09-06T11:36:28Z</time>
      </trkpt>
      <trkpt lat="46.08151" lon="4.7549">
        <ele>176.06</ele>
        <time>2012-09-06T11:36:56Z</time>
      </trkpt>
      <trkpt lat="46.08152" lon="4.75492">
        <ele>174.62</ele>
        <time>2012-09-06T11:37:29Z</time>
      </trkpt>
      <trkpt lat="46.0815" lon="4.75491">
        <ele>176.06</ele>
        <time>2012-09-06T11:37:56Z</time>
      </trkpt>
      <trkpt lat="46.08151" lon="4.75489">
        <ele>176.06</ele>
        <time>2012-09-06T11:38:30Z</time>
      </trkpt>
      <trkpt lat="46.0815" lon="4.75491">
        <ele>176.06</ele>
        <time>2012-09-06T11:39:02Z</time>
      </trkpt>
      <trkpt lat="46.08151" lon="4.75493">
        <ele>176.06</ele>
        <time>2012-09-06T11:39:29Z</time>
      </trkpt>
      <trkpt lat="46.08152" lon="4.75491">
        <ele>176.06</ele>
        <time>2012-09-06T11:39:37Z</time>
      </trkpt>
      <trkpt lat="46.0817" lon="4.75473">
        <ele>176.06</ele>
        <time>2012-09-06T11:39:49Z</time>
      </trkpt>
      <trkpt lat="46.08201" lon="4.75433">
        <ele>176.54</ele>
        <time>2012-09-06T11:40:03Z</time>
      </trkpt>
      <trkpt lat="46.08241" lon="4.75375">
        <ele>177.02</ele>
        <time>2012-09-06T11:40:19Z</time>
      </trkpt>
      <trkpt lat="46.08282" lon="4.75328">
        <ele>176.54</ele>
        <time>2012-09-06T11:40:33Z</time>
      </trkpt>
      <trkpt lat="46.08323" lon="4.75312">
        <ele>176.06</ele>
        <time>2012-09-06T11:40:45Z</time>
      </trkpt>
      <trkpt lat="46.08371" lon="4.75304">
        <ele>176.54</ele>
        <time>2012-09-06T11:41:00Z</time>
      </trkpt>
      <trkpt lat="46.08413" lon="4.75302">
        <ele>176.54</ele>
        <time>2012-09-06T11:41:14Z</time>
      </trkpt>
      <trkpt lat="46.08425" lon="4.75301">
        <ele>176.54</ele>
        <time>2012-09-06T11:41:20Z</time>
      </trkpt>
      <trkpt lat="46.08441" lon="4.753">
        <ele>177.02</ele>
        <time>2012-09-06T11:41:29Z</time>
      </trkpt>
      <trkpt lat="46.08485" lon="4.75295">
        <ele>177.02</ele>
        <time>2012-09-06T11:41:43Z</time>
      </trkpt>
      <trkpt lat="46.08544" lon="4.75297">
        <ele>177.5</ele>
        <time>2012-09-06T11:42:00Z</time>
      </trkpt>
      <trkpt lat="46.08596" lon="4.75301">
        <ele>177.02</ele>
        <time>2012-09-06T11:42:16Z</time>
      </trkpt>
      <trkpt lat="46.08612" lon="4.75302">
        <ele>177.5</ele>
        <time>2012-09-06T11:42:26Z</time>
      </trkpt>
      <trkpt lat="46.08648" lon="4.7531">
        <ele>177.02</ele>
        <time>2012-09-06T11:42:38Z</time>
      </trkpt>
      <trkpt lat="46.08697" lon="4.7532">
        <ele>177.02</ele>
        <time>2012-09-06T11:42:51Z</time>
      </trkpt>
      <trkpt lat="46.08752" lon="4.75338">
        <ele>177.02</ele>
        <time>2012-09-06T11:43:05Z</time>
      </trkpt>
      <trkpt lat="46.08816" lon="4.75356">
        <ele>177.02</ele>
        <time>2012-09-06T11:43:21Z</time>
      </trkpt>
      <trkpt lat="46.08869" lon="4.75375">
        <ele>177.02</ele>
        <time>2012-09-06T11:43:35Z</time>
      </trkpt>
      <trkpt lat="46.08941" lon="4.75411">
        <ele>177.5</ele>
        <time>2012-09-06T11:43:53Z</time>
      </trkpt>
      <trkpt lat="46.09022" lon="4.75445">
        <ele>177.02</ele>
        <time>2012-09-06T11:44:13Z</time>
      </trkpt>
      <trkpt lat="46.09103" lon="4.75476">
        <ele>177.02</ele>
        <time>2012-09-06T11:44:32Z</time>
      </trkpt>
      <trkpt lat="46.09118" lon="4.75482">
        <ele>177.02</ele>
        <time>2012-09-06T11:44:36Z</time>
      </trkpt>
      <trkpt lat="46.09179" lon="4.75506">
        <ele>177.5</ele>
        <time>2012-09-06T11:44:51Z</time>
      </trkpt>
      <trkpt lat="46.0923" lon="4.75528">
        <ele>177.02</ele>
        <time>2012-09-06T11:45:05Z</time>
      </trkpt>
      <trkpt lat="46.09285" lon="4.75552">
        <ele>177.5</ele>
        <time>2012-09-06T11:45:19Z</time>
      </trkpt>
      <trkpt lat="46.09352" lon="4.75585">
        <ele>177.5</ele>
        <time>2012-09-06T11:45:36Z</time>
      </trkpt>
      <trkpt lat="46.09427" lon="4.75627">
        <ele>177.5</ele>
        <time>2012-09-06T11:45:56Z</time>
      </trkpt>
      <trkpt lat="46.09491" lon="4.75662">
        <ele>177.5</ele>
        <time>2012-09-06T11:46:13Z</time>
      </trkpt>
      <trkpt lat="46.0956" lon="4.75702">
        <ele>177.02</ele>
        <time>2012-09-06T11:46:33Z</time>
      </trkpt>
      <trkpt lat="46.09624" lon="4.75743">
        <ele>177.5</ele>
        <time>2012-09-06T11:46:51Z</time>
      </trkpt>
      <trkpt lat="46.09687" lon="4.75791">
        <ele>177.5</ele>
        <time>2012-09-06T11:47:10Z</time>
      </trkpt>
      <trkpt lat="46.09731" lon="4.75831">
        <ele>177.5</ele>
        <time>2012-09-06T11:47:24Z</time>
      </trkpt>
      <trkpt lat="46.09772" lon="4.75871">
        <ele>177.5</ele>
        <time>2012-09-06T11:47:37Z</time>
      </trkpt>
      <trkpt lat="46.09813" lon="4.75916">
        <ele>177.02</ele>
        <time>2012-09-06T11:47:50Z</time>
      </trkpt>
      <trkpt lat="46.0985" lon="4.7596">
        <ele>177.02</ele>
        <time>2012-09-06T11:48:03Z</time>
      </trkpt>
      <trkpt lat="46.09866" lon="4.75978">
        <ele>177.02</ele>
        <time>2012-09-06T11:48:08Z</time>
      </trkpt>
      <trkpt lat="46.09891" lon="4.76005">
        <ele>177.02</ele>
        <time>2012-09-06T11:48:15Z</time>
      </trkpt>
      <trkpt lat="46.09894" lon="4.76009">
        <ele>177.5</ele>
        <time>2012-09-06T11:48:16Z</time>
      </trkpt>
      <trkpt lat="46.09943" lon="4.76064">
        <ele>177.02</ele>
        <time>2012-09-06T11:48:31Z</time>
      </trkpt>
      <trkpt lat="46.09999" lon="4.7613">
        <ele>177.02</ele>
        <time>2012-09-06T11:48:49Z</time>
      </trkpt>
      <trkpt lat="46.10052" lon="4.76192">
        <ele>177.02</ele>
        <time>2012-09-06T11:49:06Z</time>
      </trkpt>
      <trkpt lat="46.10101" lon="4.76246">
        <ele>177.5</ele>
        <time>2012-09-06T11:49:22Z</time>
      </trkpt>
      <trkpt lat="46.10152" lon="4.76284">
        <ele>177.02</ele>
        <time>2012-09-06T11:49:37Z</time>
      </trkpt>
      <trkpt lat="46.10192" lon="4.76291">
        <ele>177.02</ele>
        <time>2012-09-06T11:49:50Z</time>
      </trkpt>
      <trkpt lat="46.102" lon="4.76291">
        <ele>177.5</ele>
        <time>2012-09-06T11:49:53Z</time>
      </trkpt>
      <trkpt lat="46.10201" lon="4.76293">
        <ele>177.98</ele>
        <time>2012-09-06T11:49:54Z</time>
      </trkpt>
      <trkpt lat="46.10214" lon="4.76312">
        <ele>176.54</ele>
        <time>2012-09-06T11:50:07Z</time>
      </trkpt>
      <trkpt lat="46.10216" lon="4.76312">
        <ele>176.54</ele>
        <time>2012-09-06T11:50:32Z</time>
      </trkpt>
      <trkpt lat="46.10216" lon="4.76314">
        <ele>176.54</ele>
        <time>2012-09-06T11:51:05Z</time>
      </trkpt>
      <trkpt lat="46.10216" lon="4.76314">
        <ele>176.54</ele>
        <time>2012-09-06T11:51:34Z</time>
      </trkpt>
      <trkpt lat="46.10217" lon="4.76314">
        <ele>176.54</ele>
        <time>2012-09-06T11:51:37Z</time>
      </trkpt>
      <trkpt lat="46.10217" lon="4.76316">
        <ele>176.54</ele>
        <time>2012-09-06T11:51:38Z</time>
      </trkpt>
      <trkpt lat="46.10217" lon="4.76319">
        <ele>176.54</ele>
        <time>2012-09-06T11:51:39Z</time>
      </trkpt>
      <trkpt lat="46.10218" lon="4.76322">
        <ele>176.54</ele>
        <time>2012-09-06T11:51:40Z</time>
      </trkpt>
      <trkpt lat="46.10219" lon="4.76325">
        <ele>176.54</ele>
        <time>2012-09-06T11:51:41Z</time>
      </trkpt>
      <trkpt lat="46.10221" lon="4.76329">
        <ele>177.02</ele>
        <time>2012-09-06T11:51:42Z</time>
      </trkpt>
      <trkpt lat="46.1023" lon="4.76357">
        <ele>177.5</ele>
        <time>2012-09-06T11:51:47Z</time>
      </trkpt>
      <trkpt lat="46.10237" lon="4.76376">
        <ele>177.02</ele>
        <time>2012-09-06T11:51:50Z</time>
      </trkpt>
      <trkpt lat="46.10273" lon="4.76444">
        <ele>177.02</ele>
        <time>2012-09-06T11:52:01Z</time>
      </trkpt>
      <trkpt lat="46.10332" lon="4.76508">
        <ele>177.02</ele>
        <time>2012-09-06T11:52:15Z</time>
      </trkpt>
      <trkpt lat="46.10397" lon="4.76573">
        <ele>176.54</ele>
        <time>2012-09-06T11:52:31Z</time>
      </trkpt>
      <trkpt lat="46.10435" lon="4.76611">
        <ele>176.54</ele>
        <time>2012-09-06T11:52:43Z</time>
      </trkpt>
      <trkpt lat="46.10441" lon="4.76617">
        <ele>176.54</ele>
        <time>2012-09-06T11:52:53Z</time>
      </trkpt>
      <trkpt lat="46.10442" lon="4.76619">
        <ele>176.54</ele>
        <time>2012-09-06T11:53:07Z</time>
      </trkpt>
      <trkpt lat="46.10444" lon="4.76621">
        <ele>176.54</ele>
        <time>2012-09-06T11:53:35Z</time>
      </trkpt>
      <trkpt lat="46.10445" lon="4.7662">
        <ele>176.54</ele>
        <time>2012-09-06T11:53:57Z</time>
      </trkpt>
      <trkpt lat="46.10458" lon="4.76631">
        <ele>176.54</ele>
        <time>2012-09-06T11:54:08Z</time>
      </trkpt>
      <trkpt lat="46.10491" lon="4.76665">
        <ele>176.06</ele>
        <time>2012-09-06T11:54:22Z</time>
      </trkpt>
      <trkpt lat="46.10532" lon="4.76706">
        <ele>176.54</ele>
        <time>2012-09-06T11:54:36Z</time>
      </trkpt>
      <trkpt lat="46.10575" lon="4.7675">
        <ele>176.54</ele>
        <time>2012-09-06T11:54:51Z</time>
      </trkpt>
      <trkpt lat="46.10616" lon="4.76791">
        <ele>176.54</ele>
        <time>2012-09-06T11:55:05Z</time>
      </trkpt>
      <trkpt lat="46.10659" lon="4.76834">
        <ele>176.54</ele>
        <time>2012-09-06T11:55:18Z</time>
      </trkpt>
      <trkpt lat="46.10702" lon="4.7688">
        <ele>176.54</ele>
        <time>2012-09-06T11:55:31Z</time>
      </trkpt>
      <trkpt lat="46.1074" lon="4.76919">
        <ele>177.02</ele>
        <time>2012-09-06T11:55:43Z</time>
      </trkpt>
      <trkpt lat="46.10792" lon="4.76976">
        <ele>176.54</ele>
        <time>2012-09-06T11:55:58Z</time>
      </trkpt>
      <trkpt lat="46.10838" lon="4.77035">
        <ele>176.54</ele>
        <time>2012-09-06T11:56:13Z</time>
      </trkpt>
      <trkpt lat="46.10868" lon="4.77077">
        <ele>176.54</ele>
        <time>2012-09-06T11:56:25Z</time>
      </trkpt>
      <trkpt lat="46.10907" lon="4.77129">
        <ele>176.54</ele>
        <time>2012-09-06T11:56:38Z</time>
      </trkpt>
      <trkpt lat="46.10955" lon="4.77181">
        <ele>176.54</ele>
        <time>2012-09-06T11:56:53Z</time>
      </trkpt>
      <trkpt lat="46.11022" lon="4.77244">
        <ele>177.02</ele>
        <time>2012-09-06T11:57:13Z</time>
      </trkpt>
      <trkpt lat="46.11063" lon="4.77287">
        <ele>177.5</ele>
        <time>2012-09-06T11:57:27Z</time>
      </trkpt>
      <trkpt lat="46.11072" lon="4.77291">
        <ele>177.02</ele>
        <time>2012-09-06T11:57:31Z</time>
      </trkpt>
      <trkpt lat="46.11075" lon="4.7729">
        <ele>176.54</ele>
        <time>2012-09-06T11:57:32Z</time>
      </trkpt>
      <trkpt lat="46.11079" lon="4.77289">
        <ele>176.54</ele>
        <time>2012-09-06T11:57:33Z</time>
      </trkpt>
      <trkpt lat="46.11081" lon="4.77288">
        <ele>177.02</ele>
        <time>2012-09-06T11:57:34Z</time>
      </trkpt>
      <trkpt lat="46.11085" lon="4.77288">
        <ele>177.02</ele>
        <time>2012-09-06T11:57:35Z</time>
      </trkpt>
      <trkpt lat="46.11088" lon="4.77289">
        <ele>176.54</ele>
        <time>2012-09-06T11:57:36Z</time>
      </trkpt>
      <trkpt lat="46.11091" lon="4.77289">
        <ele>176.54</ele>
        <time>2012-09-06T11:57:37Z</time>
      </trkpt>
      <trkpt lat="46.11095" lon="4.77289">
        <ele>177.02</ele>
        <time>2012-09-06T11:57:38Z</time>
      </trkpt>
      <trkpt lat="46.11099" lon="4.7729">
        <ele>176.54</ele>
        <time>2012-09-06T11:57:39Z</time>
      </trkpt>
      <trkpt lat="46.11151" lon="4.77304">
        <ele>176.54</ele>
        <time>2012-09-06T11:57:53Z</time>
      </trkpt>
      <trkpt lat="46.11199" lon="4.77316">
        <ele>176.54</ele>
        <time>2012-09-06T11:58:07Z</time>
      </trkpt>
      <trkpt lat="46.1124" lon="4.7732">
        <ele>176.54</ele>
        <time>2012-09-06T11:58:20Z</time>
      </trkpt>
      <trkpt lat="46.11247" lon="4.77323">
        <ele>177.02</ele>
        <time>2012-09-06T11:58:23Z</time>
      </trkpt>
      <trkpt lat="46.11308" lon="4.77331">
        <ele>177.02</ele>
        <time>2012-09-06T11:58:40Z</time>
      </trkpt>
      <trkpt lat="46.11377" lon="4.77342">
        <ele>177.5</ele>
        <time>2012-09-06T11:58:59Z</time>
      </trkpt>
      <trkpt lat="46.11436" lon="4.77358">
        <ele>177.02</ele>
        <time>2012-09-06T11:59:15Z</time>
      </trkpt>
      <trkpt lat="46.11506" lon="4.77373">
        <ele>177.02</ele>
        <time>2012-09-06T11:59:33Z</time>
      </trkpt>
      <trkpt lat="46.1156" lon="4.77397">
        <ele>177.02</ele>
        <time>2012-09-06T11:59:48Z</time>
      </trkpt>
      <trkpt lat="46.11618" lon="4.77427">
        <ele>177.5</ele>
        <time>2012-09-06T12:00:04Z</time>
      </trkpt>
      <trkpt lat="46.11672" lon="4.77465">
        <ele>177.5</ele>
        <time>2012-09-06T12:00:20Z</time>
      </trkpt>
      <trkpt lat="46.11715" lon="4.77498">
        <ele>177.5</ele>
        <time>2012-09-06T12:00:33Z</time>
      </trkpt>
      <trkpt lat="46.11773" lon="4.77538">
        <ele>177.98</ele>
        <time>2012-09-06T12:00:50Z</time>
      </trkpt>
      <trkpt lat="46.1184" lon="4.77578">
        <ele>177.5</ele>
        <time>2012-09-06T12:01:08Z</time>
      </trkpt>
      <trkpt lat="46.11905" lon="4.77611">
        <ele>177.98</ele>
        <time>2012-09-06T12:01:25Z</time>
      </trkpt>
      <trkpt lat="46.11935" lon="4.77626">
        <ele>177.5</ele>
        <time>2012-09-06T12:01:34Z</time>
      </trkpt>
      <trkpt lat="46.11935" lon="4.77624">
        <ele>177.5</ele>
        <time>2012-09-06T12:01:35Z</time>
      </trkpt>
      <trkpt lat="46.11929" lon="4.77619">
        <ele>177.5</ele>
        <time>2012-09-06T12:01:46Z</time>
      </trkpt>
      <trkpt lat="46.11929" lon="4.77619">
        <ele>177.02</ele>
        <time>2012-09-06T12:02:13Z</time>
      </trkpt>
      <trkpt lat="46.11929" lon="4.77619">
        <ele>177.02</ele>
        <time>2012-09-06T12:02:41Z</time>
      </trkpt>
      <trkpt lat="46.11927" lon="4.77621">
        <ele>177.02</ele>
        <time>2012-09-06T12:02:47Z</time>
      </trkpt>
      <trkpt lat="46.11929" lon="4.77623">
        <ele>177.5</ele>
        <time>2012-09-06T12:02:50Z</time>
      </trkpt>
      <trkpt lat="46.11954" lon="4.77636">
        <ele>177.5</ele>
        <time>2012-09-06T12:03:04Z</time>
      </trkpt>
      <trkpt lat="46.12001" lon="4.77662">
        <ele>177.5</ele>
        <time>2012-09-06T12:03:19Z</time>
      </trkpt>
      <trkpt lat="46.12045" lon="4.7769">
        <ele>177.98</ele>
        <time>2012-09-06T12:03:34Z</time>
      </trkpt>
      <trkpt lat="46.12082" lon="4.77726">
        <ele>177.02</ele>
        <time>2012-09-06T12:03:48Z</time>
      </trkpt>
      <trkpt lat="46.12121" lon="4.77765">
        <ele>177.5</ele>
        <time>2012-09-06T12:04:02Z</time>
      </trkpt>
      <trkpt lat="46.12161" lon="4.77797">
        <ele>177.02</ele>
        <time>2012-09-06T12:04:15Z</time>
      </trkpt>
      <trkpt lat="46.1219" lon="4.77841">
        <ele>177.02</ele>
        <time>2012-09-06T12:04:28Z</time>
      </trkpt>
      <trkpt lat="46.12226" lon="4.77891">
        <ele>177.02</ele>
        <time>2012-09-06T12:04:42Z</time>
      </trkpt>
      <trkpt lat="46.12277" lon="4.77949">
        <ele>177.5</ele>
        <time>2012-09-06T12:04:59Z</time>
      </trkpt>
      <trkpt lat="46.1232" lon="4.77993">
        <ele>177.02</ele>
        <time>2012-09-06T12:05:14Z</time>
      </trkpt>
      <trkpt lat="46.1236" lon="4.78042">
        <ele>177.5</ele>
        <time>2012-09-06T12:05:29Z</time>
      </trkpt>
      <trkpt lat="46.12387" lon="4.78076">
        <ele>176.54</ele>
        <time>2012-09-06T12:05:40Z</time>
      </trkpt>
      <trkpt lat="46.12421" lon="4.78123">
        <ele>177.02</ele>
        <time>2012-09-06T12:05:53Z</time>
      </trkpt>
      <trkpt lat="46.12465" lon="4.78181">
        <ele>177.02</ele>
        <time>2012-09-06T12:06:09Z</time>
      </trkpt>
      <trkpt lat="46.12504" lon="4.78232">
        <ele>176.54</ele>
        <time>2012-09-06T12:06:24Z</time>
      </trkpt>
      <trkpt lat="46.12537" lon="4.78271">
        <ele>176.54</ele>
        <time>2012-09-06T12:06:35Z</time>
      </trkpt>
      <trkpt lat="46.1254" lon="4.78275">
        <ele>177.02</ele>
        <time>2012-09-06T12:06:36Z</time>
      </trkpt>
      <trkpt lat="46.12542" lon="4.78279">
        <ele>177.02</ele>
        <time>2012-09-06T12:06:37Z</time>
      </trkpt>
      <trkpt lat="46.12544" lon="4.78283">
        <ele>177.02</ele>
        <time>2012-09-06T12:06:38Z</time>
      </trkpt>
      <trkpt lat="46.12547" lon="4.78286">
        <ele>177.02</ele>
        <time>2012-09-06T12:06:39Z</time>
      </trkpt>
      <trkpt lat="46.12549" lon="4.7829">
        <ele>176.54</ele>
        <time>2012-09-06T12:06:40Z</time>
      </trkpt>
      <trkpt lat="46.12552" lon="4.78293">
        <ele>177.02</ele>
        <time>2012-09-06T12:06:41Z</time>
      </trkpt>
      <trkpt lat="46.12589" lon="4.78345">
        <ele>177.02</ele>
        <time>2012-09-06T12:06:56Z</time>
      </trkpt>
      <trkpt lat="46.12628" lon="4.78396">
        <ele>176.54</ele>
        <time>2012-09-06T12:07:09Z</time>
      </trkpt>
      <trkpt lat="46.12648" lon="4.78423">
        <ele>176.54</ele>
        <time>2012-09-06T12:07:20Z</time>
      </trkpt>
      <trkpt lat="46.12651" lon="4.78424">
        <ele>176.54</ele>
        <time>2012-09-06T12:07:37Z</time>
      </trkpt>
      <trkpt lat="46.12652" lon="4.78424">
        <ele>176.54</ele>
        <time>2012-09-06T12:08:12Z</time>
      </trkpt>
      <trkpt lat="46.12652" lon="4.78423">
        <ele>176.54</ele>
        <time>2012-09-06T12:08:45Z</time>
      </trkpt>
      <trkpt lat="46.12653" lon="4.78423">
        <ele>176.54</ele>
        <time>2012-09-06T12:09:15Z</time>
      </trkpt>
      <trkpt lat="46.12653" lon="4.78423">
        <ele>176.54</ele>
        <time>2012-09-06T12:09:40Z</time>
      </trkpt>
      <trkpt lat="46.12653" lon="4.78423">
        <ele>176.54</ele>
        <time>2012-09-06T12:09:41Z</time>
      </trkpt>
      <trkpt lat="46.12654" lon="4.78424">
        <ele>176.54</ele>
        <time>2012-09-06T12:09:42Z</time>
      </trkpt>
      <trkpt lat="46.12672" lon="4.78449">
        <ele>176.54</ele>
        <time>2012-09-06T12:09:56Z</time>
      </trkpt>
      <trkpt lat="46.12695" lon="4.7848">
        <ele>176.54</ele>
        <time>2012-09-06T12:10:09Z</time>
      </trkpt>
      <trkpt lat="46.12724" lon="4.78518">
        <ele>176.54</ele>
        <time>2012-09-06T12:10:22Z</time>
      </trkpt>
      <trkpt lat="46.12749" lon="4.78549">
        <ele>177.02</ele>
        <time>2012-09-06T12:10:33Z</time>
      </trkpt>
      <trkpt lat="46.12791" lon="4.78603">
        <ele>176.54</ele>
        <time>2012-09-06T12:10:48Z</time>
      </trkpt>
      <trkpt lat="46.1283" lon="4.78652">
        <ele>177.02</ele>
        <time>2012-09-06T12:11:02Z</time>
      </trkpt>
      <trkpt lat="46.12877" lon="4.78714">
        <ele>177.02</ele>
        <time>2012-09-06T12:11:19Z</time>
      </trkpt>
      <trkpt lat="46.1292" lon="4.78772">
        <ele>177.5</ele>
        <time>2012-09-06T12:11:35Z</time>
      </trkpt>
      <trkpt lat="46.12953" lon="4.78816">
        <ele>177.02</ele>
        <time>2012-09-06T12:11:48Z</time>
      </trkpt>
      <trkpt lat="46.13008" lon="4.78879">
        <ele>177.02</ele>
        <time>2012-09-06T12:12:06Z</time>
      </trkpt>
      <trkpt lat="46.13053" lon="4.7891">
        <ele>177.5</ele>
        <time>2012-09-06T12:12:20Z</time>
      </trkpt>
      <trkpt lat="46.13082" lon="4.78941">
        <ele>177.02</ele>
        <time>2012-09-06T12:12:31Z</time>
      </trkpt>
      <trkpt lat="46.1312" lon="4.78992">
        <ele>177.02</ele>
        <time>2012-09-06T12:12:45Z</time>
      </trkpt>
      <trkpt lat="46.13166" lon="4.79048">
        <ele>177.02</ele>
        <time>2012-09-06T12:13:02Z</time>
      </trkpt>
      <trkpt lat="46.13203" lon="4.79097">
        <ele>176.54</ele>
        <time>2012-09-06T12:13:17Z</time>
      </trkpt>
      <trkpt lat="46.13238" lon="4.7914">
        <ele>177.02</ele>
        <time>2012-09-06T12:13:30Z</time>
      </trkpt>
      <trkpt lat="46.13276" lon="4.79178">
        <ele>177.02</ele>
        <time>2012-09-06T12:13:43Z</time>
      </trkpt>
      <trkpt lat="46.13307" lon="4.79209">
        <ele>177.02</ele>
        <time>2012-09-06T12:13:55Z</time>
      </trkpt>
      <trkpt lat="46.13344" lon="4.79238">
        <ele>177.02</ele>
        <time>2012-09-06T12:14:07Z</time>
      </trkpt>
      <trkpt lat="46.1338" lon="4.79271">
        <ele>176.54</ele>
        <time>2012-09-06T12:14:19Z</time>
      </trkpt>
      <trkpt lat="46.13421" lon="4.79306">
        <ele>176.54</ele>
        <time>2012-09-06T12:14:33Z</time>
      </trkpt>
      <trkpt lat="46.13472" lon="4.79353">
        <ele>176.54</ele>
        <time>2012-09-06T12:14:49Z</time>
      </trkpt>
      <trkpt lat="46.13517" lon="4.79397">
        <ele>176.54</ele>
        <time>2012-09-06T12:15:03Z</time>
      </trkpt>
      <trkpt lat="46.13557" lon="4.79436">
        <ele>176.54</ele>
        <time>2012-09-06T12:15:17Z</time>
      </trkpt>
      <trkpt lat="46.13589" lon="4.79466">
        <ele>176.54</ele>
        <time>2012-09-06T12:15:28Z</time>
      </trkpt>
      <trkpt lat="46.1362" lon="4.79497">
        <ele>176.54</ele>
        <time>2012-09-06T12:15:40Z</time>
      </trkpt>
      <trkpt lat="46.13653" lon="4.79529">
        <ele>177.02</ele>
        <time>2012-09-06T12:15:52Z</time>
      </trkpt>
      <trkpt lat="46.13693" lon="4.7957">
        <ele>176.54</ele>
        <time>2012-09-06T12:16:06Z</time>
      </trkpt>
      <trkpt lat="46.13732" lon="4.79614">
        <ele>177.02</ele>
        <time>2012-09-06T12:16:21Z</time>
      </trkpt>
      <trkpt lat="46.13769" lon="4.79652">
        <ele>177.02</ele>
        <time>2012-09-06T12:16:34Z</time>
      </trkpt>
      <trkpt lat="46.13804" lon="4.79689">
        <ele>177.5</ele>
        <time>2012-09-06T12:16:46Z</time>
      </trkpt>
      <trkpt lat="46.13841" lon="4.7973">
        <ele>176.54</ele>
        <time>2012-09-06T12:17:02Z</time>
      </trkpt>
      <trkpt lat="46.13843" lon="4.79731">
        <ele>177.02</ele>
        <time>2012-09-06T12:17:15Z</time>
      </trkpt>
      <trkpt lat="46.13844" lon="4.79731">
        <ele>177.02</ele>
        <time>2012-09-06T12:17:42Z</time>
      </trkpt>
      <trkpt lat="46.13844" lon="4.79731">
        <ele>176.54</ele>
        <time>2012-09-06T12:18:09Z</time>
      </trkpt>
      <trkpt lat="46.13843" lon="4.79732">
        <ele>176.54</ele>
        <time>2012-09-06T12:18:36Z</time>
      </trkpt>
      <trkpt lat="46.13843" lon="4.79732">
        <ele>176.54</ele>
        <time>2012-09-06T12:19:06Z</time>
      </trkpt>
      <trkpt lat="46.13843" lon="4.79732">
        <ele>177.02</ele>
        <time>2012-09-06T12:19:07Z</time>
      </trkpt>
      <trkpt lat="46.13849" lon="4.79745">
        <ele>176.54</ele>
        <time>2012-09-06T12:19:13Z</time>
      </trkpt>
      <trkpt lat="46.13881" lon="4.79778">
        <ele>176.54</ele>
        <time>2012-09-06T12:19:27Z</time>
      </trkpt>
      <trkpt lat="46.13919" lon="4.79818">
        <ele>177.02</ele>
        <time>2012-09-06T12:19:41Z</time>
      </trkpt>
      <trkpt lat="46.13958" lon="4.79861">
        <ele>177.02</ele>
        <time>2012-09-06T12:19:54Z</time>
      </trkpt>
      <trkpt lat="46.14009" lon="4.79914">
        <ele>177.02</ele>
        <time>2012-09-06T12:20:10Z</time>
      </trkpt>
      <trkpt lat="46.14056" lon="4.79966">
        <ele>176.54</ele>
        <time>2012-09-06T12:20:25Z</time>
      </trkpt>
      <trkpt lat="46.14096" lon="4.80008">
        <ele>177.5</ele>
        <time>2012-09-06T12:20:38Z</time>
      </trkpt>
      <trkpt lat="46.14114" lon="4.80029">
        <ele>177.5</ele>
        <time>2012-09-06T12:20:44Z</time>
      </trkpt>
      <trkpt lat="46.14168" lon="4.80071">
        <ele>177.02</ele>
        <time>2012-09-06T12:20:58Z</time>
      </trkpt>
      <trkpt lat="46.14195" lon="4.80091">
        <ele>177.02</ele>
        <time>2012-09-06T12:21:05Z</time>
      </trkpt>
      <trkpt lat="46.14238" lon="4.80121">
        <ele>177.02</ele>
        <time>2012-09-06T12:21:18Z</time>
      </trkpt>
      <trkpt lat="46.14295" lon="4.80152">
        <ele>177.02</ele>
        <time>2012-09-06T12:21:32Z</time>
      </trkpt>
      <trkpt lat="46.14341" lon="4.80176">
        <ele>177.02</ele>
        <time>2012-09-06T12:21:45Z</time>
      </trkpt>
      <trkpt lat="46.14344" lon="4.80176">
        <ele>177.02</ele>
        <time>2012-09-06T12:21:46Z</time>
      </trkpt>
      <trkpt lat="46.14385" lon="4.80195">
        <ele>177.02</ele>
        <time>2012-09-06T12:21:58Z</time>
      </trkpt>
      <trkpt lat="46.14431" lon="4.8021">
        <ele>177.5</ele>
        <time>2012-09-06T12:22:10Z</time>
      </trkpt>
      <trkpt lat="46.14503" lon="4.8023">
        <ele>177.02</ele>
        <time>2012-09-06T12:22:29Z</time>
      </trkpt>
      <trkpt lat="46.1456" lon="4.80245">
        <ele>177.02</ele>
        <time>2012-09-06T12:22:44Z</time>
      </trkpt>
      <trkpt lat="46.14603" lon="4.80252">
        <ele>177.02</ele>
        <time>2012-09-06T12:22:56Z</time>
      </trkpt>
      <trkpt lat="46.14629" lon="4.80236">
        <ele>177.02</ele>
        <time>2012-09-06T12:23:04Z</time>
      </trkpt>
      <trkpt lat="46.14632" lon="4.80237">
        <ele>177.02</ele>
        <time>2012-09-06T12:23:05Z</time>
      </trkpt>
      <trkpt lat="46.14634" lon="4.80239">
        <ele>177.02</ele>
        <time>2012-09-06T12:23:06Z</time>
      </trkpt>
      <trkpt lat="46.14635" lon="4.80241">
        <ele>177.5</ele>
        <time>2012-09-06T12:23:07Z</time>
      </trkpt>
      <trkpt lat="46.14638" lon="4.80244">
        <ele>177.5</ele>
        <time>2012-09-06T12:23:08Z</time>
      </trkpt>
      <trkpt lat="46.1464" lon="4.80246">
        <ele>177.02</ele>
        <time>2012-09-06T12:23:09Z</time>
      </trkpt>
      <trkpt lat="46.14686" lon="4.80269">
        <ele>177.02</ele>
        <time>2012-09-06T12:23:23Z</time>
      </trkpt>
      <trkpt lat="46.14725" lon="4.80285">
        <ele>177.02</ele>
        <time>2012-09-06T12:23:33Z</time>
      </trkpt>
      <trkpt lat="46.14776" lon="4.80306">
        <ele>177.02</ele>
        <time>2012-09-06T12:23:47Z</time>
      </trkpt>
      <trkpt lat="46.14818" lon="4.80323">
        <ele>177.02</ele>
        <time>2012-09-06T12:24:01Z</time>
      </trkpt>
      <trkpt lat="46.14823" lon="4.80326">
        <ele>177.02</ele>
        <time>2012-09-06T12:24:04Z</time>
      </trkpt>
      <trkpt lat="46.14823" lon="4.80319">
        <ele>177.02</ele>
        <time>2012-09-06T12:24:17Z</time>
      </trkpt>
      <trkpt lat="46.14823" lon="4.80316">
        <ele>177.5</ele>
        <time>2012-09-06T12:24:19Z</time>
      </trkpt>
      <trkpt lat="46.14815" lon="4.8029">
        <ele>177.98</ele>
        <time>2012-09-06T12:24:34Z</time>
      </trkpt>
      <trkpt lat="46.14817" lon="4.80265">
        <ele>177.5</ele>
        <time>2012-09-06T12:24:50Z</time>
      </trkpt>
      <trkpt lat="46.14823" lon="4.80265">
        <ele>177.5</ele>
        <time>2012-09-06T12:25:05Z</time>
      </trkpt>
      <trkpt lat="46.14826" lon="4.80266">
        <ele>177.5</ele>
        <time>2012-09-06T12:25:34Z</time>
      </trkpt>
      <trkpt lat="46.14825" lon="4.80267">
        <ele>177.5</ele>
        <time>2012-09-06T12:26:09Z</time>
      </trkpt>
      <trkpt lat="46.14824" lon="4.80265">
        <ele>177.5</ele>
        <time>2012-09-06T12:26:43Z</time>
      </trkpt>
      <trkpt lat="46.14825" lon="4.80266">
        <ele>177.5</ele>
        <time>2012-09-06T12:27:15Z</time>
      </trkpt>
      <trkpt lat="46.14825" lon="4.80266">
        <ele>177.5</ele>
        <time>2012-09-06T12:27:44Z</time>
      </trkpt>
      <trkpt lat="46.14824" lon="4.80267">
        <ele>177.5</ele>
        <time>2012-09-06T12:27:48Z</time>
      </trkpt>
      <trkpt lat="46.14823" lon="4.80268">
        <ele>177.5</ele>
        <time>2012-09-06T12:27:49Z</time>
      </trkpt>
      <trkpt lat="46.14816" lon="4.80292">
        <ele>177.98</ele>
        <time>2012-09-06T12:28:07Z</time>
      </trkpt>
      <trkpt lat="46.1482" lon="4.80301">
        <ele>177.98</ele>
        <time>2012-09-06T12:28:17Z</time>
      </trkpt>
      <trkpt lat="46.1482" lon="4.80303">
        <ele>177.98</ele>
        <time>2012-09-06T12:28:18Z</time>
      </trkpt>
      <trkpt lat="46.14821" lon="4.80305">
        <ele>177.98</ele>
        <time>2012-09-06T12:28:19Z</time>
      </trkpt>
      <trkpt lat="46.14833" lon="4.80332">
        <ele>176.54</ele>
        <time>2012-09-06T12:28:29Z</time>
      </trkpt>
      <trkpt lat="46.14868" lon="4.80346">
        <ele>177.02</ele>
        <time>2012-09-06T12:28:42Z</time>
      </trkpt>
      <trkpt lat="46.1492" lon="4.80363">
        <ele>177.02</ele>
        <time>2012-09-06T12:28:59Z</time>
      </trkpt>
      <trkpt lat="46.14967" lon="4.8038">
        <ele>176.54</ele>
        <time>2012-09-06T12:29:12Z</time>
      </trkpt>
      <trkpt lat="46.15015" lon="4.80399">
        <ele>176.06</ele>
        <time>2012-09-06T12:29:26Z</time>
      </trkpt>
      <trkpt lat="46.15051" lon="4.8041">
        <ele>176.54</ele>
        <time>2012-09-06T12:29:39Z</time>
      </trkpt>
      <trkpt lat="46.15091" lon="4.80424">
        <ele>176.06</ele>
        <time>2012-09-06T12:29:51Z</time>
      </trkpt>
      <trkpt lat="46.15129" lon="4.80434">
        <ele>176.06</ele>
        <time>2012-09-06T12:30:03Z</time>
      </trkpt>
      <trkpt lat="46.15179" lon="4.80449">
        <ele>176.06</ele>
        <time>2012-09-06T12:30:16Z</time>
      </trkpt>
      <trkpt lat="46.15238" lon="4.80469">
        <ele>176.06</ele>
        <time>2012-09-06T12:30:30Z</time>
      </trkpt>
      <trkpt lat="46.153" lon="4.80488">
        <ele>176.06</ele>
        <time>2012-09-06T12:30:45Z</time>
      </trkpt>
      <trkpt lat="46.1535" lon="4.80504">
        <ele>176.06</ele>
        <time>2012-09-06T12:30:59Z</time>
      </trkpt>
      <trkpt lat="46.15408" lon="4.80518">
        <ele>176.06</ele>
        <time>2012-09-06T12:31:13Z</time>
      </trkpt>
      <trkpt lat="46.15422" lon="4.80521">
        <ele>176.06</ele>
        <time>2012-09-06T12:31:16Z</time>
      </trkpt>
      <trkpt lat="46.15461" lon="4.80528">
        <ele>176.06</ele>
        <time>2012-09-06T12:31:25Z</time>
      </trkpt>
      <trkpt lat="46.15467" lon="4.80528">
        <ele>176.06</ele>
        <time>2012-09-06T12:31:26Z</time>
      </trkpt>
      <trkpt lat="46.15513" lon="4.80526">
        <ele>176.06</ele>
        <time>2012-09-06T12:31:36Z</time>
      </trkpt>
      <trkpt lat="46.15569" lon="4.80505">
        <ele>176.54</ele>
        <time>2012-09-06T12:31:50Z</time>
      </trkpt>
      <trkpt lat="46.15581" lon="4.80501">
        <ele>176.54</ele>
        <time>2012-09-06T12:31:53Z</time>
      </trkpt>
      <trkpt lat="46.15622" lon="4.80485">
        <ele>176.54</ele>
        <time>2012-09-06T12:32:04Z</time>
      </trkpt>
      <trkpt lat="46.15664" lon="4.80472">
        <ele>176.54</ele>
        <time>2012-09-06T12:32:16Z</time>
      </trkpt>
      <trkpt lat="46.15716" lon="4.8046">
        <ele>176.54</ele>
        <time>2012-09-06T12:32:28Z</time>
      </trkpt>
      <trkpt lat="46.15775" lon="4.80445">
        <ele>176.54</ele>
        <time>2012-09-06T12:32:42Z</time>
      </trkpt>
      <trkpt lat="46.1582" lon="4.80419">
        <ele>176.54</ele>
        <time>2012-09-06T12:32:53Z</time>
      </trkpt>
      <trkpt lat="46.15865" lon="4.80375">
        <ele>176.06</ele>
        <time>2012-09-06T12:33:07Z</time>
      </trkpt>
      <trkpt lat="46.15899" lon="4.80335">
        <ele>176.06</ele>
        <time>2012-09-06T12:33:20Z</time>
      </trkpt>
      <trkpt lat="46.159" lon="4.80333">
        <ele>176.06</ele>
        <time>2012-09-06T12:33:21Z</time>
      </trkpt>
      <trkpt lat="46.15901" lon="4.80332">
        <ele>176.06</ele>
        <time>2012-09-06T12:33:22Z</time>
      </trkpt>
      <trkpt lat="46.15902" lon="4.80331">
        <ele>176.06</ele>
        <time>2012-09-06T12:33:23Z</time>
      </trkpt>
      <trkpt lat="46.15902" lon="4.80329">
        <ele>176.06</ele>
        <time>2012-09-06T12:33:24Z</time>
      </trkpt>
      <trkpt lat="46.15902" lon="4.80328">
        <ele>176.06</ele>
        <time>2012-09-06T12:33:25Z</time>
      </trkpt>
      <trkpt lat="46.15901" lon="4.80326">
        <ele>175.58</ele>
        <time>2012-09-06T12:33:26Z</time>
      </trkpt>
      <trkpt lat="46.159" lon="4.80325">
        <ele>175.58</ele>
        <time>2012-09-06T12:33:27Z</time>
      </trkpt>
      <trkpt lat="46.15899" lon="4.80323">
        <ele>176.06</ele>
        <time>2012-09-06T12:33:28Z</time>
      </trkpt>
      <trkpt lat="46.15897" lon="4.80321">
        <ele>175.58</ele>
        <time>2012-09-06T12:33:29Z</time>
      </trkpt>
      <trkpt lat="46.15896" lon="4.80317">
        <ele>175.58</ele>
        <time>2012-09-06T12:33:30Z</time>
      </trkpt>
      <trkpt lat="46.15896" lon="4.80313">
        <ele>176.06</ele>
        <time>2012-09-06T12:33:31Z</time>
      </trkpt>
      <trkpt lat="46.15875" lon="4.80259">
        <ele>175.1</ele>
        <time>2012-09-06T12:33:43Z</time>
      </trkpt>
      <trkpt lat="46.15849" lon="4.80216">
        <ele>175.58</ele>
        <time>2012-09-06T12:33:54Z</time>
      </trkpt>
      <trkpt lat="46.15845" lon="4.80198">
        <ele>176.54</ele>
        <time>2012-09-06T12:34:06Z</time>
      </trkpt>
      <trkpt lat="46.15845" lon="4.80196">
        <ele>176.54</ele>
        <time>2012-09-06T12:34:38Z</time>
      </trkpt>
      <trkpt lat="46.15843" lon="4.80198">
        <ele>176.54</ele>
        <time>2012-09-06T12:34:47Z</time>
      </trkpt>
      <trkpt lat="46.15845" lon="4.802">
        <ele>176.54</ele>
        <time>2012-09-06T12:34:48Z</time>
      </trkpt>
      <trkpt lat="46.15847" lon="4.80202">
        <ele>177.5</ele>
        <time>2012-09-06T12:34:49Z</time>
      </trkpt>
      <trkpt lat="46.15849" lon="4.80205">
        <ele>176.54</ele>
        <time>2012-09-06T12:34:50Z</time>
      </trkpt>
      <trkpt lat="46.1585" lon="4.8021">
        <ele>176.06</ele>
        <time>2012-09-06T12:34:51Z</time>
      </trkpt>
      <trkpt lat="46.15852" lon="4.80215">
        <ele>176.06</ele>
        <time>2012-09-06T12:34:52Z</time>
      </trkpt>
      <trkpt lat="46.15856" lon="4.80226">
        <ele>175.58</ele>
        <time>2012-09-06T12:34:54Z</time>
      </trkpt>
      <trkpt lat="46.15858" lon="4.80232">
        <ele>175.1</ele>
        <time>2012-09-06T12:34:55Z</time>
      </trkpt>
      <trkpt lat="46.15861" lon="4.80236">
        <ele>175.1</ele>
        <time>2012-09-06T12:34:56Z</time>
      </trkpt>
      <trkpt lat="46.15887" lon="4.80282">
        <ele>175.1</ele>
        <time>2012-09-06T12:35:08Z</time>
      </trkpt>
      <trkpt lat="46.15903" lon="4.80327">
        <ele>175.58</ele>
        <time>2012-09-06T12:35:20Z</time>
      </trkpt>
      <trkpt lat="46.15905" lon="4.80328">
        <ele>175.58</ele>
        <time>2012-09-06T12:35:21Z</time>
      </trkpt>
      <trkpt lat="46.15907" lon="4.80328">
        <ele>176.06</ele>
        <time>2012-09-06T12:35:22Z</time>
      </trkpt>
      <trkpt lat="46.15909" lon="4.80327">
        <ele>175.58</ele>
        <time>2012-09-06T12:35:23Z</time>
      </trkpt>
      <trkpt lat="46.15911" lon="4.80325">
        <ele>176.06</ele>
        <time>2012-09-06T12:35:24Z</time>
      </trkpt>
      <trkpt lat="46.15938" lon="4.80291">
        <ele>175.58</ele>
        <time>2012-09-06T12:35:37Z</time>
      </trkpt>
      <trkpt lat="46.15964" lon="4.80259">
        <ele>176.06</ele>
        <time>2012-09-06T12:35:48Z</time>
      </trkpt>
      <trkpt lat="46.15993" lon="4.80212">
        <ele>176.06</ele>
        <time>2012-09-06T12:36:02Z</time>
      </trkpt>
      <trkpt lat="46.16025" lon="4.80158">
        <ele>176.06</ele>
        <time>2012-09-06T12:36:17Z</time>
      </trkpt>
      <trkpt lat="46.16053" lon="4.80113">
        <ele>175.58</ele>
        <time>2012-09-06T12:36:31Z</time>
      </trkpt>
      <trkpt lat="46.16054" lon="4.8011">
        <ele>175.58</ele>
        <time>2012-09-06T12:36:32Z</time>
      </trkpt>
      <trkpt lat="46.16055" lon="4.80108">
        <ele>175.58</ele>
        <time>2012-09-06T12:36:33Z</time>
      </trkpt>
      <trkpt lat="46.1606" lon="4.80097">
        <ele>176.06</ele>
        <time>2012-09-06T12:36:42Z</time>
      </trkpt>
      <trkpt lat="46.16068" lon="4.80082">
        <ele>177.5</ele>
        <time>2012-09-06T12:36:50Z</time>
      </trkpt>
      <trkpt lat="46.1607" lon="4.80081">
        <ele>176.06</ele>
        <time>2012-09-06T12:36:51Z</time>
      </trkpt>
      <trkpt lat="46.16078" lon="4.80081">
        <ele>175.58</ele>
        <time>2012-09-06T12:36:57Z</time>
      </trkpt>
      <trkpt lat="46.16087" lon="4.80067">
        <ele>175.58</ele>
        <time>2012-09-06T12:37:04Z</time>
      </trkpt>
      <trkpt lat="46.16105" lon="4.80032">
        <ele>175.58</ele>
        <time>2012-09-06T12:37:18Z</time>
      </trkpt>
      <trkpt lat="46.1611" lon="4.80024">
        <ele>175.58</ele>
        <time>2012-09-06T12:37:21Z</time>
      </trkpt>
      <trkpt lat="46.16133" lon="4.79984">
        <ele>175.58</ele>
        <time>2012-09-06T12:37:35Z</time>
      </trkpt>
      <trkpt lat="46.16159" lon="4.79932">
        <ele>175.58</ele>
        <time>2012-09-06T12:37:46Z</time>
      </trkpt>
      <trkpt lat="46.16177" lon="4.79902">
        <ele>175.58</ele>
        <time>2012-09-06T12:37:53Z</time>
      </trkpt>
      <trkpt lat="46.16212" lon="4.79836">
        <ele>175.58</ele>
        <time>2012-09-06T12:38:08Z</time>
      </trkpt>
      <trkpt lat="46.16227" lon="4.79808">
        <ele>175.58</ele>
        <time>2012-09-06T12:38:19Z</time>
      </trkpt>
      <trkpt lat="46.16248" lon="4.79769">
        <ele>175.58</ele>
        <time>2012-09-06T12:38:29Z</time>
      </trkpt>
      <trkpt lat="46.16266" lon="4.79739">
        <ele>175.58</ele>
        <time>2012-09-06T12:38:41Z</time>
      </trkpt>
      <trkpt lat="46.16296" lon="4.79681">
        <ele>175.58</ele>
        <time>2012-09-06T12:38:55Z</time>
      </trkpt>
      <trkpt lat="46.1632" lon="4.79627">
        <ele>175.58</ele>
        <time>2012-09-06T12:39:07Z</time>
      </trkpt>
      <trkpt lat="46.16328" lon="4.79607">
        <ele>175.58</ele>
        <time>2012-09-06T12:39:11Z</time>
      </trkpt>
      <trkpt lat="46.16329" lon="4.79602">
        <ele>175.58</ele>
        <time>2012-09-06T12:39:12Z</time>
      </trkpt>
      <trkpt lat="46.16331" lon="4.79597">
        <ele>175.58</ele>
        <time>2012-09-06T12:39:13Z</time>
      </trkpt>
      <trkpt lat="46.16333" lon="4.79593">
        <ele>175.58</ele>
        <time>2012-09-06T12:39:14Z</time>
      </trkpt>
      <trkpt lat="46.16334" lon="4.79588">
        <ele>175.1</ele>
        <time>2012-09-06T12:39:15Z</time>
      </trkpt>
      <trkpt lat="46.16341" lon="4.79557">
        <ele>175.1</ele>
        <time>2012-09-06T12:39:21Z</time>
      </trkpt>
      <trkpt lat="46.16343" lon="4.79551">
        <ele>175.1</ele>
        <time>2012-09-06T12:39:22Z</time>
      </trkpt>
      <trkpt lat="46.16351" lon="4.79528">
        <ele>175.1</ele>
        <time>2012-09-06T12:39:26Z</time>
      </trkpt>
      <trkpt lat="46.16383" lon="4.79463">
        <ele>175.1</ele>
        <time>2012-09-06T12:39:41Z</time>
      </trkpt>
      <trkpt lat="46.16398" lon="4.79434">
        <ele>174.62</ele>
        <time>2012-09-06T12:39:49Z</time>
      </trkpt>
      <trkpt lat="46.16398" lon="4.79432">
        <ele>174.62</ele>
        <time>2012-09-06T12:39:50Z</time>
      </trkpt>
      <trkpt lat="46.16399" lon="4.7943">
        <ele>175.1</ele>
        <time>2012-09-06T12:39:51Z</time>
      </trkpt>
      <trkpt lat="46.16399" lon="4.79427">
        <ele>174.62</ele>
        <time>2012-09-06T12:39:52Z</time>
      </trkpt>
      <trkpt lat="46.164" lon="4.79425">
        <ele>175.1</ele>
        <time>2012-09-06T12:39:53Z</time>
      </trkpt>
      <trkpt lat="46.16401" lon="4.79424">
        <ele>175.1</ele>
        <time>2012-09-06T12:39:54Z</time>
      </trkpt>
      <trkpt lat="46.16409" lon="4.79412">
        <ele>175.1</ele>
        <time>2012-09-06T12:40:02Z</time>
      </trkpt>
      <trkpt lat="46.16411" lon="4.79412">
        <ele>175.58</ele>
        <time>2012-09-06T12:40:03Z</time>
      </trkpt>
      <trkpt lat="46.16412" lon="4.79412">
        <ele>175.58</ele>
        <time>2012-09-06T12:40:04Z</time>
      </trkpt>
      <trkpt lat="46.16414" lon="4.79415">
        <ele>175.58</ele>
        <time>2012-09-06T12:40:11Z</time>
      </trkpt>
      <trkpt lat="46.16416" lon="4.79418">
        <ele>175.1</ele>
        <time>2012-09-06T12:40:27Z</time>
      </trkpt>
      <trkpt lat="46.16414" lon="4.79418">
        <ele>175.1</ele>
        <time>2012-09-06T12:41:01Z</time>
      </trkpt>
      <trkpt lat="46.16415" lon="4.79418">
        <ele>175.1</ele>
        <time>2012-09-06T12:41:30Z</time>
      </trkpt>
      <trkpt lat="46.16417" lon="4.79417">
        <ele>175.1</ele>
        <time>2012-09-06T12:41:59Z</time>
      </trkpt>
      <trkpt lat="46.16417" lon="4.79416">
        <ele>175.1</ele>
        <time>2012-09-06T12:42:00Z</time>
      </trkpt>
      <trkpt lat="46.16417" lon="4.79411">
        <ele>175.1</ele>
        <time>2012-09-06T12:42:11Z</time>
      </trkpt>
      <trkpt lat="46.16417" lon="4.79406">
        <ele>175.1</ele>
        <time>2012-09-06T12:42:13Z</time>
      </trkpt>
      <trkpt lat="46.16418" lon="4.79404">
        <ele>175.1</ele>
        <time>2012-09-06T12:42:14Z</time>
      </trkpt>
      <trkpt lat="46.16419" lon="4.79402">
        <ele>175.1</ele>
        <time>2012-09-06T12:42:15Z</time>
      </trkpt>
      <trkpt lat="46.16438" lon="4.79365">
        <ele>175.1</ele>
        <time>2012-09-06T12:42:30Z</time>
      </trkpt>
      <trkpt lat="46.16452" lon="4.79343">
        <ele>175.1</ele>
        <time>2012-09-06T12:42:41Z</time>
      </trkpt>
      <trkpt lat="46.16453" lon="4.7934">
        <ele>175.1</ele>
        <time>2012-09-06T12:42:43Z</time>
      </trkpt>
      <trkpt lat="46.16452" lon="4.79338">
        <ele>175.1</ele>
        <time>2012-09-06T12:42:44Z</time>
      </trkpt>
      <trkpt lat="46.16452" lon="4.79335">
        <ele>175.1</ele>
        <time>2012-09-06T12:42:45Z</time>
      </trkpt>
      <trkpt lat="46.16453" lon="4.79332">
        <ele>175.1</ele>
        <time>2012-09-06T12:42:46Z</time>
      </trkpt>
      <trkpt lat="46.16454" lon="4.79329">
        <ele>175.1</ele>
        <time>2012-09-06T12:42:47Z</time>
      </trkpt>
      <trkpt lat="46.16456" lon="4.79326">
        <ele>175.1</ele>
        <time>2012-09-06T12:42:48Z</time>
      </trkpt>
      <trkpt lat="46.16478" lon="4.79285">
        <ele>174.62</ele>
        <time>2012-09-06T12:42:59Z</time>
      </trkpt>
      <trkpt lat="46.16478" lon="4.79282">
        <ele>175.1</ele>
        <time>2012-09-06T12:43:00Z</time>
      </trkpt>
      <trkpt lat="46.16478" lon="4.79279">
        <ele>174.62</ele>
        <time>2012-09-06T12:43:01Z</time>
      </trkpt>
      <trkpt lat="46.16479" lon="4.79276">
        <ele>174.62</ele>
        <time>2012-09-06T12:43:02Z</time>
      </trkpt>
      <trkpt lat="46.1648" lon="4.79273">
        <ele>174.62</ele>
        <time>2012-09-06T12:43:03Z</time>
      </trkpt>
      <trkpt lat="46.16481" lon="4.7927">
        <ele>175.1</ele>
        <time>2012-09-06T12:43:04Z</time>
      </trkpt>
      <trkpt lat="46.16497" lon="4.79233">
        <ele>175.1</ele>
        <time>2012-09-06T12:43:15Z</time>
      </trkpt>
      <trkpt lat="46.16503" lon="4.79213">
        <ele>174.14</ele>
        <time>2012-09-06T12:43:21Z</time>
      </trkpt>
      <trkpt lat="46.16502" lon="4.79211">
        <ele>174.14</ele>
        <time>2012-09-06T12:43:22Z</time>
      </trkpt>
      <trkpt lat="46.16501" lon="4.79212">
        <ele>174.14</ele>
        <time>2012-09-06T12:43:23Z</time>
      </trkpt>
      <trkpt lat="46.16504" lon="4.79217">
        <ele>174.14</ele>
        <time>2012-09-06T12:43:31Z</time>
      </trkpt>
      <trkpt lat="46.16503" lon="4.79219">
        <ele>174.62</ele>
        <time>2012-09-06T12:43:32Z</time>
      </trkpt>
      <trkpt lat="46.16503" lon="4.79221">
        <ele>174.62</ele>
        <time>2012-09-06T12:43:33Z</time>
      </trkpt>
      <trkpt lat="46.16502" lon="4.79223">
        <ele>174.62</ele>
        <time>2012-09-06T12:43:34Z</time>
      </trkpt>
      <trkpt lat="46.16501" lon="4.79226">
        <ele>174.62</ele>
        <time>2012-09-06T12:43:35Z</time>
      </trkpt>
      <trkpt lat="46.16492" lon="4.79246">
        <ele>175.1</ele>
        <time>2012-09-06T12:43:43Z</time>
      </trkpt>
      <trkpt lat="46.16492" lon="4.79249">
        <ele>175.1</ele>
        <time>2012-09-06T12:43:44Z</time>
      </trkpt>
      <trkpt lat="46.16493" lon="4.79251">
        <ele>175.1</ele>
        <time>2012-09-06T12:43:45Z</time>
      </trkpt>
      <trkpt lat="46.16494" lon="4.79253">
        <ele>175.1</ele>
        <time>2012-09-06T12:43:47Z</time>
      </trkpt>
      <trkpt lat="46.16495" lon="4.79253">
        <ele>175.1</ele>
        <time>2012-09-06T12:43:48Z</time>
      </trkpt>
      <trkpt lat="46.16497" lon="4.79252">
        <ele>175.1</ele>
        <time>2012-09-06T12:43:49Z</time>
      </trkpt>
      <trkpt lat="46.16498" lon="4.7925">
        <ele>175.1</ele>
        <time>2012-09-06T12:43:50Z</time>
      </trkpt>
      <trkpt lat="46.16498" lon="4.79248">
        <ele>175.1</ele>
        <time>2012-09-06T12:43:59Z</time>
      </trkpt>
      <trkpt lat="46.16498" lon="4.79248">
        <ele>175.1</ele>
        <time>2012-09-06T12:44:20Z</time>
      </trkpt>
      <trkpt lat="46.16499" lon="4.79249">
        <ele>175.1</ele>
        <time>2012-09-06T12:44:54Z</time>
      </trkpt>
      <trkpt lat="46.16498" lon="4.79249">
        <ele>175.1</ele>
        <time>2012-09-06T12:45:38Z</time>
      </trkpt>
      <trkpt lat="46.16496" lon="4.79249">
        <ele>175.1</ele>
        <time>2012-09-06T12:46:13Z</time>
      </trkpt>
      <trkpt lat="46.16496" lon="4.7925">
        <ele>175.1</ele>
        <time>2012-09-06T12:46:14Z</time>
      </trkpt>
      <trkpt lat="46.16495" lon="4.79252">
        <ele>174.62</ele>
        <time>2012-09-06T12:46:15Z</time>
      </trkpt>
      <trkpt lat="46.16496" lon="4.79253">
        <ele>175.1</ele>
        <time>2012-09-06T12:46:16Z</time>
      </trkpt>
      <trkpt lat="46.16496" lon="4.79255">
        <ele>175.1</ele>
        <time>2012-09-06T12:46:17Z</time>
      </trkpt>
      <trkpt lat="46.16497" lon="4.79256">
        <ele>174.62</ele>
        <time>2012-09-06T12:46:18Z</time>
      </trkpt>
      <trkpt lat="46.16503" lon="4.79266">
        <ele>174.14</ele>
        <time>2012-09-06T12:46:34Z</time>
      </trkpt>
      <trkpt lat="46.16503" lon="4.79267">
        <ele>173.66</ele>
        <time>2012-09-06T12:46:55Z</time>
      </trkpt>
      <trkpt lat="46.16503" lon="4.79267">
        <ele>175.58</ele>
        <time>2012-09-06T12:46:56Z</time>
      </trkpt>
      <trkpt lat="46.16496" lon="4.79255">
        <ele>174.62</ele>
        <time>2012-09-06T13:25:32Z</time>
      </trkpt>
      <trkpt lat="46.16494" lon="4.79253">
        <ele>174.62</ele>
        <time>2012-09-06T13:25:33Z</time>
      </trkpt>
      <trkpt lat="46.1651" lon="4.79222">
        <ele>176.06</ele>
        <time>2012-09-06T13:25:52Z</time>
      </trkpt>
      <trkpt lat="46.16515" lon="4.7921">
        <ele>177.02</ele>
        <time>2012-09-06T13:26:02Z</time>
      </trkpt>
      <trkpt lat="46.16515" lon="4.79203">
        <ele>177.5</ele>
        <time>2012-09-06T13:26:06Z</time>
      </trkpt>
      <trkpt lat="46.16515" lon="4.79197">
        <ele>177.5</ele>
        <time>2012-09-06T13:26:12Z</time>
      </trkpt>
      <trkpt lat="46.16515" lon="4.79193">
        <ele>177.5</ele>
        <time>2012-09-06T13:26:14Z</time>
      </trkpt>
      <trkpt lat="46.16514" lon="4.79188">
        <ele>177.5</ele>
        <time>2012-09-06T13:26:27Z</time>
      </trkpt>
      <trkpt lat="46.16512" lon="4.79162">
        <ele>176.54</ele>
        <time>2012-09-06T13:26:45Z</time>
      </trkpt>
      <trkpt lat="46.16513" lon="4.79156">
        <ele>176.54</ele>
        <time>2012-09-06T13:26:46Z</time>
      </trkpt>
      <trkpt lat="46.16516" lon="4.79143">
        <ele>175.58</ele>
        <time>2012-09-06T13:26:48Z</time>
      </trkpt>
      <trkpt lat="46.16548" lon="4.79051">
        <ele>174.62</ele>
        <time>2012-09-06T13:27:05Z</time>
      </trkpt>
      <trkpt lat="46.16579" lon="4.78998">
        <ele>174.62</ele>
        <time>2012-09-06T13:27:18Z</time>
      </trkpt>
      <trkpt lat="46.16589" lon="4.78981">
        <ele>168.85</ele>
        <time>2012-09-06T13:27:22Z</time>
      </trkpt>
      <trkpt lat="46.16591" lon="4.78977">
        <ele>179.42</ele>
        <time>2012-09-06T13:27:23Z</time>
      </trkpt>
      <trkpt lat="46.16595" lon="4.78969">
        <ele>175.1</ele>
        <time>2012-09-06T13:27:25Z</time>
      </trkpt>
      <trkpt lat="46.16597" lon="4.78965">
        <ele>175.1</ele>
        <time>2012-09-06T13:27:26Z</time>
      </trkpt>
      <trkpt lat="46.16636" lon="4.78892">
        <ele>174.62</ele>
        <time>2012-09-06T13:27:42Z</time>
      </trkpt>
      <trkpt lat="46.16646" lon="4.78872">
        <ele>174.62</ele>
        <time>2012-09-06T13:27:46Z</time>
      </trkpt>
      <trkpt lat="46.16693" lon="4.7878">
        <ele>174.62</ele>
        <time>2012-09-06T13:28:04Z</time>
      </trkpt>
      <trkpt lat="46.16724" lon="4.78726">
        <ele>174.62</ele>
        <time>2012-09-06T13:28:15Z</time>
      </trkpt>
      <trkpt lat="46.16764" lon="4.78686">
        <ele>174.62</ele>
        <time>2012-09-06T13:28:26Z</time>
      </trkpt>
      <trkpt lat="46.16768" lon="4.78682">
        <ele>174.62</ele>
        <time>2012-09-06T13:28:27Z</time>
      </trkpt>
      <trkpt lat="46.16798" lon="4.78646">
        <ele>174.62</ele>
        <time>2012-09-06T13:28:36Z</time>
      </trkpt>
      <trkpt lat="46.1683" lon="4.78614">
        <ele>174.62</ele>
        <time>2012-09-06T13:28:45Z</time>
      </trkpt>
      <trkpt lat="46.16834" lon="4.78612">
        <ele>174.62</ele>
        <time>2012-09-06T13:28:46Z</time>
      </trkpt>
      <trkpt lat="46.16896" lon="4.78578">
        <ele>174.62</ele>
        <time>2012-09-06T13:29:01Z</time>
      </trkpt>
      <trkpt lat="46.16956" lon="4.78531">
        <ele>174.62</ele>
        <time>2012-09-06T13:29:17Z</time>
      </trkpt>
      <trkpt lat="46.16967" lon="4.78521">
        <ele>174.62</ele>
        <time>2012-09-06T13:29:20Z</time>
      </trkpt>
      <trkpt lat="46.16986" lon="4.78508">
        <ele>174.62</ele>
        <time>2012-09-06T13:29:25Z</time>
      </trkpt>
      <trkpt lat="46.17034" lon="4.78484">
        <ele>174.62</ele>
        <time>2012-09-06T13:29:39Z</time>
      </trkpt>
      <trkpt lat="46.17078" lon="4.78456">
        <ele>174.62</ele>
        <time>2012-09-06T13:29:52Z</time>
      </trkpt>
      <trkpt lat="46.1713" lon="4.78424">
        <ele>175.1</ele>
        <time>2012-09-06T13:30:07Z</time>
      </trkpt>
      <trkpt lat="46.17179" lon="4.78394">
        <ele>174.62</ele>
        <time>2012-09-06T13:30:21Z</time>
      </trkpt>
      <trkpt lat="46.17231" lon="4.78366">
        <ele>174.62</ele>
        <time>2012-09-06T13:30:34Z</time>
      </trkpt>
      <trkpt lat="46.17275" lon="4.78341">
        <ele>174.62</ele>
        <time>2012-09-06T13:30:47Z</time>
      </trkpt>
      <trkpt lat="46.17313" lon="4.78321">
        <ele>175.1</ele>
        <time>2012-09-06T13:30:59Z</time>
      </trkpt>
      <trkpt lat="46.17356" lon="4.78304">
        <ele>174.62</ele>
        <time>2012-09-06T13:31:12Z</time>
      </trkpt>
      <trkpt lat="46.174" lon="4.78294">
        <ele>174.62</ele>
        <time>2012-09-06T13:31:24Z</time>
      </trkpt>
      <trkpt lat="46.17452" lon="4.78281">
        <ele>174.62</ele>
        <time>2012-09-06T13:31:37Z</time>
      </trkpt>
      <trkpt lat="46.17491" lon="4.78271">
        <ele>174.62</ele>
        <time>2012-09-06T13:31:47Z</time>
      </trkpt>
      <trkpt lat="46.17555" lon="4.78256">
        <ele>174.62</ele>
        <time>2012-09-06T13:32:01Z</time>
      </trkpt>
      <trkpt lat="46.17605" lon="4.7825">
        <ele>174.62</ele>
        <time>2012-09-06T13:32:13Z</time>
      </trkpt>
      <trkpt lat="46.17654" lon="4.78242">
        <ele>174.62</ele>
        <time>2012-09-06T13:32:26Z</time>
      </trkpt>
      <trkpt lat="46.17691" lon="4.78231">
        <ele>174.62</ele>
        <time>2012-09-06T13:32:36Z</time>
      </trkpt>
      <trkpt lat="46.17737" lon="4.78227">
        <ele>174.62</ele>
        <time>2012-09-06T13:32:47Z</time>
      </trkpt>
      <trkpt lat="46.17799" lon="4.78221">
        <ele>174.62</ele>
        <time>2012-09-06T13:33:01Z</time>
      </trkpt>
      <trkpt lat="46.17866" lon="4.78219">
        <ele>174.14</ele>
        <time>2012-09-06T13:33:16Z</time>
      </trkpt>
      <trkpt lat="46.17883" lon="4.78217">
        <ele>174.14</ele>
        <time>2012-09-06T13:33:20Z</time>
      </trkpt>
      <trkpt lat="46.17887" lon="4.78217">
        <ele>174.14</ele>
        <time>2012-09-06T13:33:21Z</time>
      </trkpt>
      <trkpt lat="46.17934" lon="4.78213">
        <ele>174.14</ele>
        <time>2012-09-06T13:33:32Z</time>
      </trkpt>
      <trkpt lat="46.17986" lon="4.78209">
        <ele>174.62</ele>
        <time>2012-09-06T13:33:45Z</time>
      </trkpt>
      <trkpt lat="46.1799" lon="4.78209">
        <ele>174.62</ele>
        <time>2012-09-06T13:33:46Z</time>
      </trkpt>
      <trkpt lat="46.18035" lon="4.78205">
        <ele>174.14</ele>
        <time>2012-09-06T13:33:57Z</time>
      </trkpt>
      <trkpt lat="46.18095" lon="4.78204">
        <ele>174.14</ele>
        <time>2012-09-06T13:34:11Z</time>
      </trkpt>
      <trkpt lat="46.18123" lon="4.78204">
        <ele>174.62</ele>
        <time>2012-09-06T13:34:17Z</time>
      </trkpt>
      <trkpt lat="46.18127" lon="4.78204">
        <ele>174.62</ele>
        <time>2012-09-06T13:34:18Z</time>
      </trkpt>
      <trkpt lat="46.18186" lon="4.78201">
        <ele>174.62</ele>
        <time>2012-09-06T13:34:31Z</time>
      </trkpt>
      <trkpt lat="46.18229" lon="4.78197">
        <ele>174.62</ele>
        <time>2012-09-06T13:34:42Z</time>
      </trkpt>
      <trkpt lat="46.18274" lon="4.78194">
        <ele>174.14</ele>
        <time>2012-09-06T13:34:53Z</time>
      </trkpt>
      <trkpt lat="46.1833" lon="4.78194">
        <ele>174.14</ele>
        <time>2012-09-06T13:35:05Z</time>
      </trkpt>
      <trkpt lat="46.18338" lon="4.78193">
        <ele>174.14</ele>
        <time>2012-09-06T13:35:07Z</time>
      </trkpt>
      <trkpt lat="46.18387" lon="4.78192">
        <ele>174.14</ele>
        <time>2012-09-06T13:35:19Z</time>
      </trkpt>
      <trkpt lat="46.18441" lon="4.78192">
        <ele>174.14</ele>
        <time>2012-09-06T13:35:32Z</time>
      </trkpt>
      <trkpt lat="46.18464" lon="4.78191">
        <ele>174.14</ele>
        <time>2012-09-06T13:35:43Z</time>
      </trkpt>
      <trkpt lat="46.18495" lon="4.78188">
        <ele>174.14</ele>
        <time>2012-09-06T13:35:54Z</time>
      </trkpt>
      <trkpt lat="46.18529" lon="4.78182">
        <ele>173.66</ele>
        <time>2012-09-06T13:36:05Z</time>
      </trkpt>
      <trkpt lat="46.18574" lon="4.78179">
        <ele>173.66</ele>
        <time>2012-09-06T13:36:17Z</time>
      </trkpt>
      <trkpt lat="46.18629" lon="4.78169">
        <ele>173.66</ele>
        <time>2012-09-06T13:36:30Z</time>
      </trkpt>
      <trkpt lat="46.18665" lon="4.78163">
        <ele>174.14</ele>
        <time>2012-09-06T13:36:40Z</time>
      </trkpt>
      <trkpt lat="46.18713" lon="4.78155">
        <ele>173.66</ele>
        <time>2012-09-06T13:36:52Z</time>
      </trkpt>
      <trkpt lat="46.18747" lon="4.7815">
        <ele>173.66</ele>
        <time>2012-09-06T13:37:00Z</time>
      </trkpt>
      <trkpt lat="46.18754" lon="4.78147">
        <ele>173.66</ele>
        <time>2012-09-06T13:37:02Z</time>
      </trkpt>
      <trkpt lat="46.18772" lon="4.7814">
        <ele>173.66</ele>
        <time>2012-09-06T13:37:06Z</time>
      </trkpt>
      <trkpt lat="46.18811" lon="4.78118">
        <ele>173.66</ele>
        <time>2012-09-06T13:37:17Z</time>
      </trkpt>
      <trkpt lat="46.18833" lon="4.78121">
        <ele>173.17</ele>
        <time>2012-09-06T13:37:27Z</time>
      </trkpt>
      <trkpt lat="46.18866" lon="4.78132">
        <ele>173.17</ele>
        <time>2012-09-06T13:37:38Z</time>
      </trkpt>
      <trkpt lat="46.18908" lon="4.78149">
        <ele>173.66</ele>
        <time>2012-09-06T13:37:51Z</time>
      </trkpt>
      <trkpt lat="46.1892" lon="4.78154">
        <ele>173.17</ele>
        <time>2012-09-06T13:38:02Z</time>
      </trkpt>
      <trkpt lat="46.1892" lon="4.78156">
        <ele>173.17</ele>
        <time>2012-09-06T13:38:24Z</time>
      </trkpt>
      <trkpt lat="46.18929" lon="4.78156">
        <ele>173.17</ele>
        <time>2012-09-06T13:38:43Z</time>
      </trkpt>
      <trkpt lat="46.18971" lon="4.7818">
        <ele>173.17</ele>
        <time>2012-09-06T13:38:58Z</time>
      </trkpt>
      <trkpt lat="46.19012" lon="4.78218">
        <ele>173.17</ele>
        <time>2012-09-06T13:39:12Z</time>
      </trkpt>
      <trkpt lat="46.19054" lon="4.7826">
        <ele>173.17</ele>
        <time>2012-09-06T13:39:28Z</time>
      </trkpt>
      <trkpt lat="46.19086" lon="4.7829">
        <ele>173.17</ele>
        <time>2012-09-06T13:39:40Z</time>
      </trkpt>
      <trkpt lat="46.19127" lon="4.7833">
        <ele>173.66</ele>
        <time>2012-09-06T13:39:56Z</time>
      </trkpt>
      <trkpt lat="46.19173" lon="4.78376">
        <ele>173.17</ele>
        <time>2012-09-06T13:40:13Z</time>
      </trkpt>
      <trkpt lat="46.19222" lon="4.78424">
        <ele>173.17</ele>
        <time>2012-09-06T13:40:32Z</time>
      </trkpt>
      <trkpt lat="46.1925" lon="4.78451">
        <ele>173.17</ele>
        <time>2012-09-06T13:40:44Z</time>
      </trkpt>
      <trkpt lat="46.19289" lon="4.78491">
        <ele>173.17</ele>
        <time>2012-09-06T13:41:00Z</time>
      </trkpt>
      <trkpt lat="46.19324" lon="4.78525">
        <ele>173.17</ele>
        <time>2012-09-06T13:41:14Z</time>
      </trkpt>
      <trkpt lat="46.19361" lon="4.78561">
        <ele>172.69</ele>
        <time>2012-09-06T13:41:28Z</time>
      </trkpt>
      <trkpt lat="46.19399" lon="4.78601">
        <ele>172.69</ele>
        <time>2012-09-06T13:41:43Z</time>
      </trkpt>
      <trkpt lat="46.19439" lon="4.78644">
        <ele>173.17</ele>
        <time>2012-09-06T13:41:59Z</time>
      </trkpt>
      <trkpt lat="46.19471" lon="4.78681">
        <ele>172.69</ele>
        <time>2012-09-06T13:42:13Z</time>
      </trkpt>
      <trkpt lat="46.19508" lon="4.78726">
        <ele>172.69</ele>
        <time>2012-09-06T13:42:30Z</time>
      </trkpt>
      <trkpt lat="46.19541" lon="4.78765">
        <ele>172.69</ele>
        <time>2012-09-06T13:42:45Z</time>
      </trkpt>
      <trkpt lat="46.1957" lon="4.788">
        <ele>172.69</ele>
        <time>2012-09-06T13:42:59Z</time>
      </trkpt>
      <trkpt lat="46.19597" lon="4.78828">
        <ele>172.69</ele>
        <time>2012-09-06T13:43:11Z</time>
      </trkpt>
      <trkpt lat="46.19632" lon="4.78869">
        <ele>172.69</ele>
        <time>2012-09-06T13:43:25Z</time>
      </trkpt>
      <trkpt lat="46.19669" lon="4.78914">
        <ele>172.69</ele>
        <time>2012-09-06T13:43:39Z</time>
      </trkpt>
      <trkpt lat="46.19708" lon="4.78963">
        <ele>172.21</ele>
        <time>2012-09-06T13:43:54Z</time>
      </trkpt>
      <trkpt lat="46.19724" lon="4.78985">
        <ele>172.21</ele>
        <time>2012-09-06T13:44:01Z</time>
      </trkpt>
      <trkpt lat="46.19726" lon="4.78986">
        <ele>172.21</ele>
        <time>2012-09-06T13:44:02Z</time>
      </trkpt>
      <trkpt lat="46.19727" lon="4.78988">
        <ele>172.21</ele>
        <time>2012-09-06T13:44:03Z</time>
      </trkpt>
      <trkpt lat="46.19729" lon="4.78989">
        <ele>172.21</ele>
        <time>2012-09-06T13:44:04Z</time>
      </trkpt>
      <trkpt lat="46.19731" lon="4.78991">
        <ele>172.21</ele>
        <time>2012-09-06T13:44:05Z</time>
      </trkpt>
      <trkpt lat="46.19733" lon="4.78993">
        <ele>172.69</ele>
        <time>2012-09-06T13:44:06Z</time>
      </trkpt>
      <trkpt lat="46.19764" lon="4.79027">
        <ele>172.21</ele>
        <time>2012-09-06T13:44:18Z</time>
      </trkpt>
      <trkpt lat="46.1979" lon="4.79058">
        <ele>172.21</ele>
        <time>2012-09-06T13:44:28Z</time>
      </trkpt>
      <trkpt lat="46.19819" lon="4.79092">
        <ele>172.21</ele>
        <time>2012-09-06T13:44:39Z</time>
      </trkpt>
      <trkpt lat="46.19853" lon="4.79131">
        <ele>172.21</ele>
        <time>2012-09-06T13:44:51Z</time>
      </trkpt>
      <trkpt lat="46.19883" lon="4.79169">
        <ele>172.21</ele>
        <time>2012-09-06T13:45:01Z</time>
      </trkpt>
      <trkpt lat="46.19913" lon="4.79205">
        <ele>172.21</ele>
        <time>2012-09-06T13:45:11Z</time>
      </trkpt>
      <trkpt lat="46.19952" lon="4.79252">
        <ele>172.21</ele>
        <time>2012-09-06T13:45:24Z</time>
      </trkpt>
      <trkpt lat="46.19988" lon="4.79296">
        <ele>172.21</ele>
        <time>2012-09-06T13:45:36Z</time>
      </trkpt>
      <trkpt lat="46.20037" lon="4.79354">
        <ele>172.21</ele>
        <time>2012-09-06T13:45:51Z</time>
      </trkpt>
      <trkpt lat="46.201" lon="4.79428">
        <ele>172.21</ele>
        <time>2012-09-06T13:46:10Z</time>
      </trkpt>
      <trkpt lat="46.20138" lon="4.7947">
        <ele>172.21</ele>
        <time>2012-09-06T13:46:21Z</time>
      </trkpt>
      <trkpt lat="46.20163" lon="4.79494">
        <ele>172.21</ele>
        <time>2012-09-06T13:46:28Z</time>
      </trkpt>
      <trkpt lat="46.20167" lon="4.79496">
        <ele>172.21</ele>
        <time>2012-09-06T13:46:29Z</time>
      </trkpt>
      <trkpt lat="46.2017" lon="4.79499">
        <ele>172.21</ele>
        <time>2012-09-06T13:46:30Z</time>
      </trkpt>
      <trkpt lat="46.20173" lon="4.795">
        <ele>172.69</ele>
        <time>2012-09-06T13:46:31Z</time>
      </trkpt>
      <trkpt lat="46.20175" lon="4.79501">
        <ele>172.69</ele>
        <time>2012-09-06T13:46:32Z</time>
      </trkpt>
      <trkpt lat="46.20177" lon="4.79503">
        <ele>172.69</ele>
        <time>2012-09-06T13:46:33Z</time>
      </trkpt>
      <trkpt lat="46.20216" lon="4.79538">
        <ele>171.73</ele>
        <time>2012-09-06T13:46:46Z</time>
      </trkpt>
      <trkpt lat="46.20241" lon="4.79553">
        <ele>171.25</ele>
        <time>2012-09-06T13:46:52Z</time>
      </trkpt>
      <trkpt lat="46.20304" lon="4.7957">
        <ele>171.25</ele>
        <time>2012-09-06T13:47:07Z</time>
      </trkpt>
      <trkpt lat="46.20373" lon="4.79577">
        <ele>171.25</ele>
        <time>2012-09-06T13:47:25Z</time>
      </trkpt>
      <trkpt lat="46.20438" lon="4.7957">
        <ele>171.73</ele>
        <time>2012-09-06T13:47:43Z</time>
      </trkpt>
      <trkpt lat="46.20479" lon="4.79559">
        <ele>171.25</ele>
        <time>2012-09-06T13:47:57Z</time>
      </trkpt>
      <trkpt lat="46.20479" lon="4.79558">
        <ele>171.25</ele>
        <time>2012-09-06T13:48:18Z</time>
      </trkpt>
      <trkpt lat="46.20479" lon="4.79558">
        <ele>171.25</ele>
        <time>2012-09-06T13:48:33Z</time>
      </trkpt>
      <trkpt lat="46.20477" lon="4.79559">
        <ele>171.25</ele>
        <time>2012-09-06T13:48:35Z</time>
      </trkpt>
      <trkpt lat="46.20476" lon="4.7956">
        <ele>171.25</ele>
        <time>2012-09-06T13:48:36Z</time>
      </trkpt>
      <trkpt lat="46.20475" lon="4.7956">
        <ele>171.25</ele>
        <time>2012-09-06T13:48:37Z</time>
      </trkpt>
      <trkpt lat="46.20473" lon="4.7956">
        <ele>171.25</ele>
        <time>2012-09-06T13:48:38Z</time>
      </trkpt>
      <trkpt lat="46.20471" lon="4.79561">
        <ele>171.25</ele>
        <time>2012-09-06T13:48:39Z</time>
      </trkpt>
      <trkpt lat="46.20451" lon="4.79567">
        <ele>171.25</ele>
        <time>2012-09-06T13:48:48Z</time>
      </trkpt>
      <trkpt lat="46.20452" lon="4.79569">
        <ele>171.25</ele>
        <time>2012-09-06T13:48:50Z</time>
      </trkpt>
      <trkpt lat="46.20453" lon="4.79568">
        <ele>171.25</ele>
        <time>2012-09-06T13:49:04Z</time>
      </trkpt>
      <trkpt lat="46.20452" lon="4.79567">
        <ele>171.25</ele>
        <time>2012-09-06T13:49:28Z</time>
      </trkpt>
      <trkpt lat="46.20453" lon="4.79567">
        <ele>171.25</ele>
        <time>2012-09-06T13:49:32Z</time>
      </trkpt>
      <trkpt lat="46.20455" lon="4.79566">
        <ele>171.25</ele>
        <time>2012-09-06T13:49:33Z</time>
      </trkpt>
      <trkpt lat="46.20485" lon="4.79558">
        <ele>171.25</ele>
        <time>2012-09-06T13:49:45Z</time>
      </trkpt>
      <trkpt lat="46.20535" lon="4.79546">
        <ele>171.25</ele>
        <time>2012-09-06T13:49:59Z</time>
      </trkpt>
      <trkpt lat="46.20589" lon="4.79526">
        <ele>171.73</ele>
        <time>2012-09-06T13:50:15Z</time>
      </trkpt>
      <trkpt lat="46.20628" lon="4.79501">
        <ele>171.73</ele>
        <time>2012-09-06T13:50:29Z</time>
      </trkpt>
      <trkpt lat="46.20657" lon="4.79477">
        <ele>172.21</ele>
        <time>2012-09-06T13:50:41Z</time>
      </trkpt>
      <trkpt lat="46.20699" lon="4.79476">
        <ele>171.73</ele>
        <time>2012-09-06T13:50:55Z</time>
      </trkpt>
      <trkpt lat="46.20729" lon="4.79492">
        <ele>172.21</ele>
        <time>2012-09-06T13:51:07Z</time>
      </trkpt>
      <trkpt lat="46.20761" lon="4.79492">
        <ele>172.21</ele>
        <time>2012-09-06T13:51:19Z</time>
      </trkpt>
      <trkpt lat="46.20794" lon="4.79485">
        <ele>172.21</ele>
        <time>2012-09-06T13:51:32Z</time>
      </trkpt>
      <trkpt lat="46.2083" lon="4.79478">
        <ele>172.21</ele>
        <time>2012-09-06T13:51:44Z</time>
      </trkpt>
      <trkpt lat="46.2087" lon="4.79469">
        <ele>172.21</ele>
        <time>2012-09-06T13:51:57Z</time>
      </trkpt>
      <trkpt lat="46.20899" lon="4.79467">
        <ele>172.21</ele>
        <time>2012-09-06T13:52:09Z</time>
      </trkpt>
      <trkpt lat="46.2095" lon="4.79462">
        <ele>172.21</ele>
        <time>2012-09-06T13:52:25Z</time>
      </trkpt>
      <trkpt lat="46.21009" lon="4.79457">
        <ele>172.21</ele>
        <time>2012-09-06T13:52:41Z</time>
      </trkpt>
      <trkpt lat="46.21048" lon="4.79458">
        <ele>172.21</ele>
        <time>2012-09-06T13:52:52Z</time>
      </trkpt>
      <trkpt lat="46.21092" lon="4.79459">
        <ele>171.73</ele>
        <time>2012-09-06T13:53:06Z</time>
      </trkpt>
      <trkpt lat="46.21136" lon="4.79462">
        <ele>172.21</ele>
        <time>2012-09-06T13:53:20Z</time>
      </trkpt>
      <trkpt lat="46.21181" lon="4.79466">
        <ele>172.69</ele>
        <time>2012-09-06T13:53:34Z</time>
      </trkpt>
      <trkpt lat="46.21211" lon="4.79469">
        <ele>172.69</ele>
        <time>2012-09-06T13:53:45Z</time>
      </trkpt>
      <trkpt lat="46.21245" lon="4.79473">
        <ele>172.69</ele>
        <time>2012-09-06T13:53:56Z</time>
      </trkpt>
      <trkpt lat="46.21288" lon="4.79478">
        <ele>172.21</ele>
        <time>2012-09-06T13:54:10Z</time>
      </trkpt>
      <trkpt lat="46.21338" lon="4.79483">
        <ele>172.21</ele>
        <time>2012-09-06T13:54:26Z</time>
      </trkpt>
      <trkpt lat="46.21377" lon="4.79486">
        <ele>172.21</ele>
        <time>2012-09-06T13:54:38Z</time>
      </trkpt>
      <trkpt lat="46.21419" lon="4.79497">
        <ele>172.69</ele>
        <time>2012-09-06T13:54:51Z</time>
      </trkpt>
      <trkpt lat="46.21468" lon="4.79512">
        <ele>172.21</ele>
        <time>2012-09-06T13:55:06Z</time>
      </trkpt>
      <trkpt lat="46.21516" lon="4.79525">
        <ele>172.21</ele>
        <time>2012-09-06T13:55:21Z</time>
      </trkpt>
      <trkpt lat="46.21569" lon="4.79541">
        <ele>172.21</ele>
        <time>2012-09-06T13:55:38Z</time>
      </trkpt>
      <trkpt lat="46.21611" lon="4.79554">
        <ele>172.21</ele>
        <time>2012-09-06T13:55:52Z</time>
      </trkpt>
      <trkpt lat="46.21655" lon="4.79566">
        <ele>172.21</ele>
        <time>2012-09-06T13:56:05Z</time>
      </trkpt>
      <trkpt lat="46.21691" lon="4.79581">
        <ele>172.21</ele>
        <time>2012-09-06T13:56:17Z</time>
      </trkpt>
      <trkpt lat="46.2171" lon="4.79586">
        <ele>172.21</ele>
        <time>2012-09-06T13:56:25Z</time>
      </trkpt>
      <trkpt lat="46.2174" lon="4.79597">
        <ele>171.73</ele>
        <time>2012-09-06T13:56:38Z</time>
      </trkpt>
      <trkpt lat="46.21768" lon="4.7961">
        <ele>171.73</ele>
        <time>2012-09-06T13:56:52Z</time>
      </trkpt>
      <trkpt lat="46.21789" lon="4.7962">
        <ele>171.73</ele>
        <time>2012-09-06T13:57:02Z</time>
      </trkpt>
      <trkpt lat="46.21791" lon="4.79621">
        <ele>171.73</ele>
        <time>2012-09-06T13:57:03Z</time>
      </trkpt>
      <trkpt lat="46.21816" lon="4.79631">
        <ele>171.73</ele>
        <time>2012-09-06T13:57:15Z</time>
      </trkpt>
      <trkpt lat="46.21853" lon="4.79649">
        <ele>171.73</ele>
        <time>2012-09-06T13:57:28Z</time>
      </trkpt>
      <trkpt lat="46.21892" lon="4.79669">
        <ele>171.73</ele>
        <time>2012-09-06T13:57:40Z</time>
      </trkpt>
      <trkpt lat="46.21934" lon="4.79697">
        <ele>171.73</ele>
        <time>2012-09-06T13:57:55Z</time>
      </trkpt>
      <trkpt lat="46.21975" lon="4.79725">
        <ele>171.73</ele>
        <time>2012-09-06T13:58:09Z</time>
      </trkpt>
      <trkpt lat="46.2201" lon="4.7975">
        <ele>172.21</ele>
        <time>2012-09-06T13:58:22Z</time>
      </trkpt>
      <trkpt lat="46.22046" lon="4.79777">
        <ele>171.73</ele>
        <time>2012-09-06T13:58:35Z</time>
      </trkpt>
      <trkpt lat="46.22078" lon="4.79799">
        <ele>171.73</ele>
        <time>2012-09-06T13:58:47Z</time>
      </trkpt>
      <trkpt lat="46.22115" lon="4.7982">
        <ele>171.25</ele>
        <time>2012-09-06T13:58:59Z</time>
      </trkpt>
      <trkpt lat="46.22161" lon="4.79846">
        <ele>171.25</ele>
        <time>2012-09-06T13:59:14Z</time>
      </trkpt>
      <trkpt lat="46.22205" lon="4.79871">
        <ele>171.25</ele>
        <time>2012-09-06T13:59:29Z</time>
      </trkpt>
      <trkpt lat="46.22248" lon="4.79893">
        <ele>171.73</ele>
        <time>2012-09-06T13:59:44Z</time>
      </trkpt>
      <trkpt lat="46.22279" lon="4.79904">
        <ele>171.73</ele>
        <time>2012-09-06T13:59:55Z</time>
      </trkpt>
      <trkpt lat="46.22324" lon="4.79925">
        <ele>171.73</ele>
        <time>2012-09-06T14:00:10Z</time>
      </trkpt>
      <trkpt lat="46.22383" lon="4.79956">
        <ele>171.73</ele>
        <time>2012-09-06T14:00:29Z</time>
      </trkpt>
      <trkpt lat="46.22424" lon="4.79973">
        <ele>171.73</ele>
        <time>2012-09-06T14:00:42Z</time>
      </trkpt>
      <trkpt lat="46.22468" lon="4.79993">
        <ele>171.73</ele>
        <time>2012-09-06T14:00:55Z</time>
      </trkpt>
      <trkpt lat="46.22512" lon="4.80012">
        <ele>172.21</ele>
        <time>2012-09-06T14:01:09Z</time>
      </trkpt>
      <trkpt lat="46.22566" lon="4.80033">
        <ele>171.73</ele>
        <time>2012-09-06T14:01:24Z</time>
      </trkpt>
      <trkpt lat="46.22606" lon="4.80052">
        <ele>171.73</ele>
        <time>2012-09-06T14:01:36Z</time>
      </trkpt>
      <trkpt lat="46.22651" lon="4.80071">
        <ele>171.73</ele>
        <time>2012-09-06T14:01:49Z</time>
      </trkpt>
      <trkpt lat="46.22687" lon="4.80087">
        <ele>171.73</ele>
        <time>2012-09-06T14:02:01Z</time>
      </trkpt>
      <trkpt lat="46.2273" lon="4.80112">
        <ele>171.73</ele>
        <time>2012-09-06T14:02:16Z</time>
      </trkpt>
      <trkpt lat="46.22765" lon="4.80133">
        <ele>171.25</ele>
        <time>2012-09-06T14:02:28Z</time>
      </trkpt>
      <trkpt lat="46.2279" lon="4.80148">
        <ele>171.25</ele>
        <time>2012-09-06T14:02:38Z</time>
      </trkpt>
      <trkpt lat="46.22822" lon="4.80168">
        <ele>171.25</ele>
        <time>2012-09-06T14:02:50Z</time>
      </trkpt>
      <trkpt lat="46.22858" lon="4.80194">
        <ele>171.73</ele>
        <time>2012-09-06T14:03:03Z</time>
      </trkpt>
      <trkpt lat="46.22892" lon="4.80226">
        <ele>171.25</ele>
        <time>2012-09-06T14:03:16Z</time>
      </trkpt>
      <trkpt lat="46.22934" lon="4.80256">
        <ele>172.21</ele>
        <time>2012-09-06T14:03:31Z</time>
      </trkpt>
      <trkpt lat="46.22959" lon="4.80275">
        <ele>171.25</ele>
        <time>2012-09-06T14:03:43Z</time>
      </trkpt>
      <trkpt lat="46.2296" lon="4.80276">
        <ele>171.25</ele>
        <time>2012-09-06T14:03:44Z</time>
      </trkpt>
      <trkpt lat="46.22961" lon="4.80276">
        <ele>171.25</ele>
        <time>2012-09-06T14:03:45Z</time>
      </trkpt>
      <trkpt lat="46.22994" lon="4.80297">
        <ele>171.25</ele>
        <time>2012-09-06T14:03:57Z</time>
      </trkpt>
      <trkpt lat="46.23034" lon="4.80331">
        <ele>171.25</ele>
        <time>2012-09-06T14:04:10Z</time>
      </trkpt>
      <trkpt lat="46.23073" lon="4.80372">
        <ele>171.25</ele>
        <time>2012-09-06T14:04:22Z</time>
      </trkpt>
      <trkpt lat="46.23106" lon="4.80408">
        <ele>171.25</ele>
        <time>2012-09-06T14:04:34Z</time>
      </trkpt>
      <trkpt lat="46.23124" lon="4.80426">
        <ele>171.73</ele>
        <time>2012-09-06T14:04:40Z</time>
      </trkpt>
      <trkpt lat="46.23127" lon="4.80429">
        <ele>171.73</ele>
        <time>2012-09-06T14:04:41Z</time>
      </trkpt>
      <trkpt lat="46.23154" lon="4.80461">
        <ele>171.25</ele>
        <time>2012-09-06T14:04:51Z</time>
      </trkpt>
      <trkpt lat="46.23194" lon="4.80512">
        <ele>171.25</ele>
        <time>2012-09-06T14:05:04Z</time>
      </trkpt>
      <trkpt lat="46.23225" lon="4.80549">
        <ele>171.25</ele>
        <time>2012-09-06T14:05:15Z</time>
      </trkpt>
      <trkpt lat="46.23253" lon="4.80587">
        <ele>171.25</ele>
        <time>2012-09-06T14:05:27Z</time>
      </trkpt>
      <trkpt lat="46.23288" lon="4.80627">
        <ele>171.25</ele>
        <time>2012-09-06T14:05:42Z</time>
      </trkpt>
      <trkpt lat="46.23325" lon="4.80668">
        <ele>171.25</ele>
        <time>2012-09-06T14:05:57Z</time>
      </trkpt>
      <trkpt lat="46.2335" lon="4.80696">
        <ele>171.25</ele>
        <time>2012-09-06T14:06:10Z</time>
      </trkpt>
      <trkpt lat="46.23378" lon="4.80726">
        <ele>171.25</ele>
        <time>2012-09-06T14:06:23Z</time>
      </trkpt>
      <trkpt lat="46.23419" lon="4.80768">
        <ele>171.25</ele>
        <time>2012-09-06T14:06:38Z</time>
      </trkpt>
      <trkpt lat="46.23459" lon="4.80807">
        <ele>171.25</ele>
        <time>2012-09-06T14:06:51Z</time>
      </trkpt>
      <trkpt lat="46.23466" lon="4.80815">
        <ele>171.25</ele>
        <time>2012-09-06T14:07:00Z</time>
      </trkpt>
      <trkpt lat="46.23468" lon="4.80815">
        <ele>171.25</ele>
        <time>2012-09-06T14:07:01Z</time>
      </trkpt>
      <trkpt lat="46.2347" lon="4.80816">
        <ele>171.73</ele>
        <time>2012-09-06T14:07:03Z</time>
      </trkpt>
      <trkpt lat="46.23489" lon="4.80839">
        <ele>171.73</ele>
        <time>2012-09-06T14:07:16Z</time>
      </trkpt>
      <trkpt lat="46.2352" lon="4.80865">
        <ele>172.21</ele>
        <time>2012-09-06T14:07:29Z</time>
      </trkpt>
      <trkpt lat="46.23548" lon="4.80892">
        <ele>171.73</ele>
        <time>2012-09-06T14:07:42Z</time>
      </trkpt>
      <trkpt lat="46.23551" lon="4.80893">
        <ele>171.73</ele>
        <time>2012-09-06T14:07:44Z</time>
      </trkpt>
      <trkpt lat="46.2358" lon="4.80918">
        <ele>171.73</ele>
        <time>2012-09-06T14:07:59Z</time>
      </trkpt>
      <trkpt lat="46.23622" lon="4.80953">
        <ele>171.73</ele>
        <time>2012-09-06T14:08:15Z</time>
      </trkpt>
      <trkpt lat="46.23668" lon="4.80984">
        <ele>171.73</ele>
        <time>2012-09-06T14:08:29Z</time>
      </trkpt>
      <trkpt lat="46.23728" lon="4.81019">
        <ele>171.73</ele>
        <time>2012-09-06T14:08:45Z</time>
      </trkpt>
      <trkpt lat="46.23745" lon="4.81028">
        <ele>171.25</ele>
        <time>2012-09-06T14:08:49Z</time>
      </trkpt>
      <trkpt lat="46.23806" lon="4.81055">
        <ele>171.25</ele>
        <time>2012-09-06T14:09:04Z</time>
      </trkpt>
      <trkpt lat="46.23866" lon="4.81075">
        <ele>171.25</ele>
        <time>2012-09-06T14:09:19Z</time>
      </trkpt>
      <trkpt lat="46.23924" lon="4.81089">
        <ele>171.73</ele>
        <time>2012-09-06T14:09:34Z</time>
      </trkpt>
      <trkpt lat="46.23977" lon="4.81104">
        <ele>171.73</ele>
        <time>2012-09-06T14:09:49Z</time>
      </trkpt>
      <trkpt lat="46.23981" lon="4.81102">
        <ele>171.73</ele>
        <time>2012-09-06T14:10:01Z</time>
      </trkpt>
      <trkpt lat="46.23984" lon="4.81102">
        <ele>171.73</ele>
        <time>2012-09-06T14:10:21Z</time>
      </trkpt>
      <trkpt lat="46.23984" lon="4.81102">
        <ele>171.73</ele>
        <time>2012-09-06T14:10:41Z</time>
      </trkpt>
      <trkpt lat="46.23985" lon="4.81101">
        <ele>171.73</ele>
        <time>2012-09-06T14:11:15Z</time>
      </trkpt>
      <trkpt lat="46.23987" lon="4.81102">
        <ele>171.73</ele>
        <time>2012-09-06T14:11:17Z</time>
      </trkpt>
      <trkpt lat="46.24015" lon="4.811">
        <ele>172.21</ele>
        <time>2012-09-06T14:11:29Z</time>
      </trkpt>
      <trkpt lat="46.24053" lon="4.81074">
        <ele>171.73</ele>
        <time>2012-09-06T14:11:42Z</time>
      </trkpt>
      <trkpt lat="46.24092" lon="4.81103">
        <ele>172.21</ele>
        <time>2012-09-06T14:11:54Z</time>
      </trkpt>
      <trkpt lat="46.24124" lon="4.81136">
        <ele>171.73</ele>
        <time>2012-09-06T14:12:04Z</time>
      </trkpt>
      <trkpt lat="46.24169" lon="4.81134">
        <ele>172.21</ele>
        <time>2012-09-06T14:12:16Z</time>
      </trkpt>
      <trkpt lat="46.24194" lon="4.8116">
        <ele>171.73</ele>
        <time>2012-09-06T14:12:25Z</time>
      </trkpt>
      <trkpt lat="46.24209" lon="4.81167">
        <ele>171.73</ele>
        <time>2012-09-06T14:12:34Z</time>
      </trkpt>
      <trkpt lat="46.24242" lon="4.81178">
        <ele>171.73</ele>
        <time>2012-09-06T14:12:45Z</time>
      </trkpt>
      <trkpt lat="46.2429" lon="4.81193">
        <ele>171.73</ele>
        <time>2012-09-06T14:12:58Z</time>
      </trkpt>
      <trkpt lat="46.24331" lon="4.81207">
        <ele>171.73</ele>
        <time>2012-09-06T14:13:10Z</time>
      </trkpt>
      <trkpt lat="46.24388" lon="4.81228">
        <ele>171.73</ele>
        <time>2012-09-06T14:13:25Z</time>
      </trkpt>
      <trkpt lat="46.24448" lon="4.8125">
        <ele>171.73</ele>
        <time>2012-09-06T14:13:40Z</time>
      </trkpt>
      <trkpt lat="46.24508" lon="4.81273">
        <ele>172.21</ele>
        <time>2012-09-06T14:13:55Z</time>
      </trkpt>
      <trkpt lat="46.24516" lon="4.81279">
        <ele>171.73</ele>
        <time>2012-09-06T14:13:58Z</time>
      </trkpt>
      <trkpt lat="46.2452" lon="4.81279">
        <ele>171.73</ele>
        <time>2012-09-06T14:13:59Z</time>
      </trkpt>
      <trkpt lat="46.24523" lon="4.81279">
        <ele>171.73</ele>
        <time>2012-09-06T14:14:00Z</time>
      </trkpt>
      <trkpt lat="46.24526" lon="4.81281">
        <ele>171.73</ele>
        <time>2012-09-06T14:14:01Z</time>
      </trkpt>
      <trkpt lat="46.24529" lon="4.81282">
        <ele>171.73</ele>
        <time>2012-09-06T14:14:02Z</time>
      </trkpt>
      <trkpt lat="46.24532" lon="4.81284">
        <ele>171.73</ele>
        <time>2012-09-06T14:14:03Z</time>
      </trkpt>
      <trkpt lat="46.24535" lon="4.81286">
        <ele>171.73</ele>
        <time>2012-09-06T14:14:04Z</time>
      </trkpt>
      <trkpt lat="46.24538" lon="4.81288">
        <ele>171.73</ele>
        <time>2012-09-06T14:14:05Z</time>
      </trkpt>
      <trkpt lat="46.24542" lon="4.81289">
        <ele>171.73</ele>
        <time>2012-09-06T14:14:06Z</time>
      </trkpt>
      <trkpt lat="46.24545" lon="4.8129">
        <ele>171.73</ele>
        <time>2012-09-06T14:14:07Z</time>
      </trkpt>
      <trkpt lat="46.24548" lon="4.81291">
        <ele>171.73</ele>
        <time>2012-09-06T14:14:08Z</time>
      </trkpt>
      <trkpt lat="46.24604" lon="4.81307">
        <ele>171.73</ele>
        <time>2012-09-06T14:14:22Z</time>
      </trkpt>
      <trkpt lat="46.24659" lon="4.81322">
        <ele>171.73</ele>
        <time>2012-09-06T14:14:37Z</time>
      </trkpt>
      <trkpt lat="46.24683" lon="4.81327">
        <ele>172.21</ele>
        <time>2012-09-06T14:14:49Z</time>
      </trkpt>
      <trkpt lat="46.24689" lon="4.81327">
        <ele>172.69</ele>
        <time>2012-09-06T14:14:58Z</time>
      </trkpt>
      <trkpt lat="46.24703" lon="4.81332">
        <ele>173.66</ele>
        <time>2012-09-06T14:15:12Z</time>
      </trkpt>
      <trkpt lat="46.24713" lon="4.81333">
        <ele>172.69</ele>
        <time>2012-09-06T14:15:25Z</time>
      </trkpt>
      <trkpt lat="46.24716" lon="4.81333">
        <ele>172.69</ele>
        <time>2012-09-06T14:15:40Z</time>
      </trkpt>
      <trkpt lat="46.24718" lon="4.81333">
        <ele>172.21</ele>
        <time>2012-09-06T14:15:41Z</time>
      </trkpt>
      <trkpt lat="46.2472" lon="4.81334">
        <ele>172.21</ele>
        <time>2012-09-06T14:15:42Z</time>
      </trkpt>
      <trkpt lat="46.24757" lon="4.81343">
        <ele>171.73</ele>
        <time>2012-09-06T14:15:53Z</time>
      </trkpt>
      <trkpt lat="46.24773" lon="4.81346">
        <ele>172.21</ele>
        <time>2012-09-06T14:15:57Z</time>
      </trkpt>
      <trkpt lat="46.24777" lon="4.81346">
        <ele>172.21</ele>
        <time>2012-09-06T14:15:58Z</time>
      </trkpt>
      <trkpt lat="46.24834" lon="4.81357">
        <ele>172.21</ele>
        <time>2012-09-06T14:16:12Z</time>
      </trkpt>
      <trkpt lat="46.24886" lon="4.81365">
        <ele>171.73</ele>
        <time>2012-09-06T14:16:25Z</time>
      </trkpt>
      <trkpt lat="46.24934" lon="4.81368">
        <ele>171.73</ele>
        <time>2012-09-06T14:16:36Z</time>
      </trkpt>
      <trkpt lat="46.24938" lon="4.81368">
        <ele>171.73</ele>
        <time>2012-09-06T14:16:37Z</time>
      </trkpt>
      <trkpt lat="46.24943" lon="4.81369">
        <ele>171.73</ele>
        <time>2012-09-06T14:16:38Z</time>
      </trkpt>
      <trkpt lat="46.24947" lon="4.81369">
        <ele>172.21</ele>
        <time>2012-09-06T14:16:39Z</time>
      </trkpt>
      <trkpt lat="46.24951" lon="4.81369">
        <ele>172.21</ele>
        <time>2012-09-06T14:16:40Z</time>
      </trkpt>
      <trkpt lat="46.2501" lon="4.81375">
        <ele>171.73</ele>
        <time>2012-09-06T14:16:54Z</time>
      </trkpt>
      <trkpt lat="46.25023" lon="4.81376">
        <ele>171.73</ele>
        <time>2012-09-06T14:16:58Z</time>
      </trkpt>
      <trkpt lat="46.25073" lon="4.81377">
        <ele>172.21</ele>
        <time>2012-09-06T14:17:11Z</time>
      </trkpt>
      <trkpt lat="46.25085" lon="4.81377">
        <ele>172.21</ele>
        <time>2012-09-06T14:17:14Z</time>
      </trkpt>
      <trkpt lat="46.25139" lon="4.81377">
        <ele>172.21</ele>
        <time>2012-09-06T14:17:27Z</time>
      </trkpt>
      <trkpt lat="46.25143" lon="4.81376">
        <ele>172.21</ele>
        <time>2012-09-06T14:17:28Z</time>
      </trkpt>
      <trkpt lat="46.25147" lon="4.81375">
        <ele>172.21</ele>
        <time>2012-09-06T14:17:29Z</time>
      </trkpt>
      <trkpt lat="46.25181" lon="4.8137">
        <ele>171.73</ele>
        <time>2012-09-06T14:17:40Z</time>
      </trkpt>
      <trkpt lat="46.25181" lon="4.81372">
        <ele>171.73</ele>
        <time>2012-09-06T14:17:46Z</time>
      </trkpt>
      <trkpt lat="46.25178" lon="4.81374">
        <ele>171.73</ele>
        <time>2012-09-06T14:17:49Z</time>
      </trkpt>
      <trkpt lat="46.25173" lon="4.81374">
        <ele>172.21</ele>
        <time>2012-09-06T14:17:52Z</time>
      </trkpt>
      <trkpt lat="46.25172" lon="4.81374">
        <ele>172.21</ele>
        <time>2012-09-06T14:17:53Z</time>
      </trkpt>
      <trkpt lat="46.2517" lon="4.81375">
        <ele>172.21</ele>
        <time>2012-09-06T14:17:54Z</time>
      </trkpt>
      <trkpt lat="46.25137" lon="4.8138">
        <ele>171.73</ele>
        <time>2012-09-06T14:18:07Z</time>
      </trkpt>
      <trkpt lat="46.25116" lon="4.81378">
        <ele>172.21</ele>
        <time>2012-09-06T14:18:20Z</time>
      </trkpt>
      <trkpt lat="46.25086" lon="4.8138">
        <ele>171.73</ele>
        <time>2012-09-06T14:18:32Z</time>
      </trkpt>
      <trkpt lat="46.25035" lon="4.81381">
        <ele>172.21</ele>
        <time>2012-09-06T14:18:44Z</time>
      </trkpt>
      <trkpt lat="46.25014" lon="4.81383">
        <ele>172.21</ele>
        <time>2012-09-06T14:18:50Z</time>
      </trkpt>
      <trkpt lat="46.25012" lon="4.81385">
        <ele>171.73</ele>
        <time>2012-09-06T14:18:51Z</time>
      </trkpt>
      <trkpt lat="46.25011" lon="4.81388">
        <ele>171.73</ele>
        <time>2012-09-06T14:18:52Z</time>
      </trkpt>
      <trkpt lat="46.25011" lon="4.81392">
        <ele>171.73</ele>
        <time>2012-09-06T14:18:53Z</time>
      </trkpt>
      <trkpt lat="46.25011" lon="4.81395">
        <ele>171.73</ele>
        <time>2012-09-06T14:18:54Z</time>
      </trkpt>
      <trkpt lat="46.25011" lon="4.81398">
        <ele>171.73</ele>
        <time>2012-09-06T14:18:55Z</time>
      </trkpt>
      <trkpt lat="46.25012" lon="4.81401">
        <ele>171.73</ele>
        <time>2012-09-06T14:18:56Z</time>
      </trkpt>
      <trkpt lat="46.25026" lon="4.81443">
        <ele>171.25</ele>
        <time>2012-09-06T14:19:07Z</time>
      </trkpt>
      <trkpt lat="46.25042" lon="4.81496">
        <ele>171.25</ele>
        <time>2012-09-06T14:19:18Z</time>
      </trkpt>
      <trkpt lat="46.25056" lon="4.81553">
        <ele>171.25</ele>
        <time>2012-09-06T14:19:29Z</time>
      </trkpt>
      <trkpt lat="46.25055" lon="4.8159">
        <ele>171.25</ele>
        <time>2012-09-06T14:19:39Z</time>
      </trkpt>
      <trkpt lat="46.25042" lon="4.81633">
        <ele>172.69</ele>
        <time>2012-09-06T14:19:49Z</time>
      </trkpt>
      <trkpt lat="46.25015" lon="4.81705">
        <ele>171.25</ele>
        <time>2012-09-06T14:20:03Z</time>
      </trkpt>
      <trkpt lat="46.24977" lon="4.81811">
        <ele>171.25</ele>
        <time>2012-09-06T14:20:21Z</time>
      </trkpt>
      <trkpt lat="46.24956" lon="4.81882">
        <ele>171.25</ele>
        <time>2012-09-06T14:20:34Z</time>
      </trkpt>
      <trkpt lat="46.24957" lon="4.81886">
        <ele>171.25</ele>
        <time>2012-09-06T14:20:35Z</time>
      </trkpt>
      <trkpt lat="46.24959" lon="4.8189">
        <ele>171.25</ele>
        <time>2012-09-06T14:20:36Z</time>
      </trkpt>
      <trkpt lat="46.24961" lon="4.81893">
        <ele>171.73</ele>
        <time>2012-09-06T14:20:37Z</time>
      </trkpt>
      <trkpt lat="46.24964" lon="4.81895">
        <ele>171.73</ele>
        <time>2012-09-06T14:20:38Z</time>
      </trkpt>
      <trkpt lat="46.24966" lon="4.81896">
        <ele>171.73</ele>
        <time>2012-09-06T14:20:39Z</time>
      </trkpt>
      <trkpt lat="46.25" lon="4.81907">
        <ele>172.21</ele>
        <time>2012-09-06T14:20:52Z</time>
      </trkpt>
      <trkpt lat="46.2506" lon="4.81929">
        <ele>172.21</ele>
        <time>2012-09-06T14:21:10Z</time>
      </trkpt>
      <trkpt lat="46.25118" lon="4.81952">
        <ele>172.69</ele>
        <time>2012-09-06T14:21:27Z</time>
      </trkpt>
      <trkpt lat="46.25186" lon="4.81976">
        <ele>172.21</ele>
        <time>2012-09-06T14:21:46Z</time>
      </trkpt>
      <trkpt lat="46.25246" lon="4.81999">
        <ele>172.21</ele>
        <time>2012-09-06T14:22:02Z</time>
      </trkpt>
      <trkpt lat="46.2525" lon="4.82001">
        <ele>172.21</ele>
        <time>2012-09-06T14:22:03Z</time>
      </trkpt>
      <trkpt lat="46.253" lon="4.82008">
        <ele>172.21</ele>
        <time>2012-09-06T14:22:17Z</time>
      </trkpt>
      <trkpt lat="46.25304" lon="4.81992">
        <ele>172.21</ele>
        <time>2012-09-06T14:22:21Z</time>
      </trkpt>
      <trkpt lat="46.25316" lon="4.81909">
        <ele>172.21</ele>
        <time>2012-09-06T14:22:38Z</time>
      </trkpt>
      <trkpt lat="46.25329" lon="4.81829">
        <ele>171.73</ele>
        <time>2012-09-06T14:22:53Z</time>
      </trkpt>
      <trkpt lat="46.25327" lon="4.81802">
        <ele>171.73</ele>
        <time>2012-09-06T14:22:58Z</time>
      </trkpt>
      <trkpt lat="46.25324" lon="4.81797">
        <ele>171.73</ele>
        <time>2012-09-06T14:22:59Z</time>
      </trkpt>
      <trkpt lat="46.25322" lon="4.81793">
        <ele>171.73</ele>
        <time>2012-09-06T14:23:00Z</time>
      </trkpt>
      <trkpt lat="46.25319" lon="4.81789">
        <ele>171.73</ele>
        <time>2012-09-06T14:23:01Z</time>
      </trkpt>
      <trkpt lat="46.25316" lon="4.81786">
        <ele>171.73</ele>
        <time>2012-09-06T14:23:02Z</time>
      </trkpt>
      <trkpt lat="46.25307" lon="4.81773">
        <ele>172.21</ele>
        <time>2012-09-06T14:23:06Z</time>
      </trkpt>
      <trkpt lat="46.25306" lon="4.81753">
        <ele>172.21</ele>
        <time>2012-09-06T14:23:12Z</time>
      </trkpt>
      <trkpt lat="46.25317" lon="4.8171">
        <ele>172.21</ele>
        <time>2012-09-06T14:23:27Z</time>
      </trkpt>
      <trkpt lat="46.25329" lon="4.81654">
        <ele>172.21</ele>
        <time>2012-09-06T14:23:41Z</time>
      </trkpt>
      <trkpt lat="46.25341" lon="4.81608">
        <ele>172.21</ele>
        <time>2012-09-06T14:23:50Z</time>
      </trkpt>
      <trkpt lat="46.25344" lon="4.81604">
        <ele>172.21</ele>
        <time>2012-09-06T14:23:51Z</time>
      </trkpt>
      <trkpt lat="46.25347" lon="4.816">
        <ele>172.21</ele>
        <time>2012-09-06T14:23:52Z</time>
      </trkpt>
      <trkpt lat="46.25351" lon="4.81597">
        <ele>172.21</ele>
        <time>2012-09-06T14:23:53Z</time>
      </trkpt>
      <trkpt lat="46.25355" lon="4.81595">
        <ele>172.21</ele>
        <time>2012-09-06T14:23:54Z</time>
      </trkpt>
      <trkpt lat="46.25359" lon="4.81594">
        <ele>172.21</ele>
        <time>2012-09-06T14:23:55Z</time>
      </trkpt>
      <trkpt lat="46.25363" lon="4.81593">
        <ele>172.21</ele>
        <time>2012-09-06T14:23:56Z</time>
      </trkpt>
      <trkpt lat="46.25367" lon="4.81593">
        <ele>172.21</ele>
        <time>2012-09-06T14:23:57Z</time>
      </trkpt>
      <trkpt lat="46.25371" lon="4.81593">
        <ele>172.21</ele>
        <time>2012-09-06T14:23:58Z</time>
      </trkpt>
      <trkpt lat="46.25375" lon="4.81594">
        <ele>174.14</ele>
        <time>2012-09-06T14:23:59Z</time>
      </trkpt>
      <trkpt lat="46.25378" lon="4.81594">
        <ele>172.69</ele>
        <time>2012-09-06T14:24:00Z</time>
      </trkpt>
      <trkpt lat="46.25382" lon="4.81595">
        <ele>172.69</ele>
        <time>2012-09-06T14:24:01Z</time>
      </trkpt>
      <trkpt lat="46.25444" lon="4.81602">
        <ele>172.21</ele>
        <time>2012-09-06T14:24:17Z</time>
      </trkpt>
      <trkpt lat="46.25498" lon="4.81618">
        <ele>172.21</ele>
        <time>2012-09-06T14:24:32Z</time>
      </trkpt>
      <trkpt lat="46.25491" lon="4.81666">
        <ele>172.21</ele>
        <time>2012-09-06T14:24:42Z</time>
      </trkpt>
      <trkpt lat="46.25466" lon="4.81757">
        <ele>171.73</ele>
        <time>2012-09-06T14:25:00Z</time>
      </trkpt>
      <trkpt lat="46.25464" lon="4.81811">
        <ele>172.69</ele>
        <time>2012-09-06T14:25:11Z</time>
      </trkpt>
      <trkpt lat="46.25478" lon="4.81819">
        <ele>172.69</ele>
        <time>2012-09-06T14:25:16Z</time>
      </trkpt>
      <trkpt lat="46.25527" lon="4.81845">
        <ele>172.21</ele>
        <time>2012-09-06T14:25:30Z</time>
      </trkpt>
      <trkpt lat="46.25579" lon="4.81874">
        <ele>172.69</ele>
        <time>2012-09-06T14:25:45Z</time>
      </trkpt>
      <trkpt lat="46.25617" lon="4.81902">
        <ele>172.21</ele>
        <time>2012-09-06T14:25:56Z</time>
      </trkpt>
      <trkpt lat="46.25647" lon="4.81909">
        <ele>172.69</ele>
        <time>2012-09-06T14:26:04Z</time>
      </trkpt>
      <trkpt lat="46.25701" lon="4.81924">
        <ele>172.21</ele>
        <time>2012-09-06T14:26:18Z</time>
      </trkpt>
      <trkpt lat="46.2572" lon="4.8188">
        <ele>172.21</ele>
        <time>2012-09-06T14:26:28Z</time>
      </trkpt>
      <trkpt lat="46.25737" lon="4.81816">
        <ele>172.21</ele>
        <time>2012-09-06T14:26:40Z</time>
      </trkpt>
      <trkpt lat="46.25753" lon="4.81743">
        <ele>172.21</ele>
        <time>2012-09-06T14:26:54Z</time>
      </trkpt>
      <trkpt lat="46.25758" lon="4.8172">
        <ele>172.21</ele>
        <time>2012-09-06T14:27:04Z</time>
      </trkpt>
      <trkpt lat="46.25758" lon="4.81721">
        <ele>168.37</ele>
        <time>2012-09-06T14:27:08Z</time>
      </trkpt>
      <trkpt lat="46.25758" lon="4.81721">
        <ele>175.1</ele>
        <time>2012-09-06T14:27:09Z</time>
      </trkpt>
      <trkpt lat="46.25758" lon="4.81721">
        <ele>167.41</ele>
        <time>2012-09-06T14:27:14Z</time>
      </trkpt>
      <trkpt lat="46.25758" lon="4.81721">
        <ele>175.58</ele>
        <time>2012-09-06T14:27:15Z</time>
      </trkpt>
      <trkpt lat="46.25758" lon="4.81721">
        <ele>172.21</ele>
        <time>2012-09-06T14:27:16Z</time>
      </trkpt>
      <trkpt lat="46.25767" lon="4.8171">
        <ele>172.21</ele>
        <time>2012-09-06T14:27:33Z</time>
      </trkpt>
      <trkpt lat="46.25787" lon="4.81717">
        <ele>172.21</ele>
        <time>2012-09-06T14:27:44Z</time>
      </trkpt>
      <trkpt lat="46.25825" lon="4.81734">
        <ele>172.69</ele>
        <time>2012-09-06T14:27:57Z</time>
      </trkpt>
      <trkpt lat="46.2587" lon="4.81753">
        <ele>172.69</ele>
        <time>2012-09-06T14:28:11Z</time>
      </trkpt>
      <trkpt lat="46.25897" lon="4.81733">
        <ele>172.69</ele>
        <time>2012-09-06T14:28:21Z</time>
      </trkpt>
      <trkpt lat="46.25914" lon="4.81649">
        <ele>172.69</ele>
        <time>2012-09-06T14:28:39Z</time>
      </trkpt>
      <trkpt lat="46.25928" lon="4.81576">
        <ele>172.69</ele>
        <time>2012-09-06T14:28:53Z</time>
      </trkpt>
      <trkpt lat="46.2593" lon="4.81565">
        <ele>172.69</ele>
        <time>2012-09-06T14:28:55Z</time>
      </trkpt>
      <trkpt lat="46.25952" lon="4.81456">
        <ele>172.69</ele>
        <time>2012-09-06T14:29:13Z</time>
      </trkpt>
      <trkpt lat="46.25958" lon="4.81425">
        <ele>172.69</ele>
        <time>2012-09-06T14:29:18Z</time>
      </trkpt>
      <trkpt lat="46.25965" lon="4.81377">
        <ele>172.21</ele>
        <time>2012-09-06T14:29:31Z</time>
      </trkpt>
      <trkpt lat="46.25967" lon="4.81372">
        <ele>172.69</ele>
        <time>2012-09-06T14:29:38Z</time>
      </trkpt>
      <trkpt lat="46.25974" lon="4.81369">
        <ele>172.21</ele>
        <time>2012-09-06T14:29:49Z</time>
      </trkpt>
      <trkpt lat="46.2597" lon="4.81367">
        <ele>172.69</ele>
        <time>2012-09-06T14:30:05Z</time>
      </trkpt>
      <trkpt lat="46.25973" lon="4.81367">
        <ele>172.69</ele>
        <time>2012-09-06T14:30:31Z</time>
      </trkpt>
      <trkpt lat="46.25981" lon="4.81374">
        <ele>172.69</ele>
        <time>2012-09-06T14:30:38Z</time>
      </trkpt>
      <trkpt lat="46.25987" lon="4.81379">
        <ele>172.69</ele>
        <time>2012-09-06T14:30:52Z</time>
      </trkpt>
      <trkpt lat="46.25988" lon="4.8138">
        <ele>172.69</ele>
        <time>2012-09-06T14:31:09Z</time>
      </trkpt>
      <trkpt lat="46.25988" lon="4.81379">
        <ele>172.21</ele>
        <time>2012-09-06T14:31:43Z</time>
      </trkpt>
      <trkpt lat="46.25988" lon="4.81379">
        <ele>172.69</ele>
        <time>2012-09-06T14:32:07Z</time>
      </trkpt>
      <trkpt lat="46.25988" lon="4.81379">
        <ele>173.17</ele>
        <time>2012-09-06T14:32:37Z</time>
      </trkpt>
      <trkpt lat="46.25992" lon="4.81382">
        <ele>172.69</ele>
        <time>2012-09-06T14:33:02Z</time>
      </trkpt>
      <trkpt lat="46.2602" lon="4.81421">
        <ele>172.69</ele>
        <time>2012-09-06T14:33:15Z</time>
      </trkpt>
      <trkpt lat="46.2605" lon="4.81471">
        <ele>172.69</ele>
        <time>2012-09-06T14:33:29Z</time>
      </trkpt>
      <trkpt lat="46.26079" lon="4.81524">
        <ele>172.69</ele>
        <time>2012-09-06T14:33:42Z</time>
      </trkpt>
      <trkpt lat="46.26123" lon="4.81596">
        <ele>172.69</ele>
        <time>2012-09-06T14:33:58Z</time>
      </trkpt>
      <trkpt lat="46.26174" lon="4.8168">
        <ele>172.69</ele>
        <time>2012-09-06T14:34:17Z</time>
      </trkpt>
      <trkpt lat="46.26206" lon="4.81712">
        <ele>173.17</ele>
        <time>2012-09-06T14:34:29Z</time>
      </trkpt>
      <trkpt lat="46.26231" lon="4.81752">
        <ele>173.17</ele>
        <time>2012-09-06T14:34:40Z</time>
      </trkpt>
      <trkpt lat="46.26244" lon="4.81816">
        <ele>172.69</ele>
        <time>2012-09-06T14:34:53Z</time>
      </trkpt>
      <trkpt lat="46.26262" lon="4.81888">
        <ele>172.69</ele>
        <time>2012-09-06T14:35:07Z</time>
      </trkpt>
      <trkpt lat="46.26273" lon="4.81905">
        <ele>172.69</ele>
        <time>2012-09-06T14:35:11Z</time>
      </trkpt>
      <trkpt lat="46.26313" lon="4.81915">
        <ele>173.17</ele>
        <time>2012-09-06T14:35:22Z</time>
      </trkpt>
      <trkpt lat="46.26364" lon="4.81937">
        <ele>173.17</ele>
        <time>2012-09-06T14:35:36Z</time>
      </trkpt>
      <trkpt lat="46.26382" lon="4.81945">
        <ele>173.17</ele>
        <time>2012-09-06T14:35:42Z</time>
      </trkpt>
      <trkpt lat="46.26384" lon="4.81944">
        <ele>173.17</ele>
        <time>2012-09-06T14:35:43Z</time>
      </trkpt>
      <trkpt lat="46.26406" lon="4.81915">
        <ele>173.17</ele>
        <time>2012-09-06T14:35:55Z</time>
      </trkpt>
      <trkpt lat="46.26442" lon="4.81853">
        <ele>173.17</ele>
        <time>2012-09-06T14:36:10Z</time>
      </trkpt>
      <trkpt lat="46.2647" lon="4.81818">
        <ele>172.69</ele>
        <time>2012-09-06T14:36:21Z</time>
      </trkpt>
      <trkpt lat="46.26473" lon="4.81819">
        <ele>172.69</ele>
        <time>2012-09-06T14:36:22Z</time>
      </trkpt>
      <trkpt lat="46.26507" lon="4.81862">
        <ele>172.69</ele>
        <time>2012-09-06T14:36:36Z</time>
      </trkpt>
      <trkpt lat="46.26551" lon="4.81921">
        <ele>172.21</ele>
        <time>2012-09-06T14:36:52Z</time>
      </trkpt>
      <trkpt lat="46.26591" lon="4.81972">
        <ele>172.21</ele>
        <time>2012-09-06T14:37:06Z</time>
      </trkpt>
      <trkpt lat="46.26621" lon="4.82009">
        <ele>172.21</ele>
        <time>2012-09-06T14:37:20Z</time>
      </trkpt>
      <trkpt lat="46.26663" lon="4.82064">
        <ele>172.69</ele>
        <time>2012-09-06T14:37:37Z</time>
      </trkpt>
      <trkpt lat="46.26709" lon="4.82111">
        <ele>172.69</ele>
        <time>2012-09-06T14:37:54Z</time>
      </trkpt>
      <trkpt lat="46.26762" lon="4.82172">
        <ele>172.69</ele>
        <time>2012-09-06T14:38:15Z</time>
      </trkpt>
      <trkpt lat="46.26802" lon="4.82218">
        <ele>172.69</ele>
        <time>2012-09-06T14:38:31Z</time>
      </trkpt>
      <trkpt lat="46.26861" lon="4.82279">
        <ele>172.69</ele>
        <time>2012-09-06T14:38:53Z</time>
      </trkpt>
      <trkpt lat="46.26905" lon="4.82323">
        <ele>172.69</ele>
        <time>2012-09-06T14:39:10Z</time>
      </trkpt>
      <trkpt lat="46.26942" lon="4.82356">
        <ele>172.69</ele>
        <time>2012-09-06T14:39:24Z</time>
      </trkpt>
      <trkpt lat="46.27002" lon="4.82404">
        <ele>172.69</ele>
        <time>2012-09-06T14:39:45Z</time>
      </trkpt>
      <trkpt lat="46.27043" lon="4.82437">
        <ele>173.17</ele>
        <time>2012-09-06T14:40:01Z</time>
      </trkpt>
      <trkpt lat="46.27093" lon="4.82471">
        <ele>172.69</ele>
        <time>2012-09-06T14:40:19Z</time>
      </trkpt>
      <trkpt lat="46.2714" lon="4.82517">
        <ele>173.17</ele>
        <time>2012-09-06T14:40:37Z</time>
      </trkpt>
      <trkpt lat="46.27164" lon="4.82543">
        <ele>173.66</ele>
        <time>2012-09-06T14:40:49Z</time>
      </trkpt>
      <trkpt lat="46.2717" lon="4.82548">
        <ele>173.17</ele>
        <time>2012-09-06T14:41:05Z</time>
      </trkpt>
      <trkpt lat="46.27172" lon="4.8255">
        <ele>173.66</ele>
        <time>2012-09-06T14:41:30Z</time>
      </trkpt>
      <trkpt lat="46.27175" lon="4.82551">
        <ele>173.17</ele>
        <time>2012-09-06T14:41:58Z</time>
      </trkpt>
      <trkpt lat="46.27178" lon="4.82551">
        <ele>173.17</ele>
        <time>2012-09-06T14:42:24Z</time>
      </trkpt>
      <trkpt lat="46.27177" lon="4.82553">
        <ele>173.66</ele>
        <time>2012-09-06T14:42:59Z</time>
      </trkpt>
      <trkpt lat="46.2718" lon="4.82552">
        <ele>173.17</ele>
        <time>2012-09-06T14:43:28Z</time>
      </trkpt>
      <trkpt lat="46.27181" lon="4.82552">
        <ele>174.14</ele>
        <time>2012-09-06T14:43:47Z</time>
      </trkpt>
      <trkpt lat="46.27182" lon="4.82552">
        <ele>173.66</ele>
        <time>2012-09-06T14:43:48Z</time>
      </trkpt>
      <trkpt lat="46.27201" lon="4.82572">
        <ele>173.17</ele>
        <time>2012-09-06T14:43:59Z</time>
      </trkpt>
      <trkpt lat="46.27242" lon="4.82609">
        <ele>173.17</ele>
        <time>2012-09-06T14:44:13Z</time>
      </trkpt>
      <trkpt lat="46.27285" lon="4.82643">
        <ele>173.17</ele>
        <time>2012-09-06T14:44:27Z</time>
      </trkpt>
      <trkpt lat="46.2733" lon="4.82673">
        <ele>173.17</ele>
        <time>2012-09-06T14:44:41Z</time>
      </trkpt>
      <trkpt lat="46.27381" lon="4.82685">
        <ele>173.17</ele>
        <time>2012-09-06T14:44:55Z</time>
      </trkpt>
      <trkpt lat="46.27427" lon="4.82711">
        <ele>173.17</ele>
        <time>2012-09-06T14:45:09Z</time>
      </trkpt>
      <trkpt lat="46.27467" lon="4.82747">
        <ele>173.17</ele>
        <time>2012-09-06T14:45:22Z</time>
      </trkpt>
      <trkpt lat="46.27509" lon="4.82784">
        <ele>173.17</ele>
        <time>2012-09-06T14:45:35Z</time>
      </trkpt>
      <trkpt lat="46.27549" lon="4.82814">
        <ele>173.66</ele>
        <time>2012-09-06T14:45:49Z</time>
      </trkpt>
      <trkpt lat="46.27599" lon="4.82843">
        <ele>173.17</ele>
        <time>2012-09-06T14:46:05Z</time>
      </trkpt>
      <trkpt lat="46.27659" lon="4.82871">
        <ele>173.17</ele>
        <time>2012-09-06T14:46:21Z</time>
      </trkpt>
      <trkpt lat="46.27701" lon="4.82882">
        <ele>173.17</ele>
        <time>2012-09-06T14:46:34Z</time>
      </trkpt>
      <trkpt lat="46.27733" lon="4.82903">
        <ele>173.17</ele>
        <time>2012-09-06T14:46:47Z</time>
      </trkpt>
      <trkpt lat="46.27739" lon="4.82912">
        <ele>173.66</ele>
        <time>2012-09-06T14:46:57Z</time>
      </trkpt>
      <trkpt lat="46.2774" lon="4.82912">
        <ele>173.66</ele>
        <time>2012-09-06T14:46:58Z</time>
      </trkpt>
      <trkpt lat="46.27742" lon="4.82909">
        <ele>173.66</ele>
        <time>2012-09-06T14:47:00Z</time>
      </trkpt>
      <trkpt lat="46.27743" lon="4.82907">
        <ele>173.66</ele>
        <time>2012-09-06T14:47:01Z</time>
      </trkpt>
      <trkpt lat="46.27745" lon="4.82905">
        <ele>173.66</ele>
        <time>2012-09-06T14:47:02Z</time>
      </trkpt>
      <trkpt lat="46.27746" lon="4.82904">
        <ele>173.66</ele>
        <time>2012-09-06T14:47:03Z</time>
      </trkpt>
      <trkpt lat="46.27748" lon="4.82902">
        <ele>173.66</ele>
        <time>2012-09-06T14:47:04Z</time>
      </trkpt>
      <trkpt lat="46.27749" lon="4.82901">
        <ele>173.66</ele>
        <time>2012-09-06T14:47:05Z</time>
      </trkpt>
      <trkpt lat="46.2775" lon="4.82899">
        <ele>173.66</ele>
        <time>2012-09-06T14:47:06Z</time>
      </trkpt>
      <trkpt lat="46.27752" lon="4.82898">
        <ele>173.66</ele>
        <time>2012-09-06T14:47:07Z</time>
      </trkpt>
      <trkpt lat="46.27753" lon="4.82897">
        <ele>173.66</ele>
        <time>2012-09-06T14:47:08Z</time>
      </trkpt>
      <trkpt lat="46.27784" lon="4.82896">
        <ele>173.17</ele>
        <time>2012-09-06T14:47:22Z</time>
      </trkpt>
      <trkpt lat="46.27817" lon="4.82903">
        <ele>173.17</ele>
        <time>2012-09-06T14:47:35Z</time>
      </trkpt>
      <trkpt lat="46.27865" lon="4.82914">
        <ele>173.66</ele>
        <time>2012-09-06T14:47:49Z</time>
      </trkpt>
      <trkpt lat="46.27914" lon="4.82924">
        <ele>173.17</ele>
        <time>2012-09-06T14:48:02Z</time>
      </trkpt>
      <trkpt lat="46.27929" lon="4.82928">
        <ele>173.17</ele>
        <time>2012-09-06T14:48:06Z</time>
      </trkpt>
      <trkpt lat="46.27995" lon="4.82942">
        <ele>173.17</ele>
        <time>2012-09-06T14:48:22Z</time>
      </trkpt>
      <trkpt lat="46.28042" lon="4.82951">
        <ele>173.17</ele>
        <time>2012-09-06T14:48:35Z</time>
      </trkpt>
      <trkpt lat="46.28077" lon="4.82958">
        <ele>173.17</ele>
        <time>2012-09-06T14:48:44Z</time>
      </trkpt>
      <trkpt lat="46.28129" lon="4.82967">
        <ele>173.17</ele>
        <time>2012-09-06T14:48:57Z</time>
      </trkpt>
      <trkpt lat="46.2817" lon="4.82975">
        <ele>172.69</ele>
        <time>2012-09-06T14:49:08Z</time>
      </trkpt>
      <trkpt lat="46.28235" lon="4.82991">
        <ele>172.69</ele>
        <time>2012-09-06T14:49:25Z</time>
      </trkpt>
      <trkpt lat="46.28287" lon="4.83007">
        <ele>173.17</ele>
        <time>2012-09-06T14:49:39Z</time>
      </trkpt>
      <trkpt lat="46.28345" lon="4.83025">
        <ele>172.69</ele>
        <time>2012-09-06T14:49:55Z</time>
      </trkpt>
      <trkpt lat="46.28399" lon="4.83043">
        <ele>173.17</ele>
        <time>2012-09-06T14:50:10Z</time>
      </trkpt>
      <trkpt lat="46.28457" lon="4.83061">
        <ele>173.17</ele>
        <time>2012-09-06T14:50:27Z</time>
      </trkpt>
      <trkpt lat="46.28514" lon="4.83063">
        <ele>173.17</ele>
        <time>2012-09-06T14:50:42Z</time>
      </trkpt>
      <trkpt lat="46.28576" lon="4.83061">
        <ele>173.17</ele>
        <time>2012-09-06T14:50:59Z</time>
      </trkpt>
      <trkpt lat="46.28619" lon="4.83085">
        <ele>172.69</ele>
        <time>2012-09-06T14:51:12Z</time>
      </trkpt>
      <trkpt lat="46.28656" lon="4.83124">
        <ele>172.69</ele>
        <time>2012-09-06T14:51:27Z</time>
      </trkpt>
      <trkpt lat="46.28691" lon="4.83145">
        <ele>172.69</ele>
        <time>2012-09-06T14:51:39Z</time>
      </trkpt>
      <trkpt lat="46.28757" lon="4.83173">
        <ele>173.17</ele>
        <time>2012-09-06T14:51:57Z</time>
      </trkpt>
      <trkpt lat="46.28822" lon="4.83198">
        <ele>173.17</ele>
        <time>2012-09-06T14:52:14Z</time>
      </trkpt>
      <trkpt lat="46.28862" lon="4.83219">
        <ele>172.69</ele>
        <time>2012-09-06T14:52:26Z</time>
      </trkpt>
      <trkpt lat="46.28865" lon="4.83218">
        <ele>173.17</ele>
        <time>2012-09-06T14:52:27Z</time>
      </trkpt>
      <trkpt lat="46.28866" lon="4.83215">
        <ele>173.66</ele>
        <time>2012-09-06T14:52:28Z</time>
      </trkpt>
      <trkpt lat="46.28867" lon="4.83214">
        <ele>173.17</ele>
        <time>2012-09-06T14:52:29Z</time>
      </trkpt>
      <trkpt lat="46.2887" lon="4.83212">
        <ele>173.17</ele>
        <time>2012-09-06T14:52:30Z</time>
      </trkpt>
      <trkpt lat="46.28872" lon="4.83213">
        <ele>173.17</ele>
        <time>2012-09-06T14:52:31Z</time>
      </trkpt>
      <trkpt lat="46.28875" lon="4.83213">
        <ele>173.17</ele>
        <time>2012-09-06T14:52:32Z</time>
      </trkpt>
      <trkpt lat="46.28877" lon="4.83213">
        <ele>173.17</ele>
        <time>2012-09-06T14:52:33Z</time>
      </trkpt>
      <trkpt lat="46.2888" lon="4.83212">
        <ele>173.17</ele>
        <time>2012-09-06T14:52:34Z</time>
      </trkpt>
      <trkpt lat="46.28882" lon="4.83213">
        <ele>173.17</ele>
        <time>2012-09-06T14:52:35Z</time>
      </trkpt>
      <trkpt lat="46.28885" lon="4.83214">
        <ele>172.69</ele>
        <time>2012-09-06T14:52:36Z</time>
      </trkpt>
      <trkpt lat="46.28887" lon="4.83216">
        <ele>172.69</ele>
        <time>2012-09-06T14:52:37Z</time>
      </trkpt>
      <trkpt lat="46.2892" lon="4.83229">
        <ele>173.17</ele>
        <time>2012-09-06T14:52:52Z</time>
      </trkpt>
      <trkpt lat="46.28954" lon="4.83239">
        <ele>173.17</ele>
        <time>2012-09-06T14:53:03Z</time>
      </trkpt>
      <trkpt lat="46.29006" lon="4.83252">
        <ele>173.17</ele>
        <time>2012-09-06T14:53:15Z</time>
      </trkpt>
      <trkpt lat="46.29045" lon="4.83262">
        <ele>173.17</ele>
        <time>2012-09-06T14:53:26Z</time>
      </trkpt>
      <trkpt lat="46.29073" lon="4.83269">
        <ele>172.69</ele>
        <time>2012-09-06T14:53:36Z</time>
      </trkpt>
      <trkpt lat="46.29081" lon="4.8327">
        <ele>172.69</ele>
        <time>2012-09-06T14:53:44Z</time>
      </trkpt>
      <trkpt lat="46.29085" lon="4.83273">
        <ele>172.69</ele>
        <time>2012-09-06T14:53:47Z</time>
      </trkpt>
      <trkpt lat="46.29086" lon="4.83275">
        <ele>173.17</ele>
        <time>2012-09-06T14:53:48Z</time>
      </trkpt>
      <trkpt lat="46.29124" lon="4.83321">
        <ele>173.17</ele>
        <time>2012-09-06T14:54:03Z</time>
      </trkpt>
      <trkpt lat="46.29134" lon="4.83333">
        <ele>173.17</ele>
        <time>2012-09-06T14:54:06Z</time>
      </trkpt>
      <trkpt lat="46.29137" lon="4.83337">
        <ele>173.17</ele>
        <time>2012-09-06T14:54:07Z</time>
      </trkpt>
      <trkpt lat="46.29147" lon="4.83349">
        <ele>173.17</ele>
        <time>2012-09-06T14:54:10Z</time>
      </trkpt>
      <trkpt lat="46.29151" lon="4.83352">
        <ele>173.17</ele>
        <time>2012-09-06T14:54:11Z</time>
      </trkpt>
      <trkpt lat="46.29154" lon="4.83355">
        <ele>173.17</ele>
        <time>2012-09-06T14:54:12Z</time>
      </trkpt>
      <trkpt lat="46.29158" lon="4.83359">
        <ele>173.17</ele>
        <time>2012-09-06T14:54:13Z</time>
      </trkpt>
      <trkpt lat="46.29161" lon="4.83363">
        <ele>173.17</ele>
        <time>2012-09-06T14:54:14Z</time>
      </trkpt>
      <trkpt lat="46.29186" lon="4.83398">
        <ele>173.17</ele>
        <time>2012-09-06T14:54:22Z</time>
      </trkpt>
      <trkpt lat="46.2923" lon="4.83466">
        <ele>173.17</ele>
        <time>2012-09-06T14:54:38Z</time>
      </trkpt>
      <trkpt lat="46.29254" lon="4.83508">
        <ele>173.66</ele>
        <time>2012-09-06T14:54:47Z</time>
      </trkpt>
      <trkpt lat="46.29278" lon="4.8355">
        <ele>173.66</ele>
        <time>2012-09-06T14:54:56Z</time>
      </trkpt>
      <trkpt lat="46.29324" lon="4.83625">
        <ele>174.14</ele>
        <time>2012-09-06T14:55:14Z</time>
      </trkpt>
      <trkpt lat="46.29342" lon="4.83659">
        <ele>174.14</ele>
        <time>2012-09-06T14:55:25Z</time>
      </trkpt>
      <trkpt lat="46.29343" lon="4.83667">
        <ele>173.66</ele>
        <time>2012-09-06T14:55:27Z</time>
      </trkpt>
      <trkpt lat="46.29345" lon="4.83686">
        <ele>172.21</ele>
        <time>2012-09-06T14:55:37Z</time>
      </trkpt>
      <trkpt lat="46.29345" lon="4.83679">
        <ele>173.17</ele>
        <time>2012-09-06T14:55:50Z</time>
      </trkpt>
      <trkpt lat="46.29345" lon="4.83674">
        <ele>173.66</ele>
        <time>2012-09-06T14:55:53Z</time>
      </trkpt>
      <trkpt lat="46.29345" lon="4.83672">
        <ele>173.66</ele>
        <time>2012-09-06T14:55:54Z</time>
      </trkpt>
      <trkpt lat="46.29345" lon="4.83669">
        <ele>173.66</ele>
        <time>2012-09-06T14:55:55Z</time>
      </trkpt>
      <trkpt lat="46.29345" lon="4.83667">
        <ele>173.66</ele>
        <time>2012-09-06T14:55:56Z</time>
      </trkpt>
      <trkpt lat="46.29344" lon="4.83664">
        <ele>173.66</ele>
        <time>2012-09-06T14:55:57Z</time>
      </trkpt>
      <trkpt lat="46.29344" lon="4.83662">
        <ele>173.66</ele>
        <time>2012-09-06T14:55:58Z</time>
      </trkpt>
      <trkpt lat="46.29335" lon="4.8364">
        <ele>174.14</ele>
        <time>2012-09-06T14:56:08Z</time>
      </trkpt>
      <trkpt lat="46.29334" lon="4.83639">
        <ele>174.14</ele>
        <time>2012-09-06T14:56:09Z</time>
      </trkpt>
      <trkpt lat="46.29333" lon="4.83637">
        <ele>174.14</ele>
        <time>2012-09-06T14:56:10Z</time>
      </trkpt>
      <trkpt lat="46.29331" lon="4.83634">
        <ele>174.14</ele>
        <time>2012-09-06T14:56:11Z</time>
      </trkpt>
      <trkpt lat="46.29328" lon="4.83631">
        <ele>174.14</ele>
        <time>2012-09-06T14:56:12Z</time>
      </trkpt>
      <trkpt lat="46.29326" lon="4.83628">
        <ele>174.14</ele>
        <time>2012-09-06T14:56:13Z</time>
      </trkpt>
      <trkpt lat="46.29323" lon="4.83627">
        <ele>174.14</ele>
        <time>2012-09-06T14:56:14Z</time>
      </trkpt>
      <trkpt lat="46.29293" lon="4.83584">
        <ele>174.14</ele>
        <time>2012-09-06T14:56:26Z</time>
      </trkpt>
      <trkpt lat="46.2928" lon="4.83559">
        <ele>173.66</ele>
        <time>2012-09-06T14:56:31Z</time>
      </trkpt>
      <trkpt lat="46.29246" lon="4.83496">
        <ele>173.66</ele>
        <time>2012-09-06T14:56:45Z</time>
      </trkpt>
      <trkpt lat="46.29218" lon="4.8345">
        <ele>173.66</ele>
        <time>2012-09-06T14:56:55Z</time>
      </trkpt>
      <trkpt lat="46.29181" lon="4.83395">
        <ele>173.17</ele>
        <time>2012-09-06T14:57:09Z</time>
      </trkpt>
      <trkpt lat="46.29146" lon="4.83348">
        <ele>173.66</ele>
        <time>2012-09-06T14:57:22Z</time>
      </trkpt>
      <trkpt lat="46.29101" lon="4.83295">
        <ele>173.66</ele>
        <time>2012-09-06T14:57:37Z</time>
      </trkpt>
      <trkpt lat="46.29061" lon="4.83268">
        <ele>173.66</ele>
        <time>2012-09-06T14:57:50Z</time>
      </trkpt>
      <trkpt lat="46.29001" lon="4.83251">
        <ele>173.66</ele>
        <time>2012-09-06T14:58:06Z</time>
      </trkpt>
      <trkpt lat="46.28954" lon="4.83238">
        <ele>173.66</ele>
        <time>2012-09-06T14:58:20Z</time>
      </trkpt>
      <trkpt lat="46.28906" lon="4.83223">
        <ele>173.17</ele>
        <time>2012-09-06T14:58:33Z</time>
      </trkpt>
      <trkpt lat="46.28887" lon="4.83227">
        <ele>173.66</ele>
        <time>2012-09-06T14:58:41Z</time>
      </trkpt>
      <trkpt lat="46.28887" lon="4.83229">
        <ele>173.66</ele>
        <time>2012-09-06T14:58:55Z</time>
      </trkpt>
      <trkpt lat="46.28886" lon="4.8323">
        <ele>173.66</ele>
        <time>2012-09-06T14:59:06Z</time>
      </trkpt>
      <trkpt lat="46.28885" lon="4.83232">
        <ele>174.14</ele>
        <time>2012-09-06T14:59:07Z</time>
      </trkpt>
      <trkpt lat="46.28885" lon="4.83235">
        <ele>173.66</ele>
        <time>2012-09-06T14:59:08Z</time>
      </trkpt>
      <trkpt lat="46.28885" lon="4.83239">
        <ele>173.66</ele>
        <time>2012-09-06T14:59:09Z</time>
      </trkpt>
      <trkpt lat="46.28885" lon="4.83243">
        <ele>173.66</ele>
        <time>2012-09-06T14:59:10Z</time>
      </trkpt>
      <trkpt lat="46.28887" lon="4.83247">
        <ele>173.66</ele>
        <time>2012-09-06T14:59:11Z</time>
      </trkpt>
      <trkpt lat="46.2889" lon="4.83252">
        <ele>173.66</ele>
        <time>2012-09-06T14:59:12Z</time>
      </trkpt>
      <trkpt lat="46.28893" lon="4.83256">
        <ele>173.66</ele>
        <time>2012-09-06T14:59:13Z</time>
      </trkpt>
      <trkpt lat="46.28896" lon="4.8326">
        <ele>173.66</ele>
        <time>2012-09-06T14:59:14Z</time>
      </trkpt>
      <trkpt lat="46.28899" lon="4.83264">
        <ele>173.66</ele>
        <time>2012-09-06T14:59:15Z</time>
      </trkpt>
      <trkpt lat="46.28902" lon="4.83267">
        <ele>173.66</ele>
        <time>2012-09-06T14:59:16Z</time>
      </trkpt>
      <trkpt lat="46.28942" lon="4.83338">
        <ele>173.66</ele>
        <time>2012-09-06T14:59:32Z</time>
      </trkpt>
      <trkpt lat="46.2897" lon="4.83434">
        <ele>173.66</ele>
        <time>2012-09-06T14:59:50Z</time>
      </trkpt>
      <trkpt lat="46.29007" lon="4.83555">
        <ele>174.14</ele>
        <time>2012-09-06T15:00:12Z</time>
      </trkpt>
      <trkpt lat="46.29046" lon="4.83649">
        <ele>173.66</ele>
        <time>2012-09-06T15:00:31Z</time>
      </trkpt>
      <trkpt lat="46.29085" lon="4.83696">
        <ele>174.62</ele>
        <time>2012-09-06T15:00:45Z</time>
      </trkpt>
      <trkpt lat="46.29138" lon="4.83728">
        <ele>175.58</ele>
        <time>2012-09-06T15:01:02Z</time>
      </trkpt>
      <trkpt lat="46.29189" lon="4.83735">
        <ele>177.5</ele>
        <time>2012-09-06T15:01:18Z</time>
      </trkpt>
      <trkpt lat="46.29231" lon="4.83725">
        <ele>179.42</ele>
        <time>2012-09-06T15:01:33Z</time>
      </trkpt>
      <trkpt lat="46.29273" lon="4.837">
        <ele>181.35</ele>
        <time>2012-09-06T15:01:49Z</time>
      </trkpt>
      <trkpt lat="46.29316" lon="4.83666">
        <ele>182.79</ele>
        <time>2012-09-06T15:02:07Z</time>
      </trkpt>
      <trkpt lat="46.29349" lon="4.83639">
        <ele>183.75</ele>
        <time>2012-09-06T15:02:22Z</time>
      </trkpt>
      <trkpt lat="46.29403" lon="4.83595">
        <ele>183.75</ele>
        <time>2012-09-06T15:02:40Z</time>
      </trkpt>
      <trkpt lat="46.29453" lon="4.83555">
        <ele>182.79</ele>
        <time>2012-09-06T15:02:57Z</time>
      </trkpt>
      <trkpt lat="46.29456" lon="4.83552">
        <ele>182.79</ele>
        <time>2012-09-06T15:03:07Z</time>
      </trkpt>
      <trkpt lat="46.29474" lon="4.83536">
        <ele>182.31</ele>
        <time>2012-09-06T15:03:17Z</time>
      </trkpt>
      <trkpt lat="46.29538" lon="4.83495">
        <ele>180.38</ele>
        <time>2012-09-06T15:03:31Z</time>
      </trkpt>
      <trkpt lat="46.29609" lon="4.83471">
        <ele>177.02</ele>
        <time>2012-09-06T15:03:42Z</time>
      </trkpt>
      <trkpt lat="46.29676" lon="4.83452">
        <ele>177.98</ele>
        <time>2012-09-06T15:03:54Z</time>
      </trkpt>
      <trkpt lat="46.29712" lon="4.8346">
        <ele>178.46</ele>
        <time>2012-09-06T15:04:06Z</time>
      </trkpt>
      <trkpt lat="46.29744" lon="4.83447">
        <ele>178.94</ele>
        <time>2012-09-06T15:04:17Z</time>
      </trkpt>
      <trkpt lat="46.29749" lon="4.83434">
        <ele>178.94</ele>
        <time>2012-09-06T15:04:21Z</time>
      </trkpt>
      <trkpt lat="46.2975" lon="4.83432">
        <ele>180.38</ele>
        <time>2012-09-06T15:04:22Z</time>
      </trkpt>
      <trkpt lat="46.29753" lon="4.8343">
        <ele>178.94</ele>
        <time>2012-09-06T15:04:23Z</time>
      </trkpt>
      <trkpt lat="46.29755" lon="4.83428">
        <ele>178.94</ele>
        <time>2012-09-06T15:04:24Z</time>
      </trkpt>
      <trkpt lat="46.29758" lon="4.83426">
        <ele>178.94</ele>
        <time>2012-09-06T15:04:25Z</time>
      </trkpt>
      <trkpt lat="46.2976" lon="4.83425">
        <ele>178.94</ele>
        <time>2012-09-06T15:04:26Z</time>
      </trkpt>
      <trkpt lat="46.29781" lon="4.83415">
        <ele>177.5</ele>
        <time>2012-09-06T15:04:38Z</time>
      </trkpt>
      <trkpt lat="46.29799" lon="4.83407">
        <ele>176.54</ele>
        <time>2012-09-06T15:04:49Z</time>
      </trkpt>
      <trkpt lat="46.29858" lon="4.83391">
        <ele>174.14</ele>
        <time>2012-09-06T15:05:01Z</time>
      </trkpt>
      <trkpt lat="46.29863" lon="4.83391">
        <ele>175.1</ele>
        <time>2012-09-06T15:05:02Z</time>
      </trkpt>
      <trkpt lat="46.29868" lon="4.8339">
        <ele>174.62</ele>
        <time>2012-09-06T15:05:03Z</time>
      </trkpt>
      <trkpt lat="46.29873" lon="4.8339">
        <ele>174.62</ele>
        <time>2012-09-06T15:05:04Z</time>
      </trkpt>
      <trkpt lat="46.29878" lon="4.83391">
        <ele>174.62</ele>
        <time>2012-09-06T15:05:05Z</time>
      </trkpt>
      <trkpt lat="46.29882" lon="4.83391">
        <ele>175.1</ele>
        <time>2012-09-06T15:05:06Z</time>
      </trkpt>
      <trkpt lat="46.2991" lon="4.83398">
        <ele>174.62</ele>
        <time>2012-09-06T15:05:12Z</time>
      </trkpt>
      <trkpt lat="46.29987" lon="4.83437">
        <ele>174.62</ele>
        <time>2012-09-06T15:05:30Z</time>
      </trkpt>
      <trkpt lat="46.30055" lon="4.83491">
        <ele>175.1</ele>
        <time>2012-09-06T15:05:47Z</time>
      </trkpt>
      <trkpt lat="46.30123" lon="4.83552">
        <ele>174.14</ele>
        <time>2012-09-06T15:06:05Z</time>
      </trkpt>
      <trkpt lat="46.30137" lon="4.83565">
        <ele>174.62</ele>
        <time>2012-09-06T15:06:09Z</time>
      </trkpt>
      <trkpt lat="46.30198" lon="4.83621">
        <ele>174.14</ele>
        <time>2012-09-06T15:06:26Z</time>
      </trkpt>
      <trkpt lat="46.30272" lon="4.8369">
        <ele>174.14</ele>
        <time>2012-09-06T15:06:46Z</time>
      </trkpt>
      <trkpt lat="46.30335" lon="4.8375">
        <ele>174.62</ele>
        <time>2012-09-06T15:07:04Z</time>
      </trkpt>
      <trkpt lat="46.30359" lon="4.83771">
        <ele>174.14</ele>
        <time>2012-09-06T15:07:11Z</time>
      </trkpt>
      <trkpt lat="46.30404" lon="4.83815">
        <ele>175.1</ele>
        <time>2012-09-06T15:07:26Z</time>
      </trkpt>
      <trkpt lat="46.30408" lon="4.83819">
        <ele>174.62</ele>
        <time>2012-09-06T15:07:35Z</time>
      </trkpt>
      <trkpt lat="46.30407" lon="4.83818">
        <ele>175.1</ele>
        <time>2012-09-06T15:07:59Z</time>
      </trkpt>
      <trkpt lat="46.30407" lon="4.83817">
        <ele>174.62</ele>
        <time>2012-09-06T15:08:28Z</time>
      </trkpt>
      <trkpt lat="46.30407" lon="4.83816">
        <ele>175.1</ele>
        <time>2012-09-06T15:08:54Z</time>
      </trkpt>
      <trkpt lat="46.30408" lon="4.83816">
        <ele>175.1</ele>
        <time>2012-09-06T15:08:56Z</time>
      </trkpt>
      <trkpt lat="46.3041" lon="4.83818">
        <ele>175.1</ele>
        <time>2012-09-06T15:08:58Z</time>
      </trkpt>
      <trkpt lat="46.30426" lon="4.83835">
        <ele>176.06</ele>
        <time>2012-09-06T15:09:10Z</time>
      </trkpt>
      <trkpt lat="46.30442" lon="4.8386">
        <ele>177.02</ele>
        <time>2012-09-06T15:09:21Z</time>
      </trkpt>
      <trkpt lat="46.30454" lon="4.83872">
        <ele>177.5</ele>
        <time>2012-09-06T15:09:29Z</time>
      </trkpt>
      <trkpt lat="46.30454" lon="4.83874">
        <ele>177.5</ele>
        <time>2012-09-06T15:09:30Z</time>
      </trkpt>
      <trkpt lat="46.30454" lon="4.83876">
        <ele>177.5</ele>
        <time>2012-09-06T15:09:31Z</time>
      </trkpt>
      <trkpt lat="46.30454" lon="4.83879">
        <ele>177.5</ele>
        <time>2012-09-06T15:09:32Z</time>
      </trkpt>
      <trkpt lat="46.30454" lon="4.83881">
        <ele>177.5</ele>
        <time>2012-09-06T15:09:33Z</time>
      </trkpt>
      <trkpt lat="46.30455" lon="4.83884">
        <ele>177.5</ele>
        <time>2012-09-06T15:09:34Z</time>
      </trkpt>
      <trkpt lat="46.30456" lon="4.83886">
        <ele>177.5</ele>
        <time>2012-09-06T15:09:35Z</time>
      </trkpt>
      <trkpt lat="46.30458" lon="4.83888">
        <ele>177.5</ele>
        <time>2012-09-06T15:09:36Z</time>
      </trkpt>
      <trkpt lat="46.30459" lon="4.83892">
        <ele>177.98</ele>
        <time>2012-09-06T15:09:37Z</time>
      </trkpt>
      <trkpt lat="46.30459" lon="4.83895">
        <ele>177.5</ele>
        <time>2012-09-06T15:09:38Z</time>
      </trkpt>
      <trkpt lat="46.30459" lon="4.83898">
        <ele>177.5</ele>
        <time>2012-09-06T15:09:39Z</time>
      </trkpt>
      <trkpt lat="46.30461" lon="4.83903">
        <ele>177.5</ele>
        <time>2012-09-06T15:09:41Z</time>
      </trkpt>
      <trkpt lat="46.30463" lon="4.83903">
        <ele>177.5</ele>
        <time>2012-09-06T15:09:42Z</time>
      </trkpt>
      <trkpt lat="46.30464" lon="4.83904">
        <ele>177.5</ele>
        <time>2012-09-06T15:09:43Z</time>
      </trkpt>
      <trkpt lat="46.30466" lon="4.83904">
        <ele>177.5</ele>
        <time>2012-09-06T15:09:44Z</time>
      </trkpt>
      <trkpt lat="46.30467" lon="4.83905">
        <ele>177.5</ele>
        <time>2012-09-06T15:09:45Z</time>
      </trkpt>
      <trkpt lat="46.3047" lon="4.83908">
        <ele>177.5</ele>
        <time>2012-09-06T15:09:59Z</time>
      </trkpt>
      <trkpt lat="46.30471" lon="4.83908">
        <ele>177.5</ele>
        <time>2012-09-06T15:10:08Z</time>
      </trkpt>
      <trkpt lat="46.30472" lon="4.83908">
        <ele>177.5</ele>
        <time>2012-09-06T15:10:09Z</time>
      </trkpt>
      <trkpt lat="46.30473" lon="4.83908">
        <ele>177.5</ele>
        <time>2012-09-06T15:10:10Z</time>
      </trkpt>
      <trkpt lat="46.30474" lon="4.83906">
        <ele>177.5</ele>
        <time>2012-09-06T15:10:11Z</time>
      </trkpt>
      <trkpt lat="46.30475" lon="4.83903">
        <ele>177.5</ele>
        <time>2012-09-06T15:10:12Z</time>
      </trkpt>
      <trkpt lat="46.30475" lon="4.839">
        <ele>177.5</ele>
        <time>2012-09-06T15:10:13Z</time>
      </trkpt>
      <trkpt lat="46.30474" lon="4.83896">
        <ele>177.5</ele>
        <time>2012-09-06T15:10:14Z</time>
      </trkpt>
      <trkpt lat="46.30468" lon="4.83841">
        <ele>179.42</ele>
        <time>2012-09-06T15:10:26Z</time>
      </trkpt>
      <trkpt lat="46.3048" lon="4.83776">
        <ele>180.87</ele>
        <time>2012-09-06T15:10:40Z</time>
      </trkpt>
      <trkpt lat="46.30498" lon="4.83699">
        <ele>181.83</ele>
        <time>2012-09-06T15:10:57Z</time>
      </trkpt>
      <trkpt lat="46.30509" lon="4.83663">
        <ele>182.31</ele>
        <time>2012-09-06T15:11:11Z</time>
      </trkpt>
      <trkpt lat="46.30509" lon="4.83661">
        <ele>182.31</ele>
        <time>2012-09-06T15:11:13Z</time>
      </trkpt>
      <trkpt lat="46.3051" lon="4.83659">
        <ele>182.79</ele>
        <time>2012-09-06T15:11:14Z</time>
      </trkpt>
      <trkpt lat="46.30511" lon="4.83655">
        <ele>182.79</ele>
        <time>2012-09-06T15:11:15Z</time>
      </trkpt>
      <trkpt lat="46.30529" lon="4.83605">
        <ele>181.83</ele>
        <time>2012-09-06T15:11:26Z</time>
      </trkpt>
      <trkpt lat="46.30531" lon="4.83603">
        <ele>182.31</ele>
        <time>2012-09-06T15:11:27Z</time>
      </trkpt>
      <trkpt lat="46.30549" lon="4.83607">
        <ele>179.9</ele>
        <time>2012-09-06T15:11:33Z</time>
      </trkpt>
      <trkpt lat="46.30597" lon="4.83646">
        <ele>177.98</ele>
        <time>2012-09-06T15:11:49Z</time>
      </trkpt>
      <trkpt lat="46.30638" lon="4.83667">
        <ele>177.02</ele>
        <time>2012-09-06T15:12:01Z</time>
      </trkpt>
      <trkpt lat="46.30679" lon="4.8368">
        <ele>177.5</ele>
        <time>2012-09-06T15:12:13Z</time>
      </trkpt>
      <trkpt lat="46.30732" lon="4.83702">
        <ele>177.98</ele>
        <time>2012-09-06T15:12:28Z</time>
      </trkpt>
      <trkpt lat="46.30785" lon="4.83724">
        <ele>177.5</ele>
        <time>2012-09-06T15:12:43Z</time>
      </trkpt>
      <trkpt lat="46.30831" lon="4.83743">
        <ele>177.5</ele>
        <time>2012-09-06T15:12:56Z</time>
      </trkpt>
      <trkpt lat="46.30881" lon="4.83762">
        <ele>177.5</ele>
        <time>2012-09-06T15:13:11Z</time>
      </trkpt>
      <trkpt lat="46.30926" lon="4.83792">
        <ele>177.5</ele>
        <time>2012-09-06T15:13:24Z</time>
      </trkpt>
      <trkpt lat="46.30971" lon="4.83803">
        <ele>177.98</ele>
        <time>2012-09-06T15:13:37Z</time>
      </trkpt>
      <trkpt lat="46.31007" lon="4.8381">
        <ele>177.5</ele>
        <time>2012-09-06T15:13:49Z</time>
      </trkpt>
      <trkpt lat="46.31056" lon="4.83831">
        <ele>177.02</ele>
        <time>2012-09-06T15:14:04Z</time>
      </trkpt>
      <trkpt lat="46.31115" lon="4.83852">
        <ele>177.02</ele>
        <time>2012-09-06T15:14:20Z</time>
      </trkpt>
      <trkpt lat="46.31151" lon="4.83874">
        <ele>177.5</ele>
        <time>2012-09-06T15:14:32Z</time>
      </trkpt>
      <trkpt lat="46.3119" lon="4.83906">
        <ele>177.5</ele>
        <time>2012-09-06T15:14:46Z</time>
      </trkpt>
      <trkpt lat="46.31235" lon="4.8394">
        <ele>177.5</ele>
        <time>2012-09-06T15:15:01Z</time>
      </trkpt>
      <trkpt lat="46.31286" lon="4.83973">
        <ele>177.5</ele>
        <time>2012-09-06T15:15:18Z</time>
      </trkpt>
      <trkpt lat="46.31308" lon="4.83986">
        <ele>177.02</ele>
        <time>2012-09-06T15:15:30Z</time>
      </trkpt>
      <trkpt lat="46.31309" lon="4.83987">
        <ele>177.5</ele>
        <time>2012-09-06T15:15:43Z</time>
      </trkpt>
      <trkpt lat="46.3131" lon="4.83988">
        <ele>177.02</ele>
        <time>2012-09-06T15:16:13Z</time>
      </trkpt>
      <trkpt lat="46.3131" lon="4.83987">
        <ele>177.5</ele>
        <time>2012-09-06T15:16:31Z</time>
      </trkpt>
      <trkpt lat="46.3131" lon="4.83987">
        <ele>177.02</ele>
        <time>2012-09-06T15:16:34Z</time>
      </trkpt>
      <trkpt lat="46.31311" lon="4.83988">
        <ele>177.02</ele>
        <time>2012-09-06T15:16:35Z</time>
      </trkpt>
      <trkpt lat="46.31312" lon="4.83988">
        <ele>177.02</ele>
        <time>2012-09-06T15:16:36Z</time>
      </trkpt>
      <trkpt lat="46.31314" lon="4.83988">
        <ele>177.02</ele>
        <time>2012-09-06T15:16:37Z</time>
      </trkpt>
      <trkpt lat="46.31315" lon="4.83988">
        <ele>177.5</ele>
        <time>2012-09-06T15:16:38Z</time>
      </trkpt>
      <trkpt lat="46.31317" lon="4.83989">
        <ele>177.5</ele>
        <time>2012-09-06T15:16:39Z</time>
      </trkpt>
      <trkpt lat="46.31319" lon="4.83989">
        <ele>177.5</ele>
        <time>2012-09-06T15:16:40Z</time>
      </trkpt>
      <trkpt lat="46.31356" lon="4.83992">
        <ele>177.98</ele>
        <time>2012-09-06T15:16:52Z</time>
      </trkpt>
      <trkpt lat="46.31406" lon="4.84013">
        <ele>177.5</ele>
        <time>2012-09-06T15:17:07Z</time>
      </trkpt>
      <trkpt lat="46.31406" lon="4.84013">
        <ele>177.02</ele>
        <time>2012-09-06T15:17:21Z</time>
      </trkpt>
      <trkpt lat="46.31409" lon="4.8401">
        <ele>177.5</ele>
        <time>2012-09-06T15:17:25Z</time>
      </trkpt>
      <trkpt lat="46.31411" lon="4.8401">
        <ele>177.5</ele>
        <time>2012-09-06T15:17:26Z</time>
      </trkpt>
      <trkpt lat="46.31412" lon="4.84009">
        <ele>177.5</ele>
        <time>2012-09-06T15:17:27Z</time>
      </trkpt>
      <trkpt lat="46.31414" lon="4.8401">
        <ele>177.5</ele>
        <time>2012-09-06T15:17:28Z</time>
      </trkpt>
      <trkpt lat="46.31416" lon="4.84011">
        <ele>177.5</ele>
        <time>2012-09-06T15:17:29Z</time>
      </trkpt>
      <trkpt lat="46.31419" lon="4.84013">
        <ele>177.5</ele>
        <time>2012-09-06T15:17:30Z</time>
      </trkpt>
      <trkpt lat="46.31422" lon="4.84015">
        <ele>177.5</ele>
        <time>2012-09-06T15:17:31Z</time>
      </trkpt>
      <trkpt lat="46.31432" lon="4.8402">
        <ele>177.02</ele>
        <time>2012-09-06T15:17:34Z</time>
      </trkpt>
      <trkpt lat="46.31455" lon="4.84023">
        <ele>177.02</ele>
        <time>2012-09-06T15:17:39Z</time>
      </trkpt>
      <trkpt lat="46.31459" lon="4.84023">
        <ele>177.02</ele>
        <time>2012-09-06T15:17:40Z</time>
      </trkpt>
      <trkpt lat="46.31463" lon="4.84021">
        <ele>176.54</ele>
        <time>2012-09-06T15:17:41Z</time>
      </trkpt>
      <trkpt lat="46.31467" lon="4.84019">
        <ele>176.54</ele>
        <time>2012-09-06T15:17:42Z</time>
      </trkpt>
      <trkpt lat="46.31471" lon="4.84018">
        <ele>176.54</ele>
        <time>2012-09-06T15:17:43Z</time>
      </trkpt>
      <trkpt lat="46.31475" lon="4.84017">
        <ele>176.54</ele>
        <time>2012-09-06T15:17:44Z</time>
      </trkpt>
      <trkpt lat="46.31511" lon="4.83998">
        <ele>177.5</ele>
        <time>2012-09-06T15:17:55Z</time>
      </trkpt>
      <trkpt lat="46.31552" lon="4.83981">
        <ele>177.5</ele>
        <time>2012-09-06T15:18:07Z</time>
      </trkpt>
      <trkpt lat="46.31581" lon="4.83992">
        <ele>177.02</ele>
        <time>2012-09-06T15:18:16Z</time>
      </trkpt>
      <trkpt lat="46.31582" lon="4.83994">
        <ele>177.02</ele>
        <time>2012-09-06T15:18:17Z</time>
      </trkpt>
      <trkpt lat="46.31584" lon="4.83995">
        <ele>177.02</ele>
        <time>2012-09-06T15:18:18Z</time>
      </trkpt>
      <trkpt lat="46.31619" lon="4.83982">
        <ele>177.5</ele>
        <time>2012-09-06T15:18:31Z</time>
      </trkpt>
      <trkpt lat="46.31658" lon="4.83941">
        <ele>177.5</ele>
        <time>2012-09-06T15:18:45Z</time>
      </trkpt>
      <trkpt lat="46.31705" lon="4.83917">
        <ele>177.5</ele>
        <time>2012-09-06T15:18:59Z</time>
      </trkpt>
      <trkpt lat="46.31756" lon="4.83911">
        <ele>177.5</ele>
        <time>2012-09-06T15:19:13Z</time>
      </trkpt>
      <trkpt lat="46.3177" lon="4.83901">
        <ele>177.5</ele>
        <time>2012-09-06T15:19:17Z</time>
      </trkpt>
      <trkpt lat="46.31814" lon="4.83897">
        <ele>177.02</ele>
        <time>2012-09-06T15:19:28Z</time>
      </trkpt>
      <trkpt lat="46.31871" lon="4.83897">
        <ele>177.5</ele>
        <time>2012-09-06T15:19:43Z</time>
      </trkpt>
      <trkpt lat="46.3191" lon="4.83894">
        <ele>177.98</ele>
        <time>2012-09-06T15:19:56Z</time>
      </trkpt>
      <trkpt lat="46.31943" lon="4.83905">
        <ele>177.5</ele>
        <time>2012-09-06T15:20:07Z</time>
      </trkpt>
      <trkpt lat="46.31987" lon="4.83923">
        <ele>177.5</ele>
        <time>2012-09-06T15:20:19Z</time>
      </trkpt>
      <trkpt lat="46.32025" lon="4.83938">
        <ele>178.94</ele>
        <time>2012-09-06T15:20:31Z</time>
      </trkpt>
      <trkpt lat="46.32043" lon="4.83945">
        <ele>177.5</ele>
        <time>2012-09-06T15:20:38Z</time>
      </trkpt>
      <trkpt lat="46.32044" lon="4.83947">
        <ele>177.5</ele>
        <time>2012-09-06T15:20:39Z</time>
      </trkpt>
      <trkpt lat="46.32045" lon="4.83949">
        <ele>177.5</ele>
        <time>2012-09-06T15:20:40Z</time>
      </trkpt>
      <trkpt lat="46.32048" lon="4.83951">
        <ele>177.5</ele>
        <time>2012-09-06T15:20:47Z</time>
      </trkpt>
      <trkpt lat="46.3205" lon="4.83949">
        <ele>177.5</ele>
        <time>2012-09-06T15:20:49Z</time>
      </trkpt>
      <trkpt lat="46.32063" lon="4.83954">
        <ele>177.5</ele>
        <time>2012-09-06T15:20:55Z</time>
      </trkpt>
      <trkpt lat="46.32117" lon="4.83976">
        <ele>177.5</ele>
        <time>2012-09-06T15:21:10Z</time>
      </trkpt>
      <trkpt lat="46.32179" lon="4.83996">
        <ele>177.5</ele>
        <time>2012-09-06T15:21:25Z</time>
      </trkpt>
      <trkpt lat="46.32214" lon="4.84013">
        <ele>177.5</ele>
        <time>2012-09-06T15:21:35Z</time>
      </trkpt>
      <trkpt lat="46.32262" lon="4.84032">
        <ele>177.98</ele>
        <time>2012-09-06T15:21:48Z</time>
      </trkpt>
      <trkpt lat="46.32315" lon="4.84055">
        <ele>177.5</ele>
        <time>2012-09-06T15:22:02Z</time>
      </trkpt>
      <trkpt lat="46.32373" lon="4.84076">
        <ele>177.5</ele>
        <time>2012-09-06T15:22:17Z</time>
      </trkpt>
      <trkpt lat="46.32413" lon="4.84092">
        <ele>177.98</ele>
        <time>2012-09-06T15:22:30Z</time>
      </trkpt>
      <trkpt lat="46.32449" lon="4.8411">
        <ele>177.98</ele>
        <time>2012-09-06T15:22:42Z</time>
      </trkpt>
      <trkpt lat="46.32471" lon="4.84117">
        <ele>177.98</ele>
        <time>2012-09-06T15:22:52Z</time>
      </trkpt>
      <trkpt lat="46.32472" lon="4.84117">
        <ele>178.46</ele>
        <time>2012-09-06T15:23:06Z</time>
      </trkpt>
      <trkpt lat="46.32474" lon="4.84116">
        <ele>178.46</ele>
        <time>2012-09-06T15:23:16Z</time>
      </trkpt>
      <trkpt lat="46.32475" lon="4.84116">
        <ele>178.46</ele>
        <time>2012-09-06T15:23:17Z</time>
      </trkpt>
      <trkpt lat="46.32477" lon="4.84116">
        <ele>177.98</ele>
        <time>2012-09-06T15:23:18Z</time>
      </trkpt>
      <trkpt lat="46.32479" lon="4.84115">
        <ele>178.46</ele>
        <time>2012-09-06T15:23:19Z</time>
      </trkpt>
      <trkpt lat="46.32481" lon="4.84114">
        <ele>178.46</ele>
        <time>2012-09-06T15:23:20Z</time>
      </trkpt>
      <trkpt lat="46.32483" lon="4.84113">
        <ele>178.46</ele>
        <time>2012-09-06T15:23:21Z</time>
      </trkpt>
      <trkpt lat="46.32484" lon="4.84111">
        <ele>177.98</ele>
        <time>2012-09-06T15:23:22Z</time>
      </trkpt>
      <trkpt lat="46.32485" lon="4.84109">
        <ele>177.98</ele>
        <time>2012-09-06T15:23:23Z</time>
      </trkpt>
      <trkpt lat="46.32487" lon="4.84106">
        <ele>178.46</ele>
        <time>2012-09-06T15:23:24Z</time>
      </trkpt>
      <trkpt lat="46.32525" lon="4.84078">
        <ele>177.98</ele>
        <time>2012-09-06T15:23:37Z</time>
      </trkpt>
      <trkpt lat="46.32566" lon="4.8409">
        <ele>177.98</ele>
        <time>2012-09-06T15:23:49Z</time>
      </trkpt>
      <trkpt lat="46.32598" lon="4.84103">
        <ele>177.98</ele>
        <time>2012-09-06T15:24:01Z</time>
      </trkpt>
      <trkpt lat="46.32656" lon="4.84129">
        <ele>177.98</ele>
        <time>2012-09-06T15:24:16Z</time>
      </trkpt>
      <trkpt lat="46.32674" lon="4.84135">
        <ele>177.98</ele>
        <time>2012-09-06T15:24:20Z</time>
      </trkpt>
      <trkpt lat="46.32738" lon="4.84161">
        <ele>178.46</ele>
        <time>2012-09-06T15:24:35Z</time>
      </trkpt>
      <trkpt lat="46.32787" lon="4.84181">
        <ele>178.46</ele>
        <time>2012-09-06T15:24:48Z</time>
      </trkpt>
      <trkpt lat="46.32839" lon="4.84203">
        <ele>178.46</ele>
        <time>2012-09-06T15:25:03Z</time>
      </trkpt>
      <trkpt lat="46.32896" lon="4.84225">
        <ele>178.46</ele>
        <time>2012-09-06T15:25:21Z</time>
      </trkpt>
      <trkpt lat="46.32957" lon="4.84249">
        <ele>178.46</ele>
        <time>2012-09-06T15:25:38Z</time>
      </trkpt>
      <trkpt lat="46.33001" lon="4.8427">
        <ele>178.46</ele>
        <time>2012-09-06T15:25:51Z</time>
      </trkpt>
      <trkpt lat="46.33013" lon="4.84315">
        <ele>177.98</ele>
        <time>2012-09-06T15:26:03Z</time>
      </trkpt>
      <trkpt lat="46.33018" lon="4.84319">
        <ele>177.98</ele>
        <time>2012-09-06T15:26:05Z</time>
      </trkpt>
      <trkpt lat="46.3302" lon="4.8432">
        <ele>177.98</ele>
        <time>2012-09-06T15:26:06Z</time>
      </trkpt>
      <trkpt lat="46.33051" lon="4.84333">
        <ele>177.5</ele>
        <time>2012-09-06T15:26:22Z</time>
      </trkpt>
      <trkpt lat="46.33069" lon="4.84342">
        <ele>177.5</ele>
        <time>2012-09-06T15:26:31Z</time>
      </trkpt>
      <trkpt lat="46.3307" lon="4.84344">
        <ele>177.5</ele>
        <time>2012-09-06T15:26:32Z</time>
      </trkpt>
      <trkpt lat="46.33071" lon="4.84347">
        <ele>177.5</ele>
        <time>2012-09-06T15:26:45Z</time>
      </trkpt>
      <trkpt lat="46.33069" lon="4.84353">
        <ele>177.5</ele>
        <time>2012-09-06T15:26:48Z</time>
      </trkpt>
      <trkpt lat="46.33067" lon="4.84354">
        <ele>177.5</ele>
        <time>2012-09-06T15:26:49Z</time>
      </trkpt>
      <trkpt lat="46.33064" lon="4.84356">
        <ele>177.5</ele>
        <time>2012-09-06T15:26:50Z</time>
      </trkpt>
      <trkpt lat="46.33042" lon="4.84359">
        <ele>177.02</ele>
        <time>2012-09-06T15:27:02Z</time>
      </trkpt>
      <trkpt lat="46.33042" lon="4.84356">
        <ele>177.5</ele>
        <time>2012-09-06T15:27:15Z</time>
      </trkpt>
      <trkpt lat="46.33041" lon="4.84355">
        <ele>177.5</ele>
        <time>2012-09-06T15:27:48Z</time>
      </trkpt>
      <trkpt lat="46.33041" lon="4.84356">
        <ele>177.02</ele>
        <time>2012-09-06T15:28:20Z</time>
      </trkpt>
      <trkpt lat="46.33041" lon="4.84357">
        <ele>177.02</ele>
        <time>2012-09-06T15:28:50Z</time>
      </trkpt>
      <trkpt lat="46.33041" lon="4.84356">
        <ele>177.02</ele>
        <time>2012-09-06T15:29:21Z</time>
      </trkpt>
      <trkpt lat="46.33042" lon="4.84357">
        <ele>177.02</ele>
        <time>2012-09-06T15:29:53Z</time>
      </trkpt>
      <trkpt lat="46.33041" lon="4.84358">
        <ele>177.02</ele>
        <time>2012-09-06T15:30:20Z</time>
      </trkpt>
      <trkpt lat="46.33041" lon="4.84357">
        <ele>177.02</ele>
        <time>2012-09-06T15:30:49Z</time>
      </trkpt>
      <trkpt lat="46.3304" lon="4.84356">
        <ele>177.02</ele>
        <time>2012-09-06T15:31:21Z</time>
      </trkpt>
      <trkpt lat="46.3304" lon="4.84356">
        <ele>177.02</ele>
        <time>2012-09-06T15:31:52Z</time>
      </trkpt>
      <trkpt lat="46.3304" lon="4.84359">
        <ele>177.5</ele>
        <time>2012-09-06T15:32:13Z</time>
      </trkpt>
      <trkpt lat="46.33039" lon="4.8436">
        <ele>177.5</ele>
        <time>2012-09-06T15:32:35Z</time>
      </trkpt>
      <trkpt lat="46.33038" lon="4.84361">
        <ele>177.5</ele>
        <time>2012-09-06T15:32:36Z</time>
      </trkpt>
      <trkpt lat="46.33036" lon="4.84361">
        <ele>177.02</ele>
        <time>2012-09-06T15:32:37Z</time>
      </trkpt>
      <trkpt lat="46.33034" lon="4.84361">
        <ele>178.46</ele>
        <time>2012-09-06T15:32:38Z</time>
      </trkpt>
      <trkpt lat="46.33033" lon="4.84362">
        <ele>177.5</ele>
        <time>2012-09-06T15:32:39Z</time>
      </trkpt>
      <trkpt lat="46.33031" lon="4.84362">
        <ele>177.5</ele>
        <time>2012-09-06T15:32:40Z</time>
      </trkpt>
      <trkpt lat="46.33029" lon="4.84362">
        <ele>177.5</ele>
        <time>2012-09-06T15:32:41Z</time>
      </trkpt>
      <trkpt lat="46.33025" lon="4.84364">
        <ele>177.5</ele>
        <time>2012-09-06T15:32:44Z</time>
      </trkpt>
      <trkpt lat="46.33024" lon="4.84366">
        <ele>177.5</ele>
        <time>2012-09-06T15:32:45Z</time>
      </trkpt>
      <trkpt lat="46.33022" lon="4.84368">
        <ele>177.5</ele>
        <time>2012-09-06T15:32:46Z</time>
      </trkpt>
      <trkpt lat="46.33021" lon="4.84371">
        <ele>177.5</ele>
        <time>2012-09-06T15:32:47Z</time>
      </trkpt>
      <trkpt lat="46.3302" lon="4.84375">
        <ele>177.02</ele>
        <time>2012-09-06T15:32:48Z</time>
      </trkpt>
      <trkpt lat="46.33018" lon="4.84394">
        <ele>177.02</ele>
        <time>2012-09-06T15:32:53Z</time>
      </trkpt>
      <trkpt lat="46.33017" lon="4.84396">
        <ele>177.02</ele>
        <time>2012-09-06T15:32:54Z</time>
      </trkpt>
      <trkpt lat="46.33014" lon="4.84398">
        <ele>177.02</ele>
        <time>2012-09-06T15:32:55Z</time>
      </trkpt>
      <trkpt lat="46.33012" lon="4.84399">
        <ele>177.02</ele>
        <time>2012-09-06T15:32:56Z</time>
      </trkpt>
      <trkpt lat="46.3301" lon="4.84399">
        <ele>177.02</ele>
        <time>2012-09-06T15:32:57Z</time>
      </trkpt>
      <trkpt lat="46.3298" lon="4.84414">
        <ele>177.5</ele>
        <time>2012-09-06T15:33:10Z</time>
      </trkpt>
      <trkpt lat="46.32973" lon="4.84414">
        <ele>177.5</ele>
        <time>2012-09-06T15:33:13Z</time>
      </trkpt>
      <trkpt lat="46.32971" lon="4.84413">
        <ele>177.5</ele>
        <time>2012-09-06T15:33:14Z</time>
      </trkpt>
      <trkpt lat="46.3297" lon="4.84411">
        <ele>177.5</ele>
        <time>2012-09-06T15:33:15Z</time>
      </trkpt>
      <trkpt lat="46.32969" lon="4.84409">
        <ele>177.5</ele>
        <time>2012-09-06T15:33:16Z</time>
      </trkpt>
      <trkpt lat="46.32968" lon="4.84407">
        <ele>177.5</ele>
        <time>2012-09-06T15:33:17Z</time>
      </trkpt>
      <trkpt lat="46.32967" lon="4.84405">
        <ele>177.5</ele>
        <time>2012-09-06T15:33:18Z</time>
      </trkpt>
      <trkpt lat="46.32966" lon="4.84403">
        <ele>177.5</ele>
        <time>2012-09-06T15:33:19Z</time>
      </trkpt>
      <trkpt lat="46.32965" lon="4.84402">
        <ele>177.02</ele>
        <time>2012-09-06T15:33:20Z</time>
      </trkpt>
      <trkpt lat="46.32955" lon="4.8438">
        <ele>177.02</ele>
        <time>2012-09-06T15:33:29Z</time>
      </trkpt>
      <trkpt lat="46.32943" lon="4.84384">
        <ele>177.02</ele>
        <time>2012-09-06T15:33:35Z</time>
      </trkpt>
      <trkpt lat="46.32933" lon="4.84419">
        <ele>177.5</ele>
        <time>2012-09-06T15:33:48Z</time>
      </trkpt>
      <trkpt lat="46.32933" lon="4.84425">
        <ele>177.5</ele>
        <time>2012-09-06T15:33:51Z</time>
      </trkpt>
      <trkpt lat="46.32933" lon="4.84427">
        <ele>177.5</ele>
        <time>2012-09-06T15:33:52Z</time>
      </trkpt>
      <trkpt lat="46.32933" lon="4.8443">
        <ele>177.5</ele>
        <time>2012-09-06T15:33:53Z</time>
      </trkpt>
      <trkpt lat="46.32932" lon="4.84433">
        <ele>177.98</ele>
        <time>2012-09-06T15:33:54Z</time>
      </trkpt>
      <trkpt lat="46.32931" lon="4.84436">
        <ele>177.5</ele>
        <time>2012-09-06T15:33:55Z</time>
      </trkpt>
      <trkpt lat="46.32931" lon="4.84439">
        <ele>177.98</ele>
        <time>2012-09-06T15:33:56Z</time>
      </trkpt>
      <trkpt lat="46.32923" lon="4.84469">
        <ele>177.98</ele>
        <time>2012-09-06T15:34:10Z</time>
      </trkpt>
      <trkpt lat="46.32922" lon="4.84472">
        <ele>177.98</ele>
        <time>2012-09-06T15:34:12Z</time>
      </trkpt>
      <trkpt lat="46.32921" lon="4.84474">
        <ele>177.98</ele>
        <time>2012-09-06T15:34:13Z</time>
      </trkpt>
      <trkpt lat="46.32921" lon="4.84476">
        <ele>177.5</ele>
        <time>2012-09-06T15:34:14Z</time>
      </trkpt>
      <trkpt lat="46.32921" lon="4.84478">
        <ele>177.98</ele>
        <time>2012-09-06T15:34:15Z</time>
      </trkpt>
      <trkpt lat="46.32921" lon="4.84479">
        <ele>177.5</ele>
        <time>2012-09-06T15:34:16Z</time>
      </trkpt>
      <trkpt lat="46.32921" lon="4.84484">
        <ele>177.5</ele>
        <time>2012-09-06T15:34:27Z</time>
      </trkpt>
      <trkpt lat="46.32921" lon="4.84486">
        <ele>177.5</ele>
        <time>2012-09-06T15:34:28Z</time>
      </trkpt>
      <trkpt lat="46.32921" lon="4.84489">
        <ele>177.5</ele>
        <time>2012-09-06T15:34:29Z</time>
      </trkpt>
      <trkpt lat="46.32922" lon="4.84492">
        <ele>177.5</ele>
        <time>2012-09-06T15:34:30Z</time>
      </trkpt>
      <trkpt lat="46.32922" lon="4.84495">
        <ele>177.5</ele>
        <time>2012-09-06T15:34:31Z</time>
      </trkpt>
      <trkpt lat="46.32923" lon="4.84499">
        <ele>177.02</ele>
        <time>2012-09-06T15:34:32Z</time>
      </trkpt>
      <trkpt lat="46.32932" lon="4.84515">
        <ele>177.02</ele>
        <time>2012-09-06T15:34:38Z</time>
      </trkpt>
      <trkpt lat="46.32934" lon="4.84514">
        <ele>177.98</ele>
        <time>2012-09-06T15:34:39Z</time>
      </trkpt>
      <trkpt lat="46.32936" lon="4.84512">
        <ele>177.02</ele>
        <time>2012-09-06T15:34:40Z</time>
      </trkpt>
      <trkpt lat="46.32936" lon="4.84509">
        <ele>176.54</ele>
        <time>2012-09-06T15:34:41Z</time>
      </trkpt>
      <trkpt lat="46.32935" lon="4.84505">
        <ele>176.54</ele>
        <time>2012-09-06T15:34:42Z</time>
      </trkpt>
      <trkpt lat="46.32936" lon="4.84495">
        <ele>177.02</ele>
        <time>2012-09-06T15:34:51Z</time>
      </trkpt>
      <trkpt lat="46.32944" lon="4.84483">
        <ele>177.02</ele>
        <time>2012-09-06T15:35:05Z</time>
      </trkpt>
      <trkpt lat="46.32946" lon="4.84485">
        <ele>177.5</ele>
        <time>2012-09-06T15:35:19Z</time>
      </trkpt>
    </trkseg>
  </trk>
</gpx>